     2.11           OBSERVATION DATA    G (GPS)             RINEX VERSION / TYPE
teqc 2010Oct21 OPUS Account 20111027 16:30:42UTC            PGM / RUN BY / DATE
U 1381                                                      MARKER NAME
1099                                                        MARKER NUMBER
CSMIDDLETON NGS                                             OBSERVER / AGENCY
0220269730 TRIMBLE 5700 NP 1.22 / SP 1.22                   REC # / TYPE / VERS
60041226 TRM41249.00 NONE                                   ANT # / TYPE
  -764527.0641 -5544905.0652  3047781.5420                  APPROX POSITION XYZ
        2.0010        0.0000        0.0000                  ANTENNA: DELTA H/E/N
     1     1                                                WAVELENGTH FACT L1/2
     5    L1    L2    C1    P1    P2                        # / TYPES OF OBSERV
    15                                                      LEAP SECONDS
  2011     8    16    16    21   30.0000000     GPS         TIME OF FIRST OBS
                                                            END OF HEADER
 11  8 16 16 21 30.0000000  0  9G03G06G07G10G13G16G19G23G08
   -198485.37957   -154818.47855  20888242.1094                   20888240.4694
     16283.15657     21762.33454  22573344.3834                   22573343.6564
  -1021132.16857   -792789.53455  22100599.5944                   22100597.7814
   -417127.76256   -327100.67853  23727975.4144                   23727975.0664
   -644416.43457   -492453.77056  19909222.0864                   19909219.7544
    174181.04756    236527.67953  22990870.5394                   22990868.5664
   -905956.42258   -690454.32556  21033762.5704                   21033759.9454
    -91011.00858    -73565.42056  20216744.6644                   20216740.9614
  -1115755.07056   -867664.77653  24060509.1484                   24060510.1024
 11  8 16 16 22  0.0000000  0  9G03G06G07G10G13G16G19G23G08
   -219644.67647   -171306.25745  20884215.4384                   20884213.9654
     18949.93847     23840.32444  22573851.6954                   22573851.3324
  -1135321.92647   -881768.55745  22078869.9064                   22078868.1804
   -463484.72346   -363223.08143  23719154.5474                   23719153.7664
   -712448.64147   -545465.89946  19896275.5474                   19896273.3284
    205909.53546    261251.13043  22996908.1644                   22996906.1134
  -1001352.53148   -764788.93546  21015609.4774                   21015605.9304
   -101240.34448    -81536.36046  20214797.8524                   20214794.6684
  -1240682.18446   -965010.55743  24036736.7814                   24036736.2664
 11  8 16 16 22 30.0000000  0  9G03G06G07G10G13G16G19G23G08
   1334683.84047   1039858.81345  21179994.3364                   21179992.7774
   1596959.85246   1253458.37244  22874136.6954                   22874136.9104
    325410.96147    256464.85245  22356838.3524                   22356836.5314
   1065507.82446    828199.68843  24010111.6414                   24010111.3204
    794978.18847    629152.38346  20183129.6644                   20183127.5044
   1812558.65246   1513185.46243  23302643.1954                   23302642.2424
    478699.56647    388498.41446  21297254.0554                   21297251.1954
   1463961.25848   1138101.21346  20512646.2194                   20512642.4654
    209221.10246    164784.32943  24312643.0084                   24312643.9264
 11  8 16 16 23  0.0000000  0  9G03G06G07G10G13G16G19G23G08
   1313707.66047   1023513.68845  21176002.4064                   21176001.1254
   1599520.88347   1255453.93144  22874624.6484                   22874624.1484
    210270.57447    166745.07645  22334928.4224                   22334926.3094
   1019057.32046    792004.40343  24001272.3674                   24001272.8834
    727071.89147    576238.39046  20170207.2194                   20170204.9144
   1843338.87946   1537170.00143  23308500.8594                   23308499.7154
    383406.16448    314243.82746  21279120.0554                   21279116.9734
   1453803.39548   1130185.96746  20510713.1724                   20510709.5824
     83157.96946     66553.39543  24288654.7734                   24288655.0864
 11  8 16 16 23 30.0000000  0  9G03G06G07G10G13G16G19G23G08
   1292867.24247   1007274.38845  21172036.9614                   21172035.3444
   1602072.01647   1257441.77444  22875109.9144                   22875109.8094
     94701.34847     76691.15645  22312935.5634                   22312934.4774
    972603.05546    755806.23343  23992432.5164                   23992432.8914
    659275.65247    523410.11946  20157306.1884                   20157303.9774
   1873688.21946   1560818.71843  23314275.9064                   23314274.1844
    288212.25447    240066.75646  21261005.3914                   21261002.4884
   1443724.89148   1122332.54446  20508795.4304                   20508791.4654
    -43427.96146    -32084.95943  24264565.9844                   24264565.9844
 11  8 16 16 24  0.0000000  0  9G03G06G07G10G13G16G19G23G08
   1272203.64147    991172.84245  21168104.9224                   21168103.5824
   1604653.90647   1259453.56844  22875601.3594                   22875601.0234
    -21253.48847    -13663.26045  22290870.2584                   22290869.0314
    926186.63746    719637.58643  23983600.3204                   23983600.3284
    591633.31647    470701.79246  20144434.3364                   20144432.0314
   1903647.54346   1584163.61843  23319977.6484                   23319975.3554
    193162.68448    166002.15846  21242918.2664                   21242914.8984
   1433767.93848   1114573.83646  20506900.4144                   20506896.8014
   -170493.90246   -131097.38143  24240385.8284                   24240386.0314
 11  8 16 16 24 30.0000000  0  9G03G06G07G10G13G16G19G23G08
   1251757.77047    975240.95245  21164214.4924                   21164212.9104
   1607307.01247   1261520.88944  22876106.2894                   22876105.8164
   -137550.55547   -104284.33745  22268739.9694                   22268738.2814
    879849.03546    683530.25943  23974782.3364                   23974782.6334
    524188.43047    418147.31046  20131600.2344                   20131597.4804
   1933257.32447   1607236.07044  23325612.4224                   23325610.2934
     98301.29747     92084.21046  21224866.9694                   21224863.2974
   1423973.57848   1106941.84646  20505036.7664                   20505033.1914
   -297997.32446   -230450.63243  24216124.0864                   24216122.3284
 11  8 16 16 25  0.0000000  0  9G03G06G07G10G13G16G19G23G08
   1231567.95347    959508.61345  21160372.0234                   21160370.7344
   1610068.98047   1263673.05844  22876631.7194                   22876631.5704
   -254149.75847   -195140.85245  22246551.4694                   22246549.8524
    833628.49646    647514.30543  23965986.4454                   23965987.5824
    456981.87547    365778.54846  20118811.0704                   20118808.7274
   1962555.50446   1630065.74843  23331187.8914                   23331185.3444
      3669.75847     18345.36046  21206858.9144                   21206855.4384
   1414380.35548   1099466.56946  20503211.2664                   20503207.5594
   -425898.85246   -330114.15043  24191784.3054                   24191783.0664
 11  8 16 16 25 30.0000000  0  9G03G06G07G10G13G16G19G23G08
   1211670.23447    944003.86145  21156585.8984                   21156584.1884
   1612975.32847   1265937.67744  22877184.4384                   22877184.8244
   -371012.73447   -286202.91945  22224313.2814                   22224311.4774
    787560.81646    611617.29143  23957220.4224                   23957221.0204
    390052.24647    313625.57946  20106074.9454                   20106072.6254
   1991577.73446   1652680.41943  23336710.6094                   23336708.8634
    -90692.49647    -55183.65946  21188902.1804                   21188898.8834
   1405024.48448   1092176.25646  20501431.1564                   20501427.5594
   -554160.61346   -430058.35143  24167376.5474                   24167377.0634
 11  8 16 16 26  0.0000000  0  9G03G06G07G10G13G16G19G23G08
   1192092.55547    928748.50145  21152859.9384                   21152858.6914
   1616053.34447   1268336.06444  22877770.5944                   22877770.3134
   -488109.51247   -377447.15645  22202030.6094                   22202028.9494
    741674.01646    575861.28543  23948488.9844                   23948488.6254
    323429.68047    261711.85546  20093396.8674                   20093394.7194
   2020351.37946   1675101.34843  23342185.6334                   23342183.7974
   -184754.51247   -128478.72646  21171002.9614                   21170999.1804
   1395934.21548   1085092.88846  20499701.0864                   20499697.4964
   -682753.40646   -530260.45443  24142905.9384                   24142906.7974
 11  8 16 16 26 30.0000000  0  9G03G06G07G10G13G16G19G23G08
   1172852.90248    913756.53445  21149199.0784                   21149197.3404
   1619320.59846   1270881.92144  22878392.2034                   22878391.7114
   -605419.96947   -468857.89045  22179707.0314                   22179705.1174
    695986.40646    540260.50943  23939794.4534                   23939794.8634
    257134.92247    210053.59446  20080781.6724                   20080779.1524
   2048894.59046   1697342.81843  23347616.5864                   23347615.3094
   -278495.19947   -201523.40846  21153164.5784                   21153161.0984
   1387128.45348   1078231.22546  20498025.4614                   20498021.7584
   -811657.65646   -630705.25243  24118377.0314                   24118377.6914
 11  8 16 16 27  0.0000000  0 10G03G06G07G10G13G16G19G28G23G08
   1153960.87947    899035.45045  21145604.2344                   21145602.4694
   1622786.38346   1273582.49444  22879051.8754                   22879051.4884
   -722932.05147   -560425.71745  22157345.3134                   22157343.9264
    650507.15246    504822.12843  23931140.7344                   23931140.2274
    191180.19147    158660.28246  20068230.4774                   20068228.4384
   2077216.93046   1719412.04243  23353006.2034                   23353005.4144
   -371901.40647   -274307.45546  21135390.0474                   21135386.4144
   1438275.37156   1123523.59753  24698699.6254                   24698700.2974
   1378616.64548   1071598.62646  20496405.3834                   20496401.5984
   -940862.02746   -731384.03643  24093790.5164                   24093789.0084
 11  8 16 16 27 30.0000000  0 10G03G06G07G10G13G16G19G28G23G08
   1135420.61347    884588.45145  21142076.3134                   21142074.5864
   1626453.89546   1276440.28444  22879749.6804                   22879749.3244
   -840639.80547   -652146.01945  22134946.2504                   22134944.3284
    605240.28946    469549.21143  23922526.4064                   23922526.4064
    125571.94147    107536.95046  20055745.7344                   20055743.8284
   2105321.60946   1741311.70044  23358354.4774                   23358353.6414
   -464966.20747   -346825.46946  21117680.1804                   21117676.7584
   1302016.79346   1017348.12043  24672770.3204                   24672769.8404
   1370402.94548   1065198.31146  20494842.5554                   20494839.0044
  -1070361.61346   -832292.74343  24069147.0944                   24069144.7734
 11  8 16 16 28  0.0000000  0 10G03G06G07G10G13G16G19G28G23G08
   1117229.03147    870413.17845  21138614.3914                   21138612.7034
   1630319.80546   1279452.62844  22880485.1724                   22880485.0394
   -958543.69147   -744019.16745  22112509.8834                   22112508.9264
    560182.54746    434439.16543  23913951.8204                   23913951.9494
     60309.21547     56682.84846  20043326.6334                   20043324.7304
   2133205.89546   1763039.62843  23363660.8914                   23363659.7304
   -557689.34447   -419077.24946  21100035.7274                   21100032.5044
   1165736.72746    911155.96142  24646836.6954                   24646836.6994
   1362484.95748   1059028.40446  20493336.3284                   20493332.5124
  -1200157.45746   -933432.32442  24044447.9144                   24044445.3674
 11  8 16 16 28 30.0000000  0 10G03G06G07G10G13G16G19G28G23G08
   1099390.66047    856513.11845  21135219.6644                   21135218.2304
   1634388.40247   1282622.93244  22881259.6094                   22881259.6174
  -1076636.70747   -836039.69045  22090037.6884                   22090035.9144
    515338.86346    399495.96243  23905419.4614                   23905417.8404
     -4600.62947      6103.73146  20030974.8754                   20030972.4144
   2160874.05146   1784599.19244  23368926.5634                   23368924.9614
   -650063.04347   -491056.76246  21082457.1024                   21082454.1174
   1029442.24246    804952.47742  24620901.4454                   24620900.2034
   1354867.63748   1053092.81346  20491886.4614                   20491882.8594
  -1330242.96546  -1034797.68543  24019692.7664                   24019691.8984
 11  8 16 16 29  0.0000000  0 10G03G06G07G10G13G16G19G28G23G08
   1081908.95747    842890.98045  21131892.8204                   21131892.1524
   1638662.33647   1285953.17144  22882073.2894                   22882073.0944
  -1194913.41447   -928203.35145  22067529.7814                   22067528.9924
    470712.67646    364722.29243  23896926.9144                   23896926.1604
    -69151.97347    -44196.02746  20018690.9844                   20018688.7304
   2188329.46146   1805992.93343  23374151.3674                   23374149.3484
   -742080.89147   -562758.97646  21064947.2974                   21064943.7384
    893138.48846    698741.77742  24594963.7814                   24594961.8634
   1347554.50448   1047394.23646  20490494.8054                   20490491.5864
  -1460613.02346  -1136384.73943  23994884.8204                   23994884.0084
 11  8 16 16 29 30.0000000  0 11G03G06G07G10G13G16G19G28G23G11G08
   1064789.46947    829551.09245  21128634.9144                   21128633.9494
   1643146.91447   1289447.62944  22882926.4064                   22882926.6884
  -1313365.78947  -1020503.89145  22044989.7424                   22044987.3714
    426309.55546    330122.39143  23888476.9844                   23888477.2624
   -133336.31248    -94209.82646  20006477.4844                   20006474.9414
   2215577.81646   1827225.38043  23379336.3834                   23379334.3794
   -833733.91047   -634176.89646  21047506.1414                   21047502.5354
    756833.33646    592530.04342  24569024.4224                   24569023.8324
   1340551.52048   1041937.31746  20489162.2504                   20489158.5124
   1300694.39056   1016334.47752  24728311.7114                   24728313.8404
  -1591260.46147  -1238187.82243  23970023.7274                   23970023.2424
 11  8 16 16 30  0.0000000  0 11G03G06G07G10G13G16G19G28G23G11G08
   1048031.60947    816492.99045  21125446.3914                   21125445.3754
   1647841.07847   1293105.37044  22883820.0314                   22883819.9064
  -1431992.00047  -1112939.87745  22022415.8134                   22022413.5784
    382128.68046    295695.73143  23880069.8134                   23880069.6954
   -197151.84447   -143936.23746  19994333.7734                   19994331.5594
   2242618.40646   1848295.88443  23384481.6094                   23384479.9224
   -925019.46947   -705308.49746  21030135.0554                   21030131.6094
    620528.27746    486318.23842  24543086.6414                   24543085.4064
   1333858.54348   1036721.97746  20487889.0004                   20487884.7544
   1163240.00446    909227.18842  24702155.4224                   24702155.3984
  -1722184.21947  -1340206.30143  23945109.6094                   23945109.4414
 11  8 16 16 30 30.0000000  0 11G03G06G07G10G13G16G19G28G23G11G08
   1031637.62547    803718.42545  21122327.0394                   21122325.3244
   1652746.62547   1296927.83244  22884752.9694                   22884752.8364
  -1550787.23847  -1205507.59345  21999809.8524                   21999808.2194
    338172.37146    261444.01043  23871705.5164                   23871705.3594
   -260593.98047   -193371.68846  19982260.5084                   19982258.2034
   2269453.44546   1869206.22943  23389588.8364                   23389587.0394
  -1015932.34847   -776149.69146  21012834.7584                   21012831.2934
    484227.78946    380110.16042  24517149.3444                   24517148.6294
   1327478.06648   1031750.14146  20486674.4844                   20486670.9184
   1025428.04346    801841.41042  24675929.6564                   24675931.3364
  -1853380.71147  -1442437.29843  23920143.0784                   23920143.3164
 11  8 16 16 31  0.0000000  0 11G03G06G07G10G13G16G19G28G23G11G08
   1015620.40647    791237.42745  21119278.8674                   21119277.4804
   1657875.93447   1300924.64144  22885728.9144                   22885729.5044
  -1669736.48447  -1298195.30345  21977174.4144                   21977172.8714
    294453.57846    227377.34043  23863386.1094                   23863386.1914
   -323647.48447   -242504.30246  19970262.5784                   19970259.8054
   2296095.64146   1889966.28243  23394658.6804                   23394656.2704
  -1106456.45747   -846687.96246  20995608.7344                   20995605.2734
    347946.91046    273917.34442  24491216.5634                   24491216.2464
   1321423.18448   1027032.02246  20485522.3594                   20485519.0354
    887275.41846    694190.07442  24649640.5704                   24649641.1724
  -1984835.03946  -1544869.13043  23895128.1884                   23895127.3404
 11  8 16 16 31 30.0000000  0 11G03G06G07G10G13G16G19G28G23G11G08
    999988.05547    779056.34745  21116304.1174                   21116302.4844
   1663236.84047   1305101.91744  22886749.4144                   22886749.2304
  -1788828.70347  -1390994.43745  21954511.9924                   21954510.3754
    250980.47346    193502.17443  23855113.0634                   23855113.8094
   -386301.62948   -291325.73046  19958339.6484                   19958337.4924
   2322553.58246   1910582.78044  23399692.8284                   23399691.5594
  -1196580.50447   -916914.48746  20978458.4304                   20978455.2894
    211695.94946    167747.86443  24465289.0704                   24465288.8324
   1315702.52348   1022574.33246  20484433.6254                   20484430.0704
    748794.37946    586282.85242  24623288.5704                   24623288.9844
  -2116536.96946  -1647494.00343  23870066.1724                   23870065.3914
 11  8 16 16 32  0.0000000  0 11G03G06G07G10G13G16G19G28G23G11G08
    984746.43447    767179.71245  21113404.0164                   21113402.4654
   1668834.53147   1309463.70644  22887814.7974                   22887814.6564
  -1908055.84447  -1483898.67745  21931823.5554                   21931821.7734
    207758.56646    159822.69043  23846888.0864                   23846888.1764
   -448548.17647   -339829.55846  19946494.6484                   19946492.3284
   2348832.96546   1931060.16944  23404694.1414                   23404692.2034
  -1286295.56647   -986822.33046  20961386.3984                   20961383.0984
     75483.05146     61607.92343  24439368.3444                   24439368.5124
   1310321.94547   1018381.63546  20483410.0864                   20483406.6024
    609994.77046    478127.35542  24596875.8284                   24596876.7424
  -2248479.24646  -1750306.15543  23844958.5634                   23844957.7664
 11  8 16 16 32 30.0000000  0 11G03G06G07G10G13G16G19G28G23G11G08
    969900.43847    755611.40245  21110578.8594                   21110577.1094
   1674673.59447   1314013.53144  22888925.8524                   22888925.9224
  -2027410.35947  -1576902.20245  21909111.5314                   21909109.4844
    164792.76646    126342.79743  23838712.4064                   23838712.1024
   -510379.93447   -388010.16646  19934728.3984                   19934726.2424
   2374938.87146   1951402.35644  23409662.0704                   23409661.3914
  -1375593.40647  -1056405.06546  20944393.3204                   20944389.8244
    -60685.30146    -44497.13043  24413456.3674                   24413456.6484
   1305286.50447   1014457.87446  20482451.5784                   20482448.1764
    470885.41846    369730.56342  24570403.6564                   24570405.3954
  -2380654.85947  -1853300.10243  23819806.1884                   23819806.1914
 11  8 16 16 33  0.0000000  0 11G03G06G07G10G13G16G19G28G23G11G08
    955456.41847    744356.28645  21107829.8674                   21107828.5864
   1680760.03946   1318756.17144  22890084.2034                   22890084.4264
  -2146883.30547  -1669997.96945  21886376.2114                   21886374.4844
    122089.52746     93067.44543  23830585.3054                   23830585.9924
   -571788.03947   -435860.65346  19923042.8754                   19923040.5514
   2400877.69546   1971614.35744  23414598.3834                   23414597.0354
  -1464464.75447  -1125655.46146  20927481.8834                   20927478.5904
   -196800.11346   -150560.52243  24387553.4774                   24387555.0044
   1300603.19548   1010808.50446  20481560.5704                   20481557.0594
    331476.82446    261100.52342  24543875.6564                   24543876.4614
  -2513055.69546  -1956469.53243  23794611.7584                   23794610.9024
 11  8 16 16 33 30.0000000  0 11G03G06G07G10G13G16G19G28G23G11G08
    941415.60547    733415.33845  21105158.2034                   21105157.0314
   1687094.92646   1323692.40244  22891289.5864                   22891289.7194
  -2266470.32447  -1763182.67245  21863619.2344                   21863617.8134
     79650.27746     59997.85243  23822509.8134                   23822510.2854
   -632768.30147   -483377.75646  19911438.7734                   19911436.2894
   2426651.30946   1991697.58644  23419503.0474                   23419500.9304
  -1552905.00847  -1194569.95546  20910652.1644                   20910649.0124
   -332857.41046   -256579.17543  24361662.9454                   24361664.1134
   1296273.82047   1007434.93546  20480736.6724                   20480732.7894
    191774.64146    152241.77342  24517290.7424                   24517292.3054
  -2645678.31646  -2059811.78543  23769373.1414                   23769373.6374
 11  8 16 16 34  0.0000000  0 11G03G06G07G10G13G16G19G28G23G11G08
    927790.91047    722798.64245  21102565.3674                   21102564.3594
   1693690.42246   1328831.67944  22892544.7814                   22892545.0474
  -2386156.67247  -1856444.74345  21840843.7424                   21840842.0204
     37487.74646     27143.88243  23814487.0944                   23814487.5354
   -693305.88347   -530549.91746  19899918.7194                   19899916.5984
   2452272.35946   2011661.95343  23424377.9144                   23424377.8054
  -1640898.19547  -1263136.09046  20893907.7114                   20893904.3364
   -468842.79746   -362541.70343  24335786.5004                   24335787.2814
   1292311.12547   1004347.06346  20479982.5944                   20479979.2154
     51795.37946     43167.06342  24490653.5004                   24490655.5204
  -2778508.02346  -2163315.36943  23744096.4534                   23744096.5084
 11  8 16 16 34 30.0000000  0 11G03G06G07G10G13G16G19G28G23G11G08
    914577.01247    712502.08045  21100050.9694                   21100050.0274
   1700541.32047   1334169.95544  22893848.3524                   22893848.5164
  -2505944.50447  -1949785.90345  21818048.8134                   21818047.2774
     -4403.25446     -5498.54343  23806515.2734                   23806516.3014
   -753403.26647   -577379.06546  19888482.5394                   19888480.3874
   2477736.28946   2031503.93444  23429223.6884                   23429222.4844
  -1728446.46148  -1331355.51746  20877248.0704                   20877244.5984
   -604758.85246   -468450.26343  24309922.4384                   24309923.1644
   1288710.52348   1001541.35846  20479297.5704                   20479293.7814
    -88461.37946    -66123.89043  24463963.5004                   24463964.8754
  -2911547.93046  -2266982.79743  23718780.2734                   23718780.2774
 11  8 16 16 35  0.0000000  0 11G03G06G07G10G13G16G19G28G23G11G08
   2477195.49647   1930126.82845  21397407.8594                   21397406.4384
   3283067.79346   2567307.45844  23194993.9844                   23194993.4144
  -1050406.00047   -815600.03745  22095028.5004                   22095027.1294
   1529399.87946   1189672.72743  24098388.4144                   24098388.9104
    762364.55547    603738.69946  20176923.5864                   20176921.6644
   4078463.19546   3278823.51143  23733831.8984                   23733830.6454
   -240123.04747   -171622.99146  21160466.0784                   21160462.8594
    834821.82046    653301.02243  24583865.2974                   24583864.9104
   2860893.01648   2226618.58046  20778473.8524                   20778470.5704
   1346434.27046   1051976.68943  24737015.2344                   24737017.1134
  -1469370.85546  -1143208.44543  23993217.8674                   23993216.4774
 11  8 16 16 35 30.0000000  0 11G03G06G07G10G13G16G19G28G23G11G08
   2464810.14847   1920475.87645  21395050.4774                   21395049.4384
   3290434.94146   2573048.03144  23196395.5394                   23196395.8014
  -1170381.53947   -909087.45645  22072198.5004                   22072196.3404
   1488059.35546   1157459.24843  24090521.0864                   24090521.7894
    703161.18847    557606.18046  20165657.7424                   20165655.3794
   4103620.21546   3298426.28443  23738618.9144                   23738618.2464
   -326765.50448   -239136.59646  21143978.6414                   21143975.8914
    699057.66447    547510.79943  24558030.5164                   24558030.6374
   2858023.83648   2224382.82346  20777927.9924                   20777924.6094
   1205641.79346    942268.32543  24710223.3914                   24710223.8204
  -1602818.39846  -1247193.47743  23967823.3754                   23967822.5274
 11  8 16 16 36  0.0000000  0 11G03G06G07G10G13G16G19G28G23G11G08
   2452843.36747   1911151.06745  21392773.6174                   21392772.1684
   3298063.83246   2578992.55044  23197847.1024                   23197847.2544
  -1290442.85247  -1002641.70345  22049351.3054                   22049349.4344
   1446997.95346   1125463.23443  24082708.0944                   24082708.4224
    644412.71947    511828.13446  20154478.1254                   20154475.7974
   4128628.65246   3317913.34343  23743378.2814                   23743377.5084
   -412946.00048   -306290.23046  21127578.8204                   21127575.9414
    563377.02346    441785.67843  24532211.5314                   24532211.8244
   2855525.09048   2222435.69446  20777452.6644                   20777448.9494
   1064592.06346    832359.54043  24683382.5164                   24683383.4064
  -1736462.50046  -1351331.66443  23942391.0234                   23942390.7504
 11  8 16 16 36 30.0000000  0 11G03G06G07G10G13G16G19G28G23G11G08
   2441297.71547   1902154.43245  21390576.5634                   21390575.2234
   3305956.82846   2585142.87244  23199348.7814                   23199349.4694
  -1410584.53947  -1096258.58745  22026488.8984                   22026487.3874
   1406218.72346   1093687.16943  24074947.3674                   24074948.5634
    586124.00048    466408.32546  20143386.3754                   20143384.0124
   4153491.19946   3337286.65843  23748109.1724                   23748109.2234
   -498659.02047   -373079.61246  21111268.4224                   21111265.2464
    427784.65246    336129.31243  24506407.9534                   24506408.9454
   2853399.63748   2220779.46146  20777047.8364                   20777044.7154
    923291.93446    722255.59543  24656494.0944                   24656494.8834
  -1870298.53946  -1455619.47643  23916922.5474                   23916923.2114
 11  8 16 16 37  0.0000000  0 11G03G06G07G10G13G16G19G28G23G11G08
   2430174.34047   1893486.82245  21388459.7814                   21388458.5314
   3314114.84446   2591499.68444  23200901.8984                   23200902.0204
  -1530802.38347  -1189934.84545  22003612.5864                   22003610.8554
   1365722.66446   1062131.68543  24067241.4304                   24067242.4734
    528298.88747    421349.79246  20132382.2584                   20132380.4224
   4178209.78146   3356547.81144  23752813.4454                   23752813.3204
   -583899.96948   -439501.13646  21095047.6884                   21095044.4534
    292284.48446    230544.87343  24480624.0864                   24480623.8054
   2851649.37948   2219415.58646  20776714.8134                   20776711.6334
    781747.13746    611961.03942  24629559.0084                   24629560.1174
  -2004322.94146  -1560054.04943  23891419.4454                   23891419.5274
 11  8 16 16 37 30.0000000  0 11G03G06G07G10G13G16G19G28G23G11G08
   2419477.04347   1885151.24345  21386424.2734                   21386422.8204
   3322541.60947   2598065.96644  23202505.6564                   23202505.3444
  -1651089.48847  -1283665.03645  21980722.9304                   21980720.9694
   1325513.74246   1030799.99943  24059589.3674                   24059591.4184
    470943.73447    376657.43846  20121468.2894                   20121466.0744
   4202788.76646   3375700.16543  23757490.9064                   23757490.0864
   -668661.90648   -505549.39846  21078918.0164                   21078914.6844
    156882.31646    125036.78943  24454856.7974                   24454857.8164
   2850278.21948   2218347.08946  20776454.0084                   20776450.9184
    639965.74646    501482.13342  24602578.4144                   24602579.4414
  -2138529.39546  -1664630.45343  23865881.4454                   23865880.6914
 11  8 16 16 38  0.0000000  0 11G03G06G07G10G13G16G19G28G23G11G08
   2409199.60947   1877142.82745  21384468.2034                   21384467.7854
   3331230.19947   2604836.24744  23204158.5784                   23204158.7624
  -1771449.28147  -1377451.86345  21957818.6414                   21957816.9104
   1285585.66846    999687.16543  24051992.3754                   24051992.1134
    414054.39847    332328.06646  20110642.3914                   20110640.5664
   4227222.12546   3394739.08843  23762140.4774                   23762139.1484
   -752948.64548   -571227.37046  21062879.1644                   21062875.4224
     21574.31646     19602.08943  24429108.5164                   24429109.8244
   2849280.12548   2217569.32646  20776264.0864                   20776260.9774
    497946.00846    390817.55543  24575552.6884                   24575554.8164
  -2272922.44946  -1769352.32643  23840307.2664                   23840306.0594
 11  8 16 16 38 30.0000000  0 11G03G06G07G10G13G16G19G28G23G11G08
   2399349.22347   1869467.15345  21382594.0864                   21382593.3524
   3340187.71946   2611816.08244  23205863.2274                   23205863.5314
  -1891871.81247  -1471287.60945  21934903.2584                   21934901.3524
   1245945.57446    968798.69743  24044448.5394                   24044449.6454
    357640.66047    288369.28146  20099907.3594                   20099905.0904
   4251517.63746   3413670.56443  23766763.2034                   23766762.4964
   -836749.57447   -636526.80246  21046932.2114                   21046928.6804
   -113630.06746    -85751.86243  24403380.8444                   24403380.9574
   2848662.50048   2217087.99446  20776146.7274                   20776143.5004
    355699.43046    279976.06443  24548484.3594                   24548486.3714
  -2407492.82846  -1874212.34843  23814699.0004                   23814698.4804
 11  8 16 16 39  0.0000000  0 11G03G06G07G10G13G16G19G28G23G11G08
   2389921.52347   1862120.85245  21380799.7274                   21380799.2074
   3349409.48046   2619001.83644  23207617.5944                   23207618.3134
  -2012358.71547  -1565173.49245  21911975.2664                   21911972.9414
   1206589.30146    938131.42043  24036960.4774                   24036960.1564
    301700.23848    244779.32446  20089262.3834                   20089260.1684
   4275671.47346   3432491.65443  23771360.0634                   23771358.4734
   -920065.82447   -701448.55946  21031077.6644                   21031073.9384
   -248733.06246   -191026.96243  24377671.1174                   24377671.1844
   2848421.52748   2216900.17945  20776100.7974                   20776097.6024
    213226.09046    168957.97643  24521372.2664                   24521373.5084
  -2542242.54346  -1979212.08643  23789056.4694                   23789056.2974
 11  8 16 16 39 30.0000000  0 11G03G06G07G10G13G16G19G28G23G11G08
   2380914.65247   1855102.49245  21379086.0634                   21379085.5744
   3358893.44946   2626391.84844  23209422.9454                   23209422.9184
  -2132908.77047  -1659108.58345  21889035.4224                   21889033.5554
   1167515.49246    907684.26143  24029524.5234                   24029525.3834
    246233.97748    201558.85146  20078707.3364                   20078705.6454
   4299682.60546   3451201.58843  23775929.6174                   23775927.7624
  -1002896.38748   -765991.83946  21015315.8054                   21015311.8324
   -383733.70746   -296222.28243  24351981.4454                   24351981.1994
   2848555.83248   2217004.79745  20776126.3594                   20776123.1334
     70528.94046     57765.49543  24494218.2664                   24494219.2034
  -2677170.84446  -2084350.98643  23763380.4454                   23763380.3874
 11  8 16 16 40  0.0000000  0 11G03G06G07G10G13G16G19G28G23G11G08
   2372327.59447   1848411.22245  21377452.3444                   21377451.3524
   3368638.27346   2633985.15144  23211277.6724                   23211277.7114
  -2253519.97747  -1753091.33045  21866083.6254                   21866081.7384
   1128722.73446    877456.05543  24022142.7894                   24022143.7894
    191243.05547    158708.75246  20068242.8204                   20068240.9344
   4323550.17646   3469799.54943  23780470.9694                   23780469.9924
  -1085239.32047   -830155.17746  20999646.2424                   20999642.5664
   -518631.26246   -401337.16442  24326311.3134                   24326311.5704
   2849063.88348   2217400.63345  20776223.1254                   20776219.3364
    -72388.75846    -53598.85942  24467021.8914                   24467022.2544
  -2812276.97746  -2189628.42043  23737670.8524                   23737670.9414
 11  8 16 16 40 30.0000000  0 11G03G06G07G10G13G16G19G28G23G11G08
   2364161.17247   1842047.73945  21375898.2424                   21375897.4414
   3378644.81647   2641782.37044  23213181.6884                   23213182.0004
  -2374187.98447  -1847118.33545  21843121.3674                   21843119.6914
   1090212.08246    847447.65243  24014814.7894                   24014815.2584
    136730.92647    116231.75846  20057869.8524                   20057867.7274
   4347276.24246   3488287.34543  23784986.2584                   23784984.8164
  -1167090.63347   -893935.42946  20984070.2194                   20984066.8404
   -653422.08246   -506368.95742  24300661.0234                   24300661.1374
   2849947.48048   2218089.09646  20776391.3204                   20776387.8754
   -215521.49246   -165130.84843  24439784.2504                   24439785.2464
  -2947557.07846  -2295041.48343  23711927.4774                   23711926.4344
 11  8 16 16 41  0.0000000  0 11G03G06G07G10G13G16G19G28G23G11G08
   2356415.49247   1836012.11245  21374424.3444                   21374423.1174
   3388912.89547   2649783.42044  23215134.9614                   23215135.6804
  -2494909.90247  -1941187.34045  21820148.5704                   21820147.2304
   1051983.51646    817659.09443  24007539.3054                   24007540.1024
     82699.93848     74129.66546  20047588.1804                   20047585.6764
   4370861.24246   3506665.19743  23789475.1254                   23789473.0234
  -1248447.05147   -957330.03046  20968588.8834                   20968585.2114
   -788103.74646   -611315.69542  24275032.3754                   24275031.6724
   2851207.15648   2219070.61046  20776630.8594                   20776627.8524
   -358864.44546   -276826.48443  24412506.8524                   24412507.1994
  -3083008.97346  -2400588.35643  23686152.5234                   23686151.0634
 11  8 16 16 41 30.0000000  0 11G03G06G07G10G13G16G19G28G23G11G08
   2349087.70747   1830302.14345  21373029.1484                   21373029.0784
   3399439.49246   2657985.94644  23217138.8204                   23217138.7664
  -2615685.52347  -2035298.18245  21797165.8364                   21797163.8914
   1014034.38346    788088.29543  24000318.7504                   24000318.5084
     29149.36348     32401.91846  20037397.5084                   20037395.7234
   4394303.02046   3524931.44943  23793935.3674                   23793933.6524
  -1329308.71148  -1020339.12946  20953201.4614                   20953197.7934
   -922676.73446   -716177.73042  24249422.8984                   24249423.1454
   2852840.43448   2220343.24446  20776942.0784                   20776939.0554
   -502415.93746   -388684.76242  24385190.0704                   24385190.3674
  -3218633.09447  -2506269.52543  23660343.6174                   23660342.7234
 11  8 16 16 42  0.0000000  0 11G03G06G07G10G13G16G19G28G23G11G08
   2342179.76647   1824919.29145  21371714.7034                   21371714.2464
   3410226.11347   2666391.05844  23219191.4534                   23219191.4104
  -2736509.63747  -2129446.84445  21774173.8054                   21774171.7194
    976366.66846    758736.81243  23993150.3444                   23993151.0594
    -23916.39147     -8948.03146  20027299.4144                   20027297.4454
   4417604.35246   3543088.27043  23798369.6564                   23798367.9494
  -1409670.57048  -1082958.77146  20937909.3834                   20937905.1804
  -1057136.76646   -820951.76243  24223837.3914                   24223836.3714
   2854849.14848   2221908.43646  20777324.0944                   20777321.1724
   -646169.75046   -500700.68743  24357834.5314                   24357834.4614
  -3354425.42247  -2612081.66843  23634503.2974                   23634503.4774
 11  8 16 16 42 30.0000000  0 11G03G06G07G10G13G16G19G28G23G11G08
   2335688.14147   1819860.84545  21370480.0004                   21370478.9024
   3421269.09046   2674995.93944  23221292.9224                   23221292.6994
  -2857382.71947  -2223633.64645  21751172.0004                   21751170.9534
    938977.00446    729601.95343  23986035.7424                   23986036.1334
    -76497.98848    -49920.72246  20017294.0784                   20017291.9184
   4440762.30146   3561133.33443  23802775.4924                   23802774.8014
  -1489532.87548  -1145189.12946  20922711.4064                   20922708.2034
  -1191485.05946   -925638.67043  24198271.3054                   24198271.8674
   2857230.23048   2223763.77646  20777777.3524                   20777774.3794
   -790124.05146   -612872.76242  24330440.4064                   24330441.8834
  -3490386.48047  -2718025.33143  23608629.9924                   23608630.8164
 11  8 16 16 43  0.0000000  0 11G03G06G07G10G13G16G19G28G23G11G08
   2329615.16847   1815128.64044  21369324.2584                   21369323.0354
   3432570.67847   2683802.36044  23223443.2734                   23223443.6644
  -2978299.18047  -2317854.25345  21728162.6334                   21728161.0784
    901867.99346    700685.81643  23978973.7194                   23978974.6994
   -128591.45747    -90513.06246  20007380.8134                   20007378.7734
   4463780.16046   3579069.23943  23807155.6884                   23807155.3794
  -1568890.53547  -1207026.27246  20907610.0394                   20907606.6564
  -1325716.71946  -1030234.77843  24172727.9224                   24172728.2624
   2859986.63348   2225911.55946  20778301.7734                   20778298.4884
   -934272.27746   -725196.01642  24303010.4454                   24303010.5274
  -3626511.53546  -2824096.76943  23582726.6484                   23582726.6764
 11  8 16 16 43 30.0000000  0 11G03G06G07G10G13G16G19G28G23G11G08
   2323958.64547   1810720.91144  21368247.5864                   21368246.7624
   3444128.69946   2692808.50644  23225643.1414                   23225643.8404
  -3099258.07047  -2412107.93045  21705145.3054                   21705143.2384
    865037.55946    671986.64843  23971965.2734                   23971965.8444
   -180196.50448   -130724.81546  19997560.8134                   19997558.3134
   4486656.78946   3596895.12343  23811509.4224                   23811508.1884
  -1647742.66447  -1268469.50246  20892605.2034                   20892601.9454
  -1459831.39546  -1134739.66843  24147206.7584                   24147207.0274
   2863116.35548   2228350.25646  20778897.5394                   20778894.1644
  -1078611.55146   -837668.03243  24275543.1804                   24275543.4144
  -3762800.29746  -2930295.76043  23556791.6334                   23556791.4844
 11  8 16 16 44  0.0000000  0 11G03G06G07G10G13G16G19G28G23G11G08
   2318719.02747   1806638.06745  21367250.5314                   21367250.1524
   3455943.34046   2702014.63744  23227891.7424                   23227892.4884
  -3220255.67247  -2506391.76845  21682120.1644                   21682118.1914
    828485.71546    643504.62743  23965009.5234                   23965010.5124
   -231310.32048   -170553.77546  19987834.0234                   19987832.1454
   4509393.21546   3614611.76343  23815836.3054                   23815834.9304
  -1726085.91447  -1329516.19046  20877697.5314                   20877693.5864
  -1593826.57846  -1239151.49843  24121708.4144                   24121708.2504
   2866619.71148   2231080.09046  20779564.2734                   20779561.0514
  -1223137.06246   -950285.26343  24248041.3594                   24248040.7774
  -3899250.21146  -3036620.36443  23530825.9774                   23530825.2774
 11  8 16 16 44 30.0000000  0 11G03G06G07G10G13G16G19G28G23G11G08
   2313892.54747   1802877.14445  21366332.3444                   21366331.8834
   3468010.31646   2711417.43844  23230188.0634                   23230187.8324
  -3341292.79347  -2600706.41945  21659087.5084                   21659085.6884
    792208.98046    615236.93743  23958107.1484                   23958106.8444
   -281934.49648   -210001.20546  19978200.4844                   19978198.7464
   4531986.33646   3632216.71643  23820136.4844                   23820134.9844
  -1803921.37547  -1390167.19546  20862885.2894                   20862881.7384
  -1727703.75446  -1343471.36043  24096232.2734                   24096232.9064
   2870493.36748   2234098.46046  20780302.0314                   20780298.2384
  -1367847.60546  -1063046.67943  24220503.6254                   24220502.7384
  -4035862.06646  -3143071.14743  23504830.0314                   23504829.3554
 11  8 16 16 45  0.0000000  0 11G03G06G07G10G13G16G19G28G23G11G08
   2309480.43847   1799439.10445  21365493.1414                   21365492.1024
   3480331.35246   2721018.21144  23232532.1254                   23232532.6024
  -3462364.32847  -2695047.85945  21636048.3204                   21636046.2274
    756209.01646    587184.96743  23951256.5004                   23951256.7384
   -332064.73048   -249063.75946  19968660.7814                   19968659.1564
   4554439.05146   3649712.22543  23824409.0864                   23824407.9064
  -1881244.30947  -1450418.82746  20848171.4224                   20848167.7234
  -1861458.87146  -1447696.08043  24070779.7584                   24070779.2194
   2874739.37948   2237406.99646  20781109.5164                   20781106.5514
  -1512736.94146  -1175947.35542  24192931.8444                   24192931.6564
  -4172631.90246  -3249645.03643  23478803.5314                   23478803.3244
 11  8 16 16 45 30.0000000  0 11G03G06G07G10G13G16G19G28G23G11G08
   2305476.21947   1796318.89845  21364730.5634                   21364730.1174
   3492899.56346   2730811.57143  23234923.7034                   23234924.1524
  -3583473.41847  -2789418.58045  21613001.6724                   21613000.2774
    720479.87946    559344.02043  23944456.9454                   23944458.0554
   -381705.94148   -287745.24146  19959214.7664                   19959212.6724
   4576745.50846   3667093.73443  23828653.1644                   23828652.7274
  -1958058.40247  -1510273.96846  20833554.0314                   20833550.8244
  -1995095.94946  -1551828.88843  24045348.5394                   24045348.8634
   2879351.37948   2241000.72345  20781987.3134                   20781983.9734
  -1657806.78146  -1288988.66443  24165326.0554                   24165326.5204
  -4309563.51646  -3356344.92543  23452746.3834                   23452745.2734
 11  8 16 16 46  0.0000000  0 11G03G06G07G10G13G16G19G28G23G11G08
   2301881.65247   1793517.89945  21364046.8594                   21364046.0124
   3505716.45746   2740798.73843  23237363.0784                   23237363.2034
  -3704615.41447  -2883814.95045  21589949.4534                   21589947.3754
    685022.61746    531714.89343  23937709.6334                   23937710.5434
   -430854.21148   -326042.62046  19949861.9844                   19949860.1374
   4598908.14545   3684363.37143  23832868.6334                   23832870.0004
  -2034359.31647  -1569729.23546  20819034.3444                   20819031.2584
  -2128610.82046  -1655866.45243  24019941.5004                   24019941.7544
   2884331.18048   2244881.02946  20782935.2344                   20782931.5664
  -1803050.64546  -1402165.65043  24137686.7504                   24137687.6724
  -4446653.16446  -3463168.02443  23426659.1724                   23426658.4924
 11  8 16 16 46 30.0000000  0 11G03G06G07G10G13G16G19G28G23G11G08
   2298694.79747   1791034.59145  21363440.6954                   21363439.7584
   3518780.23046   2750978.20843  23239848.8444                   23239848.8954
  -3825788.53947  -2978235.55445  21566891.0314                   21566889.6134
    649835.67246    504296.44643  23931013.8134                   23931015.2934
   -479508.85548   -363955.34846  19940603.4614                   19940601.4454
   4620926.14146   3701520.08943  23837061.0004                   23837060.5904
  -2110146.27347  -1628784.01346  20804612.8754                   20804609.5634
  -2262003.00446  -1759808.35143  23994559.1414                   23994558.5164
   2889677.78548   2249047.16645  20783952.2114                   20783948.9104
  -1948465.37146  -1515475.62243  24110015.5234                   24110015.5904
  -4583899.38746  -3570113.10043  23400541.3444                   23400540.9924
 11  8 16 16 47  0.0000000  0 11G03G06G07G10G13G16G19G28G23G11G08
   3871334.25047   3016467.88844  21662703.6954                   21662703.1524
   5107508.32046   3988948.11143  23542174.0004                   23542174.1764
  -2371567.27347  -1845076.12945  21843620.3524                   21843618.4804
   2190338.35246   1704688.07243  24224162.2424                   24224162.8794
   1047751.97747    826118.00146  20231231.3204                   20231229.5234
   6218217.87146   4946162.93842  24141014.3914                   24141014.4024
   -609995.18047   -459835.10446  21090082.0944                   21090078.7154
   -819847.27746   -636050.57443  24268991.5314                   24268991.4844
   4470808.42248   3481096.94546  21084831.4924                   21084828.4844
   -518623.14146   -401312.85143  24382105.3364                   24382104.8594
  -3145876.82446  -2449576.07643  23674188.4844                   23674188.6914
 11  8 16 16 47 30.0000000  0 11G03G06G07G10G13G16G19G28G23G11G08
   3868955.93847   3014614.61644  21662251.3364                   21662250.5204
   5121057.91446   3999506.20943  23544752.2814                   23544752.6644
  -2492799.96947  -1939543.16845  21820550.3054                   21820548.7034
   2155684.99246   1677685.35343  24217567.3754                   24217568.9884
   1000083.84848    788973.98146  20222160.5554                   20222158.7034
   6239942.29346   4963090.93243  24145149.0314                   24145149.7194
   -684751.75847   -518086.98346  21075856.2424                   21075853.0824
   -952994.19546   -739801.38843  24243654.1724                   24243654.3874
   4476880.84448   3485828.65845  21085986.8984                   21085983.8284
   -664372.38746   -514883.57442  24354370.4304                   24354369.0784
  -3283435.85246  -2556764.85943  23648011.5784                   23648012.0004
 11  8 16 16 48  0.0000000  0 11G03G06G07G10G13G16G19G28G23G11G08
   3866984.30947   3013078.25544  21661876.2424                   21661875.5514
   5134853.07446   4010255.63343  23547377.8524                   23547377.7384
  -2614054.68447  -2034027.33945  21797476.2664                   21797474.6954
   2121301.56646   1650892.95943  24211024.6884                   24211025.8284
    952915.20347    752219.16746  20213184.4614                   20213182.7584
   6261524.72746   4979908.31943  24149256.1954                   24149255.5864
   -758986.37147   -575932.14246  21061730.2664                   21061726.6294
  -1086012.15646   -843451.70743  24218342.4384                   24218342.3674
   4483319.84448   3490846.01346  21087212.3984                   21087209.3324
   -810278.88746   -628576.77243  24326604.2274                   24326604.3594
  -3421144.46546  -2664070.25044  23621806.9454                   23621807.0434
 11  8 16 16 48 30.0000000  0 11G03G06G07G10G13G16G19G28G23G11G08
   3865418.56347   3011858.15044  21661578.5164                   21661576.9734
   5148892.85946   4021195.62343  23550048.8204                   23550048.9454
  -2735329.20347  -2128526.97245  21774398.6254                   21774397.0594
   2087186.84046   1624310.01043  24204532.8054                   24204534.2664
    906246.93448    715854.26646  20204303.9224                   20204302.1054
   6282964.59046   4996614.64543  24153336.2344                   24153335.3874
   -832697.44548   -633369.34746  21047703.2664                   21047700.2034
  -1218899.48046   -947000.20843  24193054.3204                   24193054.0704
   4490124.39548   3496148.19145  21088507.2194                   21088504.2274
   -956338.84446   -742389.59943  24298810.5314                   24298810.3524
  -3559001.30946  -2771491.10743  23595573.7814                   23595572.7974
 11  8 16 16 49  0.0000000  0 11G03G06G07G10G13G16G19G28G23G11G08
   3864253.85547   3010950.55644  21661357.0704                   21661355.6484
   5163172.05946   4032322.25643  23552767.3054                   23552767.2424
  -2856624.15647  -2223042.50845  21751316.7584                   21751314.9804
   2053336.43046   1597932.96143  24198091.8594                   24198093.5274
    860076.59448    679877.34846  20195517.8134                   20195516.2854
   6304258.34046   5013207.10942  24157389.6884                   24157386.4414
   -905886.40647   -690399.71546  21033775.6884                   21033772.8164
  -1351658.92746  -1050449.20943  24167790.6564                   24167790.2854
   4497289.95748   3501731.69945  21089870.8834                   21089867.9534
  -1102551.63746   -856321.57443  24270986.7584                   24270987.4884
  -3697007.94146  -2879028.73143  23569311.5474                   23569310.9614
 11  8 16 16 49 30.0000000  0 11G03G06G07G10G13G16G19G28G23G11G08
   3863486.13347   3010352.27944  21661210.0004                   21661210.1024
   5177687.21546   4043632.71843  23555529.3834                   23555528.9534
  -2977940.02747  -2317574.35045  21728231.2424                   21728229.6054
   2019746.62146   1571759.02543  24191699.7424                   24191701.9304
    814402.40647    644287.03346  20186826.3674                   20186824.7624
   6325403.75046   5029683.94643  24161412.3594                   24161410.1414
   -978554.56247   -747024.26146  21019947.8754                   21019944.5984
  -1484291.53546  -1153799.16343  24142551.9924                   24142551.2234
   4504813.23848   3507593.93845  21091302.4224                   21091299.4104
  -1248916.06246   -970371.64643  24243134.5164                   24243134.6454
  -3835165.22746  -2986683.79343  23543021.1884                   23543020.1884
 11  8 16 16 50  0.0000000  0 11G03G06G07G10G13G16G19G28G23G11G08
   3863117.30147   3010064.84144  21661140.5314                   21661139.8594
   5192439.59846   4055127.99543  23558337.0704                   23558336.1024
  -3099271.87547  -2412118.63845  21705142.5944                   21705140.6994
   1986418.88746   1545789.30543  24185357.9304                   24185359.0474
    769228.33247    609086.43446  20178230.3444                   20178228.3284
   6346403.07246   5046047.11742  24165408.0084                   24165406.2154
  -1050697.49247   -803239.53946  21006219.0554                   21006215.8984
  -1616793.07046  -1257047.09643  24117337.4304                   24117337.2424
   4512695.91448   3513736.23445  21092802.8984                   21092799.6214
  -1395425.51646  -1084534.78343  24215254.4144                   24215255.0944
  -3973469.37546  -3094453.17144  23516702.9384                   23516702.5904
 11  8 16 16 50 30.0000000  0 11G03G06G07G10G13G16G19G28G23G11G08
   3863141.52347   3010083.66344  21661145.1254                   21661144.1644
   5207423.15246   4066803.47343  23561188.0394                   23561187.2154
  -3220622.24647  -2506677.36045  21682050.3134                   21682048.8324
   1953347.44146   1520019.26943  24179064.8984                   24179066.2774
    724550.27347    574272.34146  20169728.6094                   20169726.5044
   6367251.59446   5062292.64043  24169376.1954                   24169374.1254
  -1122318.43747   -859048.06646  20992590.3444                   20992587.1254
  -1749167.32846  -1360195.90843  24092147.2344                   24092146.8094
   4520932.39548   3520154.21745  21094370.1094                   21094367.1644
  -1542081.22346  -1198811.79943  24187347.3524                   24187347.2774
  -4111922.87546  -3202339.00943  23490355.7974                   23490355.9454
 11  8 16 16 51  0.0000000  0 11G03G06G07G10G13G16G19G28G23G11G08
   3863561.83247   3010411.14044  21661225.0944                   21661224.3014
   5222641.53146   4078661.87243  23564083.5634                   23564083.1994
  -3341983.95747  -2601244.93046  21658955.7584                   21658954.1994
   1920535.86346   1494451.73643  24172820.5554                   24172822.4884
    680374.03547    539849.28046  20161322.0554                   20161319.9064
   6387954.15246   5078424.34442  24173315.8524                   24173313.3984
  -1193411.00447   -914444.88046  20979061.9384                   20979058.7774
  -1881408.37546  -1463240.82643  24066983.3284                   24066982.5904
   4529526.10548   3526850.55545  21096005.4224                   21096002.3984
  -1688874.46946  -1313196.06443  24159413.1484                   24159413.8284
  -4250519.30547  -3310336.24144  23463982.1174                   23463981.8284
 11  8 16 16 51 30.0000000  0 11G03G06G07G10G13G16G19G28G23G11G08
   3864375.70747   3011045.30144  21661379.9144                   21661378.8094
   5238091.87946   4090701.02543  23567024.0944                   23567023.5664
  -3463356.07447  -2695820.58345  21635859.4144                   21635857.8714
   1887981.62546   1469084.67143  24166626.1484                   24166627.9964
    636699.35548    505817.03346  20153010.7894                   20153009.1954
   6408509.42246   5094441.35943  24177227.2584                   24177225.1954
  -1263975.15647   -969429.94946  20965633.7974                   20965630.7034
  -2013516.35546  -1566182.10143  24041843.5474                   24041843.6174
   4538475.15248   3533823.78345  21097708.1954                   21097705.1804
  -1835802.68046  -1427685.45943  24131453.5084                   24131453.2584
  -4389258.96947  -3418445.03144  23437581.0314                   23437580.8754
 11  8 16 16 52  0.0000000  0 11G03G06G07G10G13G16G19G28G23G11G08
   3865581.78547   3011985.09144  21661609.4614                   21661608.4574
   5253772.99246   4102920.00443  23570007.9614                   23570007.5904
  -3584736.08647  -2790402.40245  21612761.5234                   21612760.0554
   1855683.86346   1443917.59143  24160480.0864                   24160481.5704
    593526.67647    472175.96446  20144795.4844                   20144793.6564
   6428917.27046   5110343.47943  24181110.4304                   24181108.7974
  -1334009.61747  -1024002.25646  20952306.5004                   20952303.6374
  -2145489.90646  -1669018.61143  24016729.3054                   24016729.9344
   4547778.04748   3541072.73845  21099478.9224                   21099475.6374
  -1982862.07846  -1542277.14343  24103469.1564                   24103468.9184
  -4528140.10247  -3526664.07744  23411152.5474                   23411151.8164
 11  8 16 16 52 30.0000000  0 11G03G06G07G10G13G16G19G28G23G11G08
   3867174.40647   3013226.03744  21661912.6884                   21661911.6684
   5269679.05946   4115314.20543  23573035.0474                   23573035.0124
  -3706126.30147  -2884992.17645  21589661.7034                   21589660.0004
   1823636.54346   1418945.54643  24154381.6024                   24154382.6884
    550852.55947    438923.36546  20136674.6724                   20136672.8244
   6449173.15246   5126127.24943  24184964.8204                   24184964.7194
  -1403517.23448  -1078164.05246  20939079.6724                   20939076.9454
  -2277332.55546  -1771753.01843  23991640.6884                   23991641.1484
   4557429.79748   3548593.51645  21101315.2974                   21101312.6914
  -2130053.33646  -1656971.50943  24075458.9844                   24075459.4614
  -4667165.09046  -3634995.23543  23384697.0314                   23384696.8094
 11  8 16 16 53  0.0000000  0 11G03G06G07G10G13G16G19G28G23G11G08
   3869152.53147   3014767.37844  21662288.5474                   21662288.5514
   5285808.84846   4127882.82643  23576103.8524                   23576104.1884
  -3827524.02047  -2979587.79245  21566560.1564                   21566559.0594
   1791838.55546   1394167.79343  24148331.0394                   24148332.0514
    508677.51248    406059.66746  20128649.2194                   20128647.2934
   6469277.24245   5141792.62542  24188790.2734                   24188791.0004
  -1472496.73847  -1131914.31046  20925953.1484                   20925950.0434
  -2409042.62546  -1874384.21843  23966577.0314                   23966576.7814
   4567429.41848   3556385.38545  21103218.1254                   21103215.2074
  -2277372.39846  -1771765.52343  24047424.7584                   24047424.6094
  -4806332.52046  -3743437.36544  23358214.9304                   23358214.2934
 11  8 16 16 53 30.0000000  0 11G03G06G07G10G13G16G19G28G23G11G08
   3871515.48447   3016608.57944  21662738.8754                   21662738.0984
   5302161.98846   4140625.52443  23579215.8834                   23579216.0904
  -3948926.24247  -3074186.91945  21543458.0234                   21543457.0004
   1760289.79346   1369584.26543  24142327.8834                   24142328.9734
    467003.54347    373586.40946  20120718.9454                   20120716.9884
   6489230.49246   5157340.49243  24192588.0704                   24192587.8594
  -1540945.93047  -1185251.34946  20912928.0084                   20912924.6914
  -2540618.39146  -1976910.86543  23941539.6724                   23941538.6524
   4577776.51648   3564447.99445  21105187.6024                   21105184.8204
  -2424814.73846  -1886655.59143  24019367.1804                   24019368.0004
  -4945639.86747  -3851988.48544  23331704.5554                   23331704.7704
 11  8 16 16 54  0.0000000  0 11G03G06G07G10G13G16G19G28G23G11G08
   3874256.49247   3018744.40744  21663260.7034                   21663259.6134
   5318731.78546   4153537.00443  23582368.2424                   23582369.3794
  -4070335.92647  -3168791.83445  21520355.1094                   21520353.2114
   1728983.73846   1345189.82843  24136369.7734                   24136371.1024
    425825.85248    341499.86646  20112882.9774                   20112881.3164
   6509027.62546   5172766.69143  24196355.2814                   24196355.5514
  -1608868.55947  -1238178.07846  20900002.6804                   20900000.0354
  -2672064.20346  -2079336.17243  23916525.4224                   23916526.0434
   4588464.31348   3572776.09945  21107221.4454                   21107218.4104
  -2572381.68446  -2001642.72143  23991286.2114                   23991286.6094
  -5085090.64547  -3960651.44144  23305168.3284                   23305168.0984
 11  8 16 16 54 30.0000000  0 11G03G06G07G10G13G16G19G28G23G11G08
   3877379.47747   3021177.85544  21663855.0554                   21663853.9144
   5335521.64546   4166619.92243  23585564.1564                   23585564.1174
  -4191745.72347  -3263396.85945  21497251.3444                   21497249.8164
   1697923.98846   1320987.45343  24130459.3834                   24130460.8364
    385150.18447    309804.50146  20105142.6094                   20105141.1644
   6528673.48846   5188075.11143  24200093.4454                   24200094.1054
  -1676258.70747  -1290689.89846  20887178.8594                   20887175.7584
  -2803373.73046  -2181655.25043  23891538.4384                   23891539.3444
   4599497.02348   3581372.95845  21109320.8134                   21109317.8134
  -2720064.45346  -2116720.12443  23963182.9144                   23963184.2974
  -5224678.04346  -4069420.82144  23278605.4224                   23278604.7234
 11  8 16 16 55  0.0000000  0 11G03G06G07G10G13G16G19G28G23G11G08
   3880875.71547   3023902.15744  21664519.9924                   21664519.2154
   5352523.45746   4179868.00843  23588799.0944                   23588799.6334
  -4313160.10247  -3358005.44546  21474147.2034                   21474145.3054
   1667102.57846   1296970.64543  24124594.1564                   24124594.8714
    344970.18047    278495.38046  20097496.8204                   20097494.8524
   6548161.04746   5203260.06642  24203802.5234                   24203802.5784
  -1743121.62547  -1342790.88346  20874455.7814                   20874452.3594
  -2934552.77546  -2283872.70143  23866576.0554                   23866576.7814
   4610866.83248   3590232.48545  21111484.6644                   21111481.2704
  -2867865.96146  -2231889.98943  23935057.3674                   23935057.6914
  -5364407.60546  -4178300.95544  23252015.8984                   23252015.2734
 11  8 16 16 55 30.0000000  0 11G03G06G07G10G13G16G19G28G23G11G08
   3884742.01247   3026914.79844  21665255.7504                   21665255.4384
   5369734.12946   4193278.79343  23592074.6024                   23592074.9734
  -4434578.54347  -3452617.20645  21451041.9844                   21451040.3134
   1636516.42246   1273137.27843  24118774.0784                   24118775.1024
    305284.62547    247571.53246  20089945.2274                   20089943.0824
   6567488.80946   5218320.51743  24207480.2814                   24207480.4884
  -1809458.39548  -1394481.87546  20861831.6254                   20861828.6884
  -3065602.27346  -2385989.09243  23841638.2584                   23841638.0594
   4622570.64848   3599352.27945  21113711.9924                   21113708.4654
  -3015784.25446  -2347150.96043  23906909.5004                   23906909.6174
  -5504279.43047  -4287291.95044  23225399.8204                   23225399.2304
 11  8 16 16 56  0.0000000  0 11G03G06G07G10G13G16G19G28G23G11G08
   3888973.43847   3030211.97544  21666061.1334                   21666060.7304
   5387148.50046   4206848.37043  23595389.5634                   23595389.0274
  -4556002.41447  -3547233.20545  21427935.6414                   21427933.9414
   1606160.40246   1249483.11843  24112998.5394                   24112999.4144
    266090.41047    217030.57346  20082486.6334                   20082484.5944
   6586652.77746   5233253.36443  24211126.6414                   24211127.3524
  -1875271.47747  -1445764.80446  20849308.1564                   20849304.8164
  -3196524.92646  -2488006.68343  23816723.7344                   23816724.5514
   4634603.51248   3608728.47245  21116001.3134                   21115998.5354
  -3163819.28946  -2462502.80643  23878739.9144                   23878739.1484
  -5644295.55147  -4396395.42244  23198755.2504                   23198754.2464
 11  8 16 16 56 30.0000000  0 11G03G06G07G10G13G16G19G28G23G11G08
   3893568.75047   3033792.69644  21666935.9694                   21666935.4844
   5404765.29346   4220575.69243  23598741.0784                   23598741.3284
  -4677429.22747  -3641851.48845  21404828.9844                   21404827.0084
   1576033.30546   1226007.32243  24107264.5164                   24107266.7384
    227388.39547    186873.11446  20075122.0084                   20075120.0514
   6605653.24246   5248058.89543  24214742.7664                   24214743.3324
  -1940559.27347  -1496638.40346  20836884.1724                   20836881.0314
  -3327319.25046  -2589924.35143  23791835.0554                   23791835.4654
   4646964.22348   3618360.13045  21118353.6884                   21118350.4534
  -3311967.02046  -2577942.46543  23850547.6334                   23850547.8714
  -5784453.88747  -4505609.72344  23172083.8054                   23172083.3364
 11  8 16 16 57  0.0000000  0 11G03G06G07G10G13G16G19G28G23G11G08
   3898529.27347   3037657.98444  21667879.7504                   21667879.3284
   5422586.01246   4234461.86043  23602132.0234                   23602132.7504
  -4798853.48047  -3736467.77445  21381722.4064                   21381720.7234
   1546136.46946   1202711.05843  24101576.1884                   24101577.2894
    189181.90648    157101.80646  20067851.3204                   20067849.5554
   6624493.36346   5262739.31343  24218327.6334                   24218328.7734
  -2005317.82047  -1547099.62546  20824560.6564                   20824557.8204
  -3457981.23846  -2691738.89043  23766971.7274                   23766971.3324
   4659654.93848   3628248.92945  21120768.8204                   21120765.5864
  -3460220.51646  -2693464.68143  23822336.4224                   23822336.5044
  -5924749.91847  -4614931.25944  23145385.9224                   23145386.1254
 11  8 16 16 57 30.0000000  0 11G03G06G07G10G13G16G19G28G23G11G08
   3903851.78147   3041805.36544  21668892.6334                   21668892.2544
   5440607.73046   4248504.67643  23605561.8674                   23605562.1484
  -4920274.52347  -3831081.55745  21358617.2344                   21358615.3244
   1516467.16446   1179591.98643  24095931.0084                   24095931.3204
    151469.69547    127715.63346  20060675.5234                   20060673.1804
   6643171.64146   5277293.65543  24221882.4694                   24221881.8324
  -2069547.90247  -1597149.05246  20812338.3204                   20812335.3054
  -3588511.76246  -2793450.98443  23742131.5474                   23742131.9804
   4672672.25448   3638392.24045  21123246.0234                   21123242.6914
  -3608577.70746  -2809067.62343  23794104.7344                   23794104.7934
  -6065183.83247  -4724360.24544  23118662.8444                   23118662.1914
 11  8 16 16 58  0.0000000  0 11G03G06G07G10G13G16G19G28G23G11G08
   3909534.36347   3046233.29744  21669974.6484                   21669973.3364
   5458828.43846   4262702.56243  23609029.0784                   23609028.5554
  -5041690.37947  -3925691.30045  21335512.2664                   21335510.3014
   1487023.46546   1156648.79043  24090327.4924                   24090328.8284
    114251.61748     98714.49946  20053592.7504                   20053590.7154
   6661687.44546   5291721.56543  24225406.9064                   24225404.9414
  -2133249.05547  -1646786.31846  20800216.1954                   20800213.2034
  -3718910.23046  -2895060.16043  23717317.4304                   23717317.6844
   4686014.45348   3648788.68345  21125784.8364                   21125781.9384
  -3757034.87546  -2924748.42943  23765853.8524                   23765854.0824
  -6205754.22747  -4833895.60643  23091913.1954                   23091912.4734
 11  8 16 16 58 30.0000000  0 11G03G06G07G10G13G16G19G28G23G11G08
   5490993.61747   4278539.15744  21970915.3594                   21970914.8914
   7052664.29746   5504652.55243  23912325.7114                   23912326.1994
  -3587676.74647  -2792693.65545  21612201.7894                   21612199.9384
   3033223.27046   2361479.69543  24384559.4924                   24384560.6374
   1652947.70348   1297698.43246  20346396.7034                   20346395.2114
   8255458.33246   6533620.89043  24528691.5944                   24528690.3594
   -620999.89547   -468410.35746  21087988.0704                   21087984.9454
  -2273752.97746  -1768963.56443  23992321.3914                   23992321.6024
   6275098.48848   4887035.93945  21428177.6804                   21428174.6684
  -2330165.43446  -1812902.09343  24037377.8754                   24037377.6954
  -4771036.20747  -3715933.50244  23364930.4534                   23364929.7274
 11  8 16 16 59  0.0000000  0 11G03G06G07G10G13G16G19G28G23G11G08
   5497385.99247   4283520.20244  21972132.3984                   21972131.0704
   7071273.03546   5519152.76643  23915867.3364                   23915867.3484
  -3709081.32447  -2887294.63045  21589099.3284                   21589097.4144
   3004221.22746   2338880.63943  24379040.4304                   24379041.7774
   1616713.77348   1269464.17646  20339501.9694                   20339499.5984
   8273643.41046   6547790.98543  24532151.4144                   24532150.7034
   -683645.85547   -517225.40946  21076067.1094                   21076063.5394
  -2403889.94946  -1870369.00043  23967557.9304                   23967557.8134
   6289081.45748   4897931.68845  21430838.7194                   21430835.6524
  -2478817.71546  -1928734.93343  24009090.7194                   24009090.1484
  -4911880.09847  -3825681.99344  23338128.8134                   23338128.1134
 11  8 16 16 59 30.0000000  0 11G03G06G07G10G13G16G19G28G23G11G08
   5504131.36747   4288776.25644  21973416.0164                   21973414.7584
   7090074.19146   5533802.92943  23919444.4454                   23919445.4654
  -3830475.87947  -2981887.78745  21565998.9694                   21565996.8954
   2975438.23446   2316452.20143  24373562.7424                   24373564.8484
   1580972.73848   1241613.99046  20332700.5394                   20332698.3834
   8291663.74246   6561832.72243  24535580.9304                   24535579.3404
   -745762.23448   -565627.78246  21064246.1334                   21064243.4654
  -2533894.23446  -1971671.01643  23942818.6254                   23942818.9414
   6303383.40648   4909075.98945  21433560.0784                   21433556.7704
  -2627560.84446  -2044638.61043  23980786.0394                   23980786.1724
  -5052857.68447  -3935534.64544  23311301.9924                   23311300.8364
 11  8 16 17  0  0.0000000  0 11G03G06G07G10G13G16G19G28G23G11G08
   5511224.21947   4294303.13344  21974765.6954                   21974765.0554
   7109062.22346   5548598.71444  23923058.3834                   23923059.7154
  -3951862.25848  -3076474.58245  21542900.0474                   21542897.7384
   2946868.87946   2294190.34043  24368126.9614                   24368128.2504
   1545721.40648   1214145.39246  20325992.2734                   20325990.4574
   8309515.42246   6575743.02143  24538978.0004                   24538976.5474
   -807352.12947   -613619.91046  21052526.3284                   21052523.2274
  -2663769.10246  -2072872.17243  23918104.2894                   23918104.9884
   6317998.66048   4920464.43045  21436341.6024                   21436338.3444
  -2776395.05946  -2160613.24443  23952463.3364                   23952464.2854
  -5193971.39147  -4045493.34144  23284449.0004                   23284447.9924
 11  8 16 17  0 30.0000000  0 11G03G06G07G10G13G16G19G28G23G11G08
   5518661.21947   4300098.12645  21976181.1954                   21976180.2154
   7128234.00846   5563537.74444  23926706.9064                   23926707.3244
  -4073239.55147  -3171054.29745  21519802.3754                   21519800.6414
   2918510.34846   2272092.68543  24362730.5004                   24362731.5354
   1510957.73048   1187056.78546  20319377.1724                   20319375.1604
   8327196.86746   6589520.61443  24542343.1804                   24542342.3674
   -868416.29347   -661202.40346  21040906.1484                   21040903.3284
  -2793515.15246  -2173972.96443  23893414.2814                   23893414.9734
   6332924.44147   4932094.84245  21439181.5314                   21439178.6884
  -2925318.24246  -2276657.24343  23924124.8284                   23924124.1214
  -5335221.27347  -4155558.13744  23257569.6804                   23257569.7074
 11  8 16 17  1  0.0000000  0 11G03G06G07G10G13G16G19G28G23G11G08
   5526446.08647   4306164.20344  21977662.4144                   21977662.0314
   7147593.32046   5578622.83044  23930390.7274                   23930391.2384
  -4194600.44547  -3265621.24146  21496708.1484                   21496706.1294
   2890365.55946   2250161.59843  24357374.7584                   24357376.5044
   1476687.26248   1160352.49746  20312855.7504                   20312853.8524
   8344713.18446   6603169.59143  24545676.2034                   24545675.5204
   -928948.94947   -708370.72646  21029387.7894                   21029384.4454
  -2923126.32846  -2274968.65043  23868749.9924                   23868750.6054
   6348164.34048   4943970.01445  21442081.9614                   21442078.8444
  -3074321.44946  -2392763.50543  23895769.2814                   23895770.1094
  -5476600.39547  -4265723.70844  23230666.0084                   23230665.4344
 11  8 16 17  1 30.0000000  0 11G03G06G07G10G13G16G19G28G23G11G08
   5534574.37147   4312497.88544  21979209.5004                   21979208.7814
   7167136.04346   5593850.87943  23934109.7344                   23934110.4574
  -4315944.95347  -3360175.38845  21473616.8364                   21473614.9694
   2862431.16446   2228394.37843  24352058.6644                   24352060.5664
   1442907.83248   1134030.82346  20306427.6094                   20306426.1564
   8362062.02345   6616688.08242  24548977.0784                   24548976.4734
   -988951.80547   -755126.20046  21017968.7974                   21017965.9344
  -3052604.25046  -2375860.45343  23844110.8054                   23844111.1094
   6363714.67248   4956087.08045  21445041.4774                   21445037.9804
  -3223403.25446  -2508931.16443  23867400.2114                   23867400.7544
  -5618109.02047  -4375990.12244  23203737.6884                   23203737.2934
 11  8 16 17  2  0.0000000  0 11G03G06G07G10G13G16G19G28G23G11G08
   5543040.80147   4319095.07344  21980820.2114                   21980819.3054
   7186857.11346   5609217.85144  23937862.3834                   23937863.0514
  -4437273.98047  -3454717.49045  21450528.7894                   21450526.8714
   2834701.98446   2206787.22343  24346781.9774                   24346783.9264
   1409616.12547   1108089.21346  20300092.6884                   20300090.8524
   8379239.80145   6630073.28142  24552245.0314                   24552244.1484
  -1048427.42647   -801470.85546  21006650.8754                   21006648.2814
  -3181951.60546  -2476650.63343  23819497.0314                   23819496.7074
   6379570.45748   4968442.16945  21448058.4774                   21448055.4184
  -3372563.36346  -2625159.73943  23839016.0084                   23839017.1484
  -5759749.21547  -4486359.06244  23176785.0634                   23176784.2504
 11  8 16 17  2 30.0000000  0 11G03G06G07G10G13G16G19G28G23G11G08
   5551841.89147   4325952.99044  21982494.6564                   21982494.4144
   7206752.87146   5624720.98544  23941648.7584                   23941649.2304
  -4558587.89847  -3549247.80246  21427443.2194                   21427441.7544
   2807174.46146   2185337.11643  24341543.6564                   24341545.3444
   1376810.07448   1082526.03246  20293849.7114                   20293847.8094
   8396244.68845   6643323.79742  24555482.4924                   24555480.0314
  -1107377.99247   -847406.36146  20995432.9924                   20995430.2274
  -3311169.87546  -2577340.16843  23794907.9384                   23794907.6954
   6395728.06348   4981032.43545  21451132.8754                   21451129.8714
  -3521800.00046  -2741447.99143  23810618.2274                   23810618.1214
  -5901521.73047  -4596831.12344  23149805.8674                   23149805.5824
 11  8 16 17  3  0.0000000  0 11G03G06G07G10G13G16G19G28G23G11G08
   5560976.81347   4333071.06644  21984233.3984                   21984232.3754
   7226822.75046   5640359.74543  23945468.7584                   23945468.5124
  -4679883.12547  -3643763.57345  21404362.1254                   21404360.3244
   2779847.76646   2164043.53443  24336343.3984                   24336345.2584
   1344491.28548   1057342.52646  20287699.5164                   20287698.0514
   8413077.69145   6656440.34842  24558684.9614                   24558682.6254
  -1165801.57448   -892931.24246  20984315.8594                   20984312.5234
  -3440257.13346  -2677927.63943  23770343.9924                   23770343.0354
   6412186.88348   4993857.42245  21454265.1414                   21454262.5204
  -3671108.42246  -2857792.18843  23782204.5314                   23782205.1914
  -6043423.85947  -4707404.22344  23122802.8754                   23122802.7584
 11  8 16 17  3 30.0000000  0 11G03G06G07G10G13G16G19G28G23G11G08
   5570439.85547   4340444.82144  21986034.3054                   21986033.1764
   7247061.43446   5656130.07843  23949319.3524                   23949320.0664
  -4801160.64847  -3738265.54346  21381283.9144                   21381281.8364
   2752716.65245   2142902.25842  24331181.2114                   24331182.5474
   1312655.07048   1032535.06346  20281641.4384                   20281639.7424
   8429734.85545   6669419.84842  24561855.3524                   24561853.4494
  -1223701.13347   -938047.80746  20973298.0004                   20973294.9344
  -3569216.32846  -2778415.28443  23745802.7344                   23745803.2384
   6428941.52347   5006912.90945  21457453.7504                   21457450.6644
  -3820488.66846  -2974192.34343  23753778.9844                   23753778.8324
  -6185457.48447  -4818079.73144  23095775.3444                   23095774.7814
 11  8 16 17  4  0.0000000  0 11G03G06G07G10G13G16G19G28G23G11G08
   5580225.12147   4348069.67144  21987895.9924                   21987895.8204
   7267462.60246   5672027.01943  23953201.8834                   23953202.3054
  -4922423.06247  -3832755.73446  21358208.1094                   21358206.2704
   2725774.71546   2121908.44942  24326053.9304                   24326054.5474
   1281297.03548   1008100.20246  20275674.1094                   20275672.4884
   8446211.70344   6682258.79943  24564990.3984                   24564989.8834
  -1281080.77747   -982759.22146  20962379.2344                   20962376.0594
  -3698051.33646  -2878806.15743  23721286.7894                   23721286.2274
   6445985.88347   5020194.16745  21460697.1644                   21460694.3204
  -3969941.71546  -3090649.19043  23725338.1644                   23725338.8874
  -6327625.60947  -4928860.08044  23068721.2974                   23068721.0904
 11  8 16 17  4 30.0000000  0 11G03G06G07G10G13G16G19G28G23G11G08
   5590333.87147   4355946.56144  21989819.9924                   21989819.5704
   7288028.15646   5688052.03143  23957115.1484                   23957115.6954
  -5043664.94947  -3927229.92946  21335136.6884                   21335134.6644
   2699023.87946   2101063.55942  24320964.2664                   24320963.9414
   1250420.41448    984040.47046  20269799.1094                   20269796.6294
   8462511.35245   6694959.78142  24568092.6024                   24568092.0004
  -1337936.91448  -1027062.72146  20951559.4694                   20951556.4304
  -3826758.34846  -2979097.30843  23696794.3524                   23696794.6684
   6463321.76247   5033702.56145  21463996.0394                   21463993.0984
  -4119460.20746  -3207157.05243  23696886.3594                   23696886.8674
  -6469923.32047  -5039741.39144  23041643.2194                   23041642.2624
 11  8 16 17  5  0.0000000  0 11G03G06G07G10G13G16G19G28G23G11G08
   5600765.40247   4364075.00144  21991804.5084                   21991804.2154
   7308757.55946   5704204.71743  23961060.1724                   23961059.9694
  -5164882.37547  -4021685.06346  21312069.8204                   21312067.7894
   2672463.55146   2080367.13342  24315908.8204                   24315910.7274
   1220026.46947    960356.83446  20264015.1804                   20264012.9384
   8478635.17646   6707523.72243  24571160.6724                   24571160.7234
  -1394267.95347  -1070957.04946  20940840.3834                   20940836.8524
  -3955335.35246  -3079287.14443  23672326.6414                   23672327.5234
   6480948.45347   5047437.57345  21467350.4774                   21467347.1024
  -4269039.25446  -3323712.09643  23668422.5394                   23668423.1524
  -6612347.97347  -5150721.66344  23014540.3674                   23014540.2664
 11  8 16 17  5 30.0000000  0 11G03G06G07G10G13G16G19G28G23G11G08
   5611517.76247   4372453.38844  21993850.5314                   21993850.5664
   7329649.22746   5720483.90243  23965035.5634                   23965035.9144
  -5286073.18047  -4116119.46045  21289008.0004                   21289005.9344
   2646091.91845   2059817.73042  24310891.6334                   24310892.1254
   1190115.09047    937049.22946  20258322.8444                   20258321.3714
   8494583.32046   6719950.72743  24574196.0004                   24574196.3244
  -1450073.34847  -1114441.78046  20930221.0394                   20930217.3914
  -4083781.69946  -3179375.19143  23647884.5164                   23647884.7464
   6498864.65248   5061398.17845  21470759.7584                   21470756.6024
  -4418674.99646  -3440311.28243  23639946.3914                   23639947.7154
  -6754897.61347  -5261799.25844  22987413.8674                   22987413.9344
 11  8 16 17  6  0.0000000  0 11G03G06G07G10G13G16G19G28G23G11G08
   5622586.81647   4381078.57544  21995957.4774                   21995957.0084
   7350699.20346   5736886.40944  23969041.4384                   23969042.0164
  -5407237.19947  -4210532.97346  21265950.9924                   21265949.2424
   2619905.34046   2039412.54342  24305909.8204                   24305909.0744
   1160683.90247    914115.80446  20252722.0634                   20252720.7544
   8510353.41446   6732238.99243  24577197.1804                   24577196.5784
  -1505354.98047  -1157518.37746  20919701.1724                   20919697.6914
  -4212098.51246  -3279362.25043  23623466.5314                   23623466.4694
   6517066.56647   5075581.40645  21474223.4064                   21474220.6644
  -4568365.97746  -3556953.58543  23611462.1644                   23611462.2664
  -6897572.68447  -5372974.62544  22960264.0704                   22960263.6604
 11  8 16 17  6 30.0000000  0 11G03G06G07G10G13G16G19G28G23G11G08
   5633968.57047   4389947.38844  21998123.8524                   21998123.0634
   7371903.43046   5753409.11143  23973076.2584                   23973077.6414
  -5528374.65647  -4304925.78346  21242899.6334                   21242897.7424
   2593899.67646   2019148.29742  24300959.2034                   24300960.1954
   1131730.37948    891554.58846  20247212.8204                   20247211.0314
   8525943.09746   6744386.69843  24580163.8284                   24580163.1134
  -1560114.90647  -1200188.46346  20909280.6174                   20909277.2344
  -4340288.25047  -3379250.32443  23599073.3524                   23599073.0044
   6535550.12547   5089984.11145  21477740.6094                   21477738.2624
  -4718110.82046  -3673637.82543  23582967.1804                   23582967.1374
  -7040374.05147  -5484248.38644  22933089.7274                   22933089.6564
 11  8 16 17  7  0.0000000  0 11G03G06G07G10G13G16G19G28G23G11G08
   5645662.29347   4399059.32844  22000348.8754                   22000347.9184
   7393261.64846   5770051.85343  23977140.7034                   23977141.0234
  -5649481.93447  -4399295.07546  21219853.3674                   21219851.7734
   2568074.24646   1999024.51343  24296044.9224                   24296046.3134
   1103255.41048    869366.24946  20241794.5004                   20241792.5164
   8541353.81346   6756394.99943  24583096.4144                   24583095.9304
  -1614351.52748  -1242450.77646  20898959.4454                   20898956.6524
  -4468348.80547  -3479037.76643  23574703.5314                   23574703.5514
   6554314.76647   5104605.83945  21481311.7344                   21481309.2074
  -4867904.52746  -3790360.14343  23554462.4454                   23554462.6414
  -7183298.41847  -5595617.97744  22905891.7114                   22905891.8404
 11  8 16 17  7 30.0000000  0 11G03G06G07G10G13G16G19G28G23G11G08
   5657664.55147   4408411.67844  22002632.8754                   22002632.2974
   7414770.52747   5786811.91743  23981234.0474                   23981233.6294
  -5770558.14847  -4493640.16446  21196813.1484                   21196811.6334
   2542426.00045   1979038.80843  24291164.6644                   24291166.1564
   1075256.84848    847549.15246  20236466.0394                   20236464.4844
   8556583.89846   6768262.54243  24585994.7034                   24585994.3984
  -1668066.00848  -1284306.22846  20888738.2194                   20888735.2814
  -4596281.22346  -3578725.35443  23550358.9224                   23550358.5744
   6573357.27747   5119444.07845  21484935.0314                   21484932.7934
  -5017744.71546  -3907118.61243  23525948.5784                   23525949.0004
  -7326345.97747  -5707083.59844  22878670.9064                   22878670.7974
 11  8 16 17  8  0.0000000  0 11G03G06G07G10G13G16G19G28G23G11G08
   5669975.08647   4418004.26744  22004975.3984                   22004974.6214
   7436430.05146   5803689.42243  23985355.4694                   23985355.6564
  -5891599.32447  -4587957.95946  21173780.1644                   21173778.3094
   2516954.80946   1959191.07943  24286317.8754                   24286319.3324
   1047736.44548    826104.65246  20231229.4384                   20231227.4454
   8571635.07046   6779990.66443  24588858.9774                   24588859.0164
  -1721256.90248  -1325753.68146  20878616.3524                   20878613.2074
  -4724083.00847  -3678311.15043  23526039.1954                   23526039.4534
   6592677.56647   5134498.76045  21488612.0164                   21488609.4064
  -5167625.95746  -4023909.17043  23497427.2034                   23497426.4734
  -7469513.21547  -5818642.46744  22851427.9224                   22851426.8634
 11  8 16 17  8 30.0000000  0 11G03G06G07G10G13G16G19G28G23G11G08
   5682593.86347   4427837.02144  22007376.5164                   22007376.4844
   7458240.35546   5820684.42243  23989505.9064                   23989505.9654
  -6012601.45747  -4682245.32346  21150753.6884                   21150752.4574
   2491660.35246   1939480.96743  24281504.3754                   24281505.8204
   1020695.89148    805034.05546  20226083.6024                   20226081.8364
   8586509.39546   6791580.90943  24591688.9304                   24591689.7734
  -1773921.92647  -1366791.37246  20868594.3984                   20868591.0824
  -4851751.80946  -3777793.28243  23501744.7274                   23501745.0004
   6612275.55547   5149769.86245  21492341.2114                   21492338.6804
  -5317542.81246  -4140727.45643  23468899.2114                   23468898.8524
  -7612796.89547  -5930292.06144  22824161.5164                   22824160.5744
 11  8 16 17  9  0.0000000  0 11G03G06G07G10G13G16G19G28G23G11G08
   5695510.60547   4437901.96844  22009834.5314                   22009834.5434
   7480191.80546   5837789.38143  23993682.7894                   23993683.7624
  -6133570.25847  -4776506.73146  21127734.1884                   21127732.7344
   2466533.13746   1919901.21542  24276722.2274                   24276724.8014
    994126.53148    784330.61746  20221028.0004                   20221026.0394
   8601198.53146   6803026.84943  24594484.4144                   24594485.6094
  -1826068.91447  -1407425.38546  20858671.3754                   20858668.4144
  -4979295.23046  -3877177.71443  23477474.1414                   23477473.9264
   6632141.64547   5165249.83645  21496121.7974                   21496118.8364
  -5467499.51246  -4257576.73643  23440362.6094                   23440362.4024
  -7756203.43047  -6042037.37444  22796871.7504                   22796871.2974
 11  8 16 17  9 30.0000000  0 11G03G06G07G10G13G16G19G28G23G11G08
   7284150.87147   5675803.38444  22312142.7504                   22312142.7774
   9077709.49646   7082608.22043  24297680.5084                   24297681.5514
  -4679071.65648  -3643131.18046  21404515.6724                   21404514.6844
   4016999.84046   3128056.98442  24571766.3524                   24571768.5984
   2543456.48448   1991600.66746  20515855.4224                   20515853.9534
  10191129.57446   8041934.03542  24897038.4774                   24897039.0084
   -302268.64547   -220048.57846  21148640.5474                   21148637.6954
  -3531281.07447  -2748854.99043  23753021.7814                   23753021.3714
   8227700.71947   6408542.53845  21799746.2814                   21799743.8204
  -4042059.78947  -3146844.43843  23711614.5784                   23711615.2194
  -6324298.73047  -4926267.45844  23069354.2034                   23069354.1564
 11  8 16 17 10  0.0000000  0 11G03G06G07G10G13G16G19G28G23G11G08
   7297673.87946   5686340.71244  22314716.5554                   22314715.7194
   9099953.55946   7099941.20043  24301912.5944                   24301914.0594
  -4799950.78147  -3737322.70746  21381513.7664                   21381512.0084
   3992217.29746   3108745.82143  24567050.8204                   24567053.3524
   2517843.92648   1971642.80246  20510981.7504                   20510979.6724
  10205464.34046   8053103.88342  24899766.8524                   24899766.5084
   -353363.98048   -259863.13446  21138917.6724                   21138914.6954
  -3658556.46947  -2848030.58543  23728802.2344                   23728801.4844
   8248113.07447   6424448.20345  21803630.8674                   21803628.5204
  -4192069.37946  -3263734.94343  23683069.1254                   23683068.8014
  -6467930.12547  -5038188.02444  23042022.2114                   23042021.7464
 11  8 16 17 10 30.0000000  0 11G03G06G07G10G13G16G19G28G23G11G08
   7311488.53547   5697105.33544  22317344.8594                   22317344.5394
   9122333.28946   7117379.81943  24306171.9844                   24306173.0004
  -4920789.80947  -3831482.98846  21358518.6414                   21358517.0594
   3967595.97746   3089560.26543  24562365.4924                   24562367.6954
   2492700.96948   1952050.84946  20506197.0234                   20506195.3984
  10219613.93846   8064129.42642  24902458.7274                   24902458.1054
   -403941.48447   -299274.19946  21129293.1094                   21129290.2274
  -3785705.45746  -2947107.71843  23704606.4454                   23704605.8674
   8268787.87947   6440558.36145  21807565.1954                   21807562.5704
  -4342107.73446  -3380647.93843  23654517.1644                   23654517.4844
  -6611679.42647  -5150200.44544  23014667.2034                   23014666.9534
 11  8 16 17 11  0.0000000  0 11G03G06G07G10G13G16G19G28G23G11G08
   7325598.87547   5708100.37844  22320030.2974                   22320030.1844
   9144852.63746   7134927.30543  24310457.8134                   24310458.4964
  -5041580.66847  -3925605.72046  21335532.6254                   21335531.6054
   3943139.88346   3070503.45843  24557712.2894                   24557713.4884
   2468032.64848   1932828.73546  20501502.7424                   20501501.5004
  10233584.11346   8075015.20742  24905117.7974                   24905115.9924
   -453995.20347   -338277.10846  21119768.1954                   21119764.9924
  -3912721.60946  -3046081.33743  23680436.0004                   23680435.3244
   8289728.83247   6456875.87245  21811550.2274                   21811547.6684
  -4492165.66046  -3497576.07643  23625963.1334                   23625962.6684
  -6755538.81647  -5262298.64244  22987291.9384                   22987291.2344
 11  8 16 17 11 30.0000000  0 11G03G06G07G10G13G16G19G28G23G11G08
   7340004.42247   5719325.39144  22322771.7344                   22322771.5744
   9167511.39546   7152583.38943  24314769.3134                   24314770.2074
  -5162319.59048  -4019687.99546  21312557.0314                   21312555.8054
   3918848.54346   3051574.96943  24553089.9224                   24553090.8954
   2443839.98048   1913977.25646  20496899.2814                   20496897.6454
  10247376.33646   8085762.24642  24907742.7814                   24907742.1914
   -503524.00047   -376870.98646  21110343.2424                   21110339.7774
  -4039602.74646  -3144949.77143  23656290.8914                   23656290.7304
   8310935.60947   6473400.57545  21815586.0704                   21815583.6724
  -4642237.79346  -3614515.36643  23597404.3054                   23597404.5204
  -6899505.43447  -5374480.42044  22959895.8204                   22959894.9304
 11  8 16 17 12  0.0000000  0 11G03G06G07G10G13G16G19G28G23G11G08
   7354702.15247   5730778.12144  22325568.8524                   22325568.5004
   9190306.83246   7170345.99743  24319108.1954                   24319108.3794
  -5283005.05148  -4113728.61546  21289591.6804                   21289590.1684
   3894719.02346   3032772.66443  24548498.2664                   24548499.1684
   2420121.82448   1895495.53446  20492385.9224                   20492384.3594
  10260989.69146   8096369.94142  24910333.4694                   24910331.6094
   -552528.70747   -415056.48546  21101017.9064                   21101014.4964
  -4166349.70746  -3243713.59843  23632172.1414                   23632172.3284
   8332405.44147   6490130.21845  21819671.5784                   21819669.0354
  -4792321.23846  -3731463.45743  23568844.7664                   23568843.8204
  -7043578.87946  -5486745.42344  22932479.2814                   22932478.7424
 11  8 16 17 12 30.0000000  0 11G03G06G07G10G13G16G19G28G23G11G08
   7369687.39146   5742454.86644  22328420.5784                   22328419.8794
   9213234.55946   7188211.69343  24323470.2274                   24323471.0744
  -5403637.55947  -4207727.96646  21266636.0004                   21266634.2034
   3870747.17646   3014093.18743  24543936.6724                   24543937.7344
   2396874.91848   1877381.03046  20487961.9774                   20487960.3674
  10274421.63746   8106836.37542  24912889.2664                   24912888.3984
   -601012.15647   -452835.82046  21091791.9694                   21091788.9224
  -4292964.44147  -3342374.34143  23608078.3984                   23608078.5394
   8354133.85547   6507061.38545  21823806.1804                   21823804.1214
  -4942415.05547  -3848419.64643  23540282.9924                   23540282.5004
  -7187759.67247  -5599094.06544  22905042.8134                   22905042.2464
 11  8 16 17 13  0.0000000  0 11G03G06G07G10G13G16G19G28G23G11G08
   7384960.32846   5754355.83944  22331326.6484                   22331327.0044
   9236295.05546   7206180.74643  24327857.9694                   24327859.8244
  -5524212.64847  -4301682.57746  21243691.1954                   21243689.5554
   3846933.28546   2995536.80943  24539404.3134                   24539406.6564
   2374100.46148   1859634.65246  20483628.2424                   20483626.7274
  10287674.35546   8117163.05142  24915411.6724                   24915411.4614
   -648972.38347   -490207.43546  21082665.5864                   21082662.6524
  -4419444.53546  -3440930.27243  23584009.8754                   23584010.0124
   8376121.07047   6524194.19945  21827990.3914                   21827987.8284
  -5092513.25846  -3965379.16443  23511720.0704                   23511719.8444
  -7332043.81647  -5711523.27944  22877586.7584                   22877585.4104
 11  8 16 17 13 30.0000000  0 10G03G06G07G10G13G19G28G23G11G08
   7400524.45346   5766483.66744  22334289.3444                   22334288.1644
   9259492.20346   7224256.39643  24332273.4454                   24332273.9454
  -5644722.16048  -4395586.08646  21220759.1804                   21220757.7894
   3823280.93846   2977106.30143  24534904.0004                   24534906.6914
   2351803.37948   1842260.26346  20479385.1564                   20479383.9804
   -696403.62947   -527166.86046  21073639.7584                   21073636.4304
  -4545783.78146  -3539376.44044  23559967.5314                   23559967.9264
   8398370.88347   6541531.61545  21832224.5314                   21832221.9104
  -5242606.43047  -4082334.79843  23483158.5704                   23483158.7304
  -7476423.92247  -5824027.22644  22850111.7424                   22850111.2274
 11  8 16 17 14  0.0000000  0 10G03G06G07G10G13G19G28G23G11G08
   7416374.30146   5778834.14944  22337304.7584                   22337304.8364
   9282821.13346   7242434.73143  24336712.3594                   24336713.2664
  -5765166.94548  -4489439.16746  21197839.0704                   21197837.4454
   3799785.03146   2958797.71343  24530433.2814                   24530435.6294
   2329980.16448   1825255.10146  20475232.8284                   20475231.0004
   -743309.57047   -563716.98346  21064713.8444                   21064710.0234
  -4671985.24246  -3637715.20944  23535952.8914                   23535952.6644
   8420878.17647   6559069.66645  21836507.5784                   21836504.7194
  -5392694.07047  -4199286.19643  23454597.0864                   23454597.3164
  -7620901.84847  -5936607.41044  22822619.2344                   22822618.1024
 11  8 16 17 14 30.0000000  0 10G03G06G07G10G13G19G28G23G11G08
   7432517.03546   5791412.85944  22340376.6414                   22340376.4414
   9306288.95746   7260721.27743  24341178.2584                   24341178.7814
  -5885535.72748  -4583233.00646  21174934.0554                   21174932.1374
   3776452.39846   2940616.35043  24525992.6414                   24525994.8634
   2308639.23448   1808625.77446  20471171.1804                   20471170.0554
   -789681.30147   -599850.80446  21055889.4534                   21055885.9414
  -4798039.24246  -3735939.07143  23511965.0554                   23511965.4024
   8443650.11747   6576813.93845  21840840.9924                   21840838.2894
  -5542763.55147  -4316223.34643  23426040.5234                   23426038.8164
  -7765466.50047  -6049255.18044  22795108.7974                   22795108.6454
 11  8 16 17 15  0.0000000  0 10G03G06G07G10G13G19G28G23G11G08
   7448958.24246   5804224.13044  22343504.8914                   22343505.0864
   9329901.62546   7279120.71343  24345672.2504                   24345672.0514
  -6005818.50047  -4676959.84646  21152044.3054                   21152043.2504
   3753289.05146   2922566.86943  24521585.5634                   24521587.5004
   2287787.28548   1792377.45546  20467203.5084                   20467201.8244
   -835511.19547   -635562.43246  21047168.5164                   21047165.0004
  -4923938.08646  -3834042.00844  23488006.8914                   23488007.3984
   8466692.09047   6594768.61745  21845225.9534                   21845223.0124
  -5692803.35246  -4433137.43843  23397487.8444                   23397487.2584
  -7910108.37147  -6161963.15044  22767584.6334                   22767583.7274
 11  8 16 17 15 30.0000000  0 10G03G06G07G10G13G19G28G23G11G08
   7465699.16446   5817268.95244  22346691.3674                   22346690.7814
   9353660.62146   7297634.14543  24350192.7814                   24350193.5394
  -6126009.64848  -4770615.28346  21129173.0634                   21129171.6214
   3730296.10546   2904650.19543  24517209.9454                   24517212.1884
   2267426.74248   1776512.05646  20463329.4924                   20463327.5204
   -880796.67647   -670849.83546  21038550.4144                   21038547.2704
  -5049677.91846  -3932021.06144  23464080.2504                   23464080.6134
   8490005.44147   6612934.76845  21849662.2814                   21849659.3094
  -5842806.45746  -4550022.90643  23368943.7974                   23368943.0784
  -8054822.81647  -6274727.62644  22740046.2194                   22740045.8834
 11  8 16 17 16  0.0000000  0 10G03G06G07G10G13G19G28G23G11G08
   7482734.69146   5830543.32844  22349932.6414                   22349932.6884
   9377561.34046   7316257.99943  24354741.4384                   24354741.2114
  -6246109.65248  -4864199.69646  21106318.7194                   21106317.2034
   3707469.04746   2886862.75043  24512866.2974                   24512867.9414
   2247554.09048   1761026.81546  20459547.6484                   20459545.7504
   -925540.63747   -705715.28746  21030036.1564                   21030033.4024
  -5175261.23447  -4029878.15744  23440182.4614                   23440182.9534
   8513585.59447   6631308.82445  21854149.1724                   21854147.1954
  -5992771.97347  -4666879.07043  23340406.0554                   23340406.7894
  -8199610.73047  -6387549.35444  22712494.1254                   22712492.9534
 11  8 16 17 16 30.0000000  0 10G03G06G07G10G13G19G28G23G11G08
   7500054.29346   5844039.08944  22353228.3134                   22353228.6334
   9401593.41046   7334984.23343  24359314.8444                   24359314.8914
  -6366124.75048  -4957717.94946  21083480.8834                   21083479.0474
   3684797.05146   2869196.15943  24508551.6884                   24508553.7854
   2228159.94548   1745914.47446  20455857.2974                   20455855.3554
   -969752.27747   -740165.94046  21021622.9304                   21021620.0904
  -5300696.41046  -4127619.80844  23416312.7194                   23416312.9224
   8537421.89847   6649882.46845  21858685.2814                   21858682.9654
  -6142704.70747  -4783709.74143  23311874.7974                   23311875.5354
  -8344479.00447  -6500433.71544  22684926.5474                   22684925.8444
 11  8 16 17 17  0.0000000  0 10G03G06G07G10G13G19G28G23G11G08
   7517657.10546   5857755.46444  22356578.5554                   22356578.5314
   9425756.22746   7353812.35343  24363911.8524                   24363912.8874
  -6486051.55948  -5051167.41846  21060659.7114                   21060657.5204
   3662279.50046   2851649.90243  24504266.7194                   24504268.8164
   2209244.52048   1731175.12746  20452257.2664                   20452256.1054
  -1013430.59847   -774201.01946  21013311.4924                   21013308.4694
  -5425981.89546  -4225244.78544  23392471.4064                   23392472.2304
   8561513.63747   6668655.13345  21863270.2344                   21863267.7274
  -6292599.90646  -4900511.09343  23283349.8444                   23283350.2114
  -8489424.65647  -6613378.37744  22657344.1254                   22657344.2034
 11  8 16 17 17 30.0000000  0 10G03G06G07G10G13G19G28G23G11G08
   7535540.81646   5871690.79944  22359981.2504                   22359981.5234
   9450048.55946   7372741.27742  24368536.1884                   24368536.3524
  -6605887.05148  -5144545.72646  21037855.6804                   21037853.4844
   3639914.82846   2834222.73843  24500011.0164                   24500013.1564
   2190807.53548   1716808.59646  20448748.9384                   20448747.6024
  -1056575.41847   -807820.38446  21005100.9224                   21005098.1994
  -5551116.75046  -4322752.40944  23368659.0864                   23368659.8634
   8585859.38347   6687625.73845  21867903.2664                   21867900.8324
  -6442453.20746  -5017279.83943  23254834.1174                   23254833.5864
  -8634445.42247  -6726381.51944  22629747.7814                   22629747.7974
 11  8 16 17 18  0.0000000  0 10G03G06G07G10G13G19G28G23G11G08
   7553699.27046   5885840.18144  22363437.0944                   22363437.2304
   9474463.77746   7391766.04742  24373180.9694                   24373181.9224
  -6725633.66848  -5237854.78446  21015068.3284                   21015066.9454
   3617695.94546   2816909.18843  24495783.8134                   24495785.1414
   2172843.28548   1702810.44246  20445330.6884                   20445329.0744
  -1099192.24647   -841028.33546  20996991.2664                   20996988.3984
  -5676105.63347  -4420146.28544  23344874.7504                   23344874.6644
   8610452.05547   6706788.75645  21872582.5784                   21872580.6174
  -6592265.63746  -5134016.80043  23226325.9454                   23226325.1994
  -8779544.22747  -6839445.49844  22602136.2034                   22602136.1604
 11  8 16 17 18 30.0000000  0 10G03G06G07G10G13G19G28G23G11G08
   7572126.01646   5900198.63044  22366943.4694                   22366943.9264
   9498995.91846   7410881.89943  24377849.7734                   24377850.7894
  -6845292.84848  -5331095.70546  20992298.0004                   20992296.3404
   3595617.07046   2799704.73543  24491582.2034                   24491584.7114
   2155346.72748   1689176.70046  20442001.0474                   20441999.7894
  -1141285.49647   -873828.27646  20988981.2114                   20988978.3054
  -5800952.43447  -4517429.43844  23321117.0704                   23321116.7774
   8635285.39847   6726139.28745  21877308.7344                   21877306.2344
  -6742037.50046  -5250722.07544  23197825.2034                   23197825.5664
  -8924723.41047  -6952572.12744  22574509.7894                   22574509.4454
 11  8 16 17 19  0.0000000  0 10G03G06G07G10G13G19G28G23G11G08
   7590822.32846   5914767.10544  22370501.4924                   22370501.4184
   9523647.41446   7430090.79043  24382541.3364                   24382542.9614
  -6964858.84848  -5424264.00746  20969545.6724                   20969543.8634
   3573680.16046   2782610.93043  24487407.5394                   24487410.8134
   2138321.11748   1675909.95846  20438761.4534                   20438760.0354
  -1182851.78147   -906217.60946  20981071.6094                   20981068.3674
  -5925652.90647  -4614598.61144  23297387.7194                   23297387.4964
   8660361.47747   6745678.97645  21882080.8204                   21882078.0594
  -6891761.42646  -5367390.03443  23169333.3914                   23169333.9304
  -9069977.32047  -7065756.98544  22546868.9454                   22546868.4694
 11  8 16 17 19 30.0000000  0 10G03G06G07G10G13G19G28G23G11G08
   7609783.94146   5929542.35144  22374109.4384                   22374109.9104
   9548413.40646   7449388.81043  24387253.5634                   24387255.9304
  -7084331.88348  -5517359.88546  20946810.3284                   20946808.7464
   3551880.23046   2765623.85443  24483259.2504                   24483261.4454
   2121762.22748   1663006.87846  20435610.1954                   20435608.9304
  -1223894.35247   -938198.84646  20973261.8834                   20973258.4614
  -6050209.80547  -4711655.88544  23273685.0944                   23273685.1844
   8685675.35547   6765403.99245  21886897.4144                   21886895.3834
  -7041436.41446  -5484019.82344  23140850.9304                   23140851.4414
  -9215306.92647  -7179000.80244  22519213.3524                   22519212.6134
 11  8 16 17 20  0.0000000  0 10G03G06G07G10G13G19G28G23G11G08
   7629007.56346   5944521.73444  22377768.0084                   22377768.2934
   9573291.10246   7468774.00943  24391989.6094                   24391989.6644
  -7203710.82847  -5610382.45046  20924093.5944                   20924091.5514
   3530214.31346   2748741.16943  24479136.4844                   24479139.3054
   2105668.25448   1650466.07646  20432548.0864                   20432545.9694
  -1264414.82047   -969773.27546  20965550.8364                   20965547.6994
  -6174623.57847  -4808601.61644  23250009.6024                   23250009.2584
   8711223.99647   6785311.89545  21891759.3594                   21891756.9104
  -7191059.75046  -5600609.39643  23112378.8204                   23112378.8674
  -9360711.46947  -7292303.02444  22491543.8444                   22491543.2544
 11  8 16 17 20 30.0000000  0 10G03G06G07G10G13G19G28G23G11G08
   9223909.50047   7187302.38244  22681268.0634                   22681268.1764
  11173697.32445   8715843.75643  24696534.9384                   24696537.3754
  -5747569.59448  -4475726.93345  21201188.0314                   21201185.9654
   5084100.28946   3959561.26543  24774832.0704                   24774834.2624
   3665458.04348   2865886.64846  20729366.0314                   20729364.0514
    271007.24647    226659.49246  21257731.9924                   21257728.7664
  -4723470.71147  -3677833.09943  23526155.4844                   23526155.2034
  10312423.89847   8033000.02145  22196458.0864                   22196455.6134
  -5765203.30547  -4489552.41843  23383711.1024                   23383710.2194
  -7930764.72747  -6178058.80444  22763654.1024                   22763653.2504
 11  8 16 17 21  0.0000000  0 10G03G06G07G10G13G19G28G23G11G08
   9243649.06646   7202683.79844  22685024.0004                   22685024.4344
  11198792.23046   8735398.02643  24701311.4694                   24701312.3204
  -5866753.70747  -4568597.68246  21178507.8524                   21178505.6884
   5062694.71146   3942881.43643  24770758.9064                   24770760.3714
   3650290.05148   2854067.38746  20726479.4064                   20726478.3754
    231528.34447    195896.67946  21250219.5864                   21250216.3874
  -4847598.84446  -3774556.27644  23502534.1094                   23502534.1764
  10338435.05147   8053268.31845  22201408.1954                   22201405.0904
  -5914712.91446  -4606053.36243  23355259.6644                   23355259.0664
  -8076314.33247  -6291474.09144  22735956.3674                   22735955.6604
 11  8 16 17 21 30.0000000  0 10G03G06G07G10G13G19G28G23G11G08
   9263640.74646   7218261.66644  22688828.2034                   22688829.1174
  11223990.29446   8755032.80743  24706105.9844                   24706107.7624
  -5985839.65248  -4661391.92945  21155846.5004                   21155844.8284
   5041413.84846   3926298.87543  24766708.3674                   24766711.2854
   3635580.36748   2842605.25046  20723680.7664                   20723679.0784
    192566.09447    165536.47046  21242805.2814                   21242802.0554
  -4971586.67247  -3871170.05743  23478939.6884                   23478939.1094
  10364671.51647   8073712.18445  22206400.3364                   22206397.9304
  -6064162.97347  -4722507.93143  23326820.3594                   23326819.9884
  -8221936.65647  -6404945.97844  22708245.5474                   22708245.0394
 11  8 16 17 22  0.0000000  0 10G03G06G07G10G13G19G28G23G11G08
   9283885.45346   7234036.72144  22692681.0164                   22692680.5824
  11249292.32446   8774748.61443  24710921.6024                   24710922.2544
  -6104822.07848  -4754105.50846  21133204.6724                   21133203.1484
   5020258.27746   3909813.85143  24762682.8594                   24762686.4494
   3621330.81348   2831501.66346  20720969.1334                   20720967.4344
    154123.02348    135580.81346  21235489.7034                   21235486.6844
  -5095431.30546  -3967672.35843  23455372.9064                   23455371.9104
  10391133.74647   8094331.99045  22211435.8674                   22211434.3754
  -6213546.85947  -4838910.91143  23298392.8834                   23298393.9184
  -8367626.89547  -6518470.80144  22680520.8984                   22680520.9454
 11  8 16 17 22 30.0000000  0 10G03G06G07G10G13G19G28G23G11G08
   9304379.54746   7250006.02444  22696580.0394                   22696580.5784
  11274695.78546   8794543.43843  24715754.6884                   24715756.8914
  -6223699.93047  -4846737.58546  21110583.2344                   21110581.4734
   4999225.01246   3893424.20443  24758680.3134                   24758683.0784
   3607539.16047   2820754.86346  20718344.4224                   20718343.0864
    116197.48847    106028.44046  21228273.0474                   21228269.5864
  -5219133.32046  -4064063.51343  23431833.0164                   23431832.6954
  10417819.00447   8115125.56945  22216514.1884                   22216512.3134
  -6362861.88746  -4955260.23343  23269980.3364                   23269979.9574
  -8513384.32847  -6632048.01144  22652784.7814                   22652784.1294
 11  8 16 17 23  0.0000000  0 10G03G06G07G10G13G19G28G23G11G08
   9325119.38347   7266166.89144  22700527.1804                   22700527.6174
  11300197.38746   8814414.68743  24720608.2424                   24720609.1724
  -6342472.06247  -4939287.31146  21087981.1094                   21087979.9614
   4978310.38746   3877126.90642  24754699.9844                   24754702.3364
   3594203.05948   2810363.05546  20715806.9694                   20715805.2544
     78786.96547     76877.36746  21221153.7114                   21221150.4734
  -5342694.25446  -4160344.67644  23408320.1254                   23408319.9144
  10444723.44947   8136089.95245  22221633.8594                   22221632.5664
  -6512105.78546  -5071554.16844  23241579.8364                   23241580.2384
  -8659208.50447  -6745677.23344  22625034.9144                   22625035.0634
 11  8 16 17 23 30.0000000  0 10G03G06G07G10G13G19G28G23G11G08
   9346100.83246   7282516.02144  22704520.3134                   22704520.2814
  11325793.11346   8834359.33743  24725478.6484                   24725479.0004
  -6461138.24247  -5031754.47046  21065400.2664                   21065398.4734
   4957510.23846   3860918.90642  24750741.8674                   24750744.1054
   3581319.34047   2800323.75246  20713355.3284                   20713353.8674
     41888.78147     48125.50246  21214132.0634                   21214128.9884
  -5466115.81646  -4256517.30544  23384833.5084                   23384833.6884
  10471842.96947   8157221.92945  22226795.1334                   22226793.5664
  -6661276.76646  -5187791.26944  23213193.3674                   23213193.0084
  -8805099.41047  -6859358.45244  22597273.3834                   22597272.4224
 11  8 16 17 24  0.0000000  0 10G03G06G07G10G13G19G28G23G11G08
   9367323.68846   7299053.18744  22708559.2664                   22708558.5234
  11351483.42245   8854377.61342  24730366.4694                   24730367.9064
  -6579694.17247  -5124135.72446  21042839.2664                   21042838.0514
   4936824.76245   3844800.20742  24746805.3754                   24746808.1564
   3568888.51248   2790637.35646  20710989.6564                   20710988.0984
      5504.37147     19773.99146  21207208.2114                   21207205.3794
  -5589395.75846  -4352579.49144  23361375.0944                   23361374.5124
  10499177.28147   8178521.27245  22231996.4844                   22231995.2074
  -6810369.23846  -5303967.21244  23184822.7664                   23184821.5044
  -8951053.56647  -6973088.96244  22569499.4304                   22569498.7384
 11  8 16 17 24 30.0000000  0 10G03G06G07G10G13G19G28G23G11G08
   9388783.39846   7315775.00244  22712642.0084                   22712642.1844
  11377264.04345   8874466.33642  24735273.0474                   24735273.6644
  -6698139.64848  -5216430.91246  21020300.4774                   21020298.6374
   4916249.06645   3828767.06342  24742890.7194                   24742892.5594
   3556907.00048   2781301.07046  20708709.5004                   20708708.3054
    -30369.60547     -8179.78946  21200382.1334                   21200378.8524
  -5712536.48447  -4448533.24843  23337941.6334                   23337942.0394
  10526722.15647   8199984.67545  22237238.3134                   22237236.6954
  -6959381.95747  -5420080.96544  23156464.9304                   23156465.1054
  -9097071.14147  -7086868.85844  22541712.9844                   22541712.1294
 11  8 16 17 25  0.0000000  0 10G03G06G07G10G13G19G28G23G11G08
   9410477.93047   7332679.78444  22716770.7034                   22716770.6374
  11403133.46945   8894624.26642  24740194.8754                   24740195.4734
  -6816472.00447  -5308637.96546  20997782.5164                   20997780.7344
   4895781.59445   3812818.21542  24738996.0474                   24738997.9964
   3545373.82848   2772314.12646  20706514.9454                   20706513.6094
    -65733.87547    -35736.37846  21193652.2344                   21193648.9734
  -5835537.59046  -4544378.18544  23314535.2894                   23314534.9844
  10554475.54747   8221610.55045  22242519.6884                   22242518.1484
  -7108310.59846  -5536129.23043  23128125.5084                   23128125.7974
  -9243150.07847  -7200696.60044  22513914.7034                   22513914.2814
 11  8 16 17 25 30.0000000  0 10G03G06G07G10G13G19G28G23G11G08
   9432404.71547   7349765.52144  22720943.3754                   22720942.6604
  11429089.44545   8914849.57442  24745135.1254                   24745135.2544
  -6934689.49247  -5400755.46746  20975286.5554                   20975284.9024
   4875419.43845   3796951.36742  24735120.9144                   24735123.5164
   3534287.52348   2763675.39146  20704405.3834                   20704403.9804
   -100589.53147    -62896.66046  21187019.5164                   21187016.6484
  -5958399.40246  -4640114.68743  23291155.3524                   23291154.8524
  10582434.91047   8243396.94744  22247839.6644                   22247838.7074
  -7257152.19147  -5652109.67844  23099800.9454                   23099802.2934
  -9389288.75847  -7314570.87044  22486105.8914                   22486105.1914
 11  8 16 17 26  0.0000000  0 10G03G06G07G10G13G19G28G23G11G08
   9454552.42246   7367023.40244  22725157.4614                   22725158.0514
  11455121.01255   8935133.82852  24750088.0474                   24750088.6454
  -7052798.54347  -5492788.49946  20952810.7814                   20952809.6454
   4855151.85245   3781158.39542  24731263.7114                   24731267.1564
   3523637.48448   2755376.61446  20702378.7034                   20702377.7234
   -134946.37947    -89668.24546  21180481.8134                   21180478.4534
  -6081130.84046  -4735749.47944  23267799.6414                   23267799.7114
  10610588.87547   8265334.96645  22253198.1414                   22253196.3714
  -7405911.93447  -5768026.34844  23071493.8984                   23071493.7734
  -9535494.46547  -7428497.42144  22458283.5084                   22458283.3134
 11  8 16 17 26 30.0000000  0 10G03G06G07G10G13G19G28G23G11G08
   9476917.94146   7384451.01443  22729414.1884                   22729414.2194
  11481225.48055   8955474.89852  24755056.2814                   24755057.3204
  -7170797.50047  -5584735.74146  20930356.5164                   20930354.8134
   4834975.65245   3765436.58242  24727425.3134                   24727427.6644
   3513421.87948   2747416.35046  20700434.6884                   20700433.3364
   -168806.73047   -116052.97246  21174038.0084                   21174035.1764
  -6203732.80946  -4831283.45043  23244469.2504                   23244469.8834
  10638934.28547   8287422.16445  22258591.6724                   22258590.1414
  -7554587.27046  -5883877.20144  23043201.5554                   23043201.1804
  -9681766.38747  -7542475.53245  22430449.2114                   22430448.6564
 11  8 16 17 27  0.0000000  0 10G03G06G07G10G13G19G28G23G11G08
   9499502.40646   7402049.19844  22733712.2274                   22733712.0824
  11507404.34845   8975873.86342  24760037.5554                   24760039.7544
  -7288681.24647  -5676593.20746  20907923.9304                   20907922.4654
   4814892.13345   3749786.93442  24723603.4694                   24723606.6884
   3503642.24248   2739795.79246  20698573.9144                   20698572.5164
   -202167.98047   -142048.77346  21167689.9304                   21167686.7344
  -6326202.00446  -4926713.95543  23221164.2974                   23221164.1134
  10667472.18047   8309659.34745  22264022.5944                   22264021.4734
  -7703171.02747  -5999656.74944  23014926.7584                   23014926.2934
  -9828099.28547  -7656501.15244  22402603.0164                   22402602.0634
 11  8 16 17 27 30.0000000  0 10G03G06G07G10G13G19G28G23G11G08
   9522299.85946   7419813.36444  22738049.9844                   22738050.0124
  11533652.03946   8996326.51242  24765033.4694                   24765034.0704
  -7406451.53547  -5768362.26546  20885513.1094                   20885511.2584
   4794895.23045   3734204.77742  24719797.9144                   24719800.6094
   3494293.40248   2732510.93346  20696795.0944                   20696793.3324
   -235034.76247   -167659.27446  21161435.6094                   21161432.5664
  -6448541.80546  -5022043.57744  23197883.9844                   23197884.2274
  10696196.77747   8332041.99245  22269488.7814                   22269487.2544
  -7851663.39847  -6115365.05944  22986670.1484                   22986669.6604
  -9974494.82847  -7770575.60844  22374745.2424                   22374744.1914
 11  8 16 17 28  0.0000000  0 10G03G06G07G10G13G19G28G23G11G08
   9545307.31647   7437741.18344  22742428.5394                   22742428.4844
  11559966.18045   9016831.05942  24770040.7664                   24770041.6134
  -7524105.32447  -5860040.54846  20863124.2194                   20863122.7074
   4774982.46546   3718688.23042  24716009.6724                   24716011.5554
   3485373.29748   2725560.14146  20695097.2344                   20695096.4414
   -267408.84847   -192885.87646  21155275.0084                   21155271.8794
  -6570753.16846  -5117273.17344  23174628.8134                   23174628.2344
  10725105.51647   8354568.13145  22274990.3914                   22274988.1804
  -8000061.08646  -6230999.59544  22958430.4144                   22958430.8984
 -10120951.17647  -7884697.40745  22346874.8054                   22346874.1914
 11  8 16 17 28 30.0000000  0 10G03G06G07G10G13G19G28G23G11G08
   9568527.19147   7455834.52544  22746847.2114                   22746846.7464
  11586349.77046   9037389.59042  24775061.6804                   24775061.8914
  -7641636.12947  -5951622.99346  20840759.0634                   20840757.3834
   4755155.89146   3703238.73543  24712237.3754                   24712239.3634
   3476885.47348   2718946.21346  20693482.2194                   20693481.3554
   -299286.68047   -217725.77246  21149208.7194                   21149205.5634
  -6692831.27346  -5212398.91244  23151397.5234                   23151397.4304
  10754200.39547   8377239.33145  22280526.4924                   22280524.6524
  -8148355.85246  -6346553.92444  22930210.4774                   22930210.9694
 -10267462.32447  -7998861.92244  22318994.8204                   22318994.2194
 11  8 16 17 29  0.0000000  0  9G03G07G10G13G19G28G23G11G08
   9591950.80146   7474086.60744  22751304.7584                   22751304.9734
  -7759048.02347  -6043112.77646  20818416.4844                   20818414.7234
   4735407.15246   3687850.07442  24708479.7504                   24708481.8404
   3468822.14848   2712663.03546  20691948.0864                   20691946.7584
   -330675.47347   -242184.59746  21143235.7114                   21143232.8444
  -6814782.59846  -5307425.89944  23128191.0944                   23128190.6914
  10783472.88347   8400048.91045  22286097.1414                   22286095.1484
  -8296550.32046  -6462030.11943  22902010.3054                   22902010.6884
 -10414032.88347  -8113072.73644  22291103.1024                   22291102.7154
 11  8 16 17 29 30.0000000  0  9G03G07G10G13G19G28G23G11G08
   9615584.15246   7492502.15444  22755802.0474                   22755802.1174
  -7876330.30547  -6134501.57546  20796098.3204                   20796096.1024
   4715742.16046   3672526.54243  24704737.8834                   24704740.3244
   3461189.88348   2706715.74546  20690495.6484                   20690494.4884
   -361568.28147   -266256.93146  21137356.9144                   21137354.3404
  -6936598.82046  -5402347.56144  23105010.2274                   23105010.0664
  10812928.96547   8423001.56244  22291702.4384                   22291701.1724
  -8444632.87146  -6577419.08243  22873831.3444                   22873831.3714
 -10560652.73447  -8227321.97344  22263202.4384                   22263201.9144
 11  8 16 17 30  0.0000000  0  9G03G07G10G13G19G28G23G11G08
   9639430.05547   7511083.29244  22760339.6334                   22760339.7544
  -7993475.27047  -6225783.36346  20773805.7894                   20773804.2464
   4696163.82846   3657270.61342  24701011.4774                   24701014.3134
   3453992.44948   2701107.30446  20689126.0634                   20689124.7894
   -391961.16847   -289939.73446  21131573.1484                   21131570.7894
  -7058274.81647  -5497159.96044  23081855.3984                   23081855.5784
  10842571.31647   8446099.34944  22297343.3754                   22297341.8324
  -8592594.56246  -6692713.84544  22845675.5234                   22845674.9734
 -10707314.29347  -8341603.70844  22235293.7344                   22235293.2624
 11  8 16 17 30 30.0000000  0  9G03G07G10G13G19G28G23G11G08
   9663501.65246   7529840.27443  22764920.2814                   22764920.7194
  -8110465.90647  -6316944.89746  20751543.5084                   20751541.6844
   4676685.46546   3642092.50843  24697305.5784                   24697307.3954
   3447243.02048   2695847.95546  20687841.7664                   20687840.6454
   -421840.13347   -313222.07346  21125887.6724                   21125884.8834
  -7179795.25447  -5591851.17844  23058730.9384                   23058730.4224
  10872413.07847   8469352.54644  22303022.9694                   22303021.2544
  -8740416.52346  -6807899.73843  22817545.4304                   22817545.0904
 -10854000.76646  -8455904.84344  22207379.6334                   22207379.8954
 11  8 16 17 31  0.0000000  0  9G03G07G10G13G19G28G23G11G08
  11263210.04346   8776366.19244  23069334.6644                   23069335.5164
  -6651881.21947  -5180385.41046  21029103.0234                   21029101.6724
   6232719.63346   4854586.58043  24993407.9774                   24993411.4304
   5016354.77048   3918532.38346  20986434.0314                   20986432.5704
   1124208.85547    891491.40846  21420091.3364                   21420087.9924
  -5725741.98846  -4458822.61944  23335428.6174                   23335428.1414
  12477865.40647   9720354.20344  22608530.0004                   22608528.4454
  -7312675.47746  -5695374.16644  23089235.9924                   23089235.1564
  -9425291.00847  -7342624.52244  22479254.5944                   22479253.8524
 11  8 16 17 31 30.0000000  0  9G03G07G10G13G19G28G23G11G08
  11287718.44946   8795463.57543  23073997.7814                   23073999.0514
  -6768562.70347  -5271306.05946  21006899.3674                   21006897.6334
   6213426.88746   4839553.08843  24989737.7584                   24989741.5084
   5010490.21548   3913962.53946  20985317.8984                   20985316.9574
   1095347.14547    869001.72446  21414598.9224                   21414596.1134
  -5846958.94147  -4553277.34644  23312361.3054                   23312361.3054
  12508091.85247   9743907.10444  22614281.8524                   22614281.1684
  -7460214.00046  -5810339.22344  23061160.0704                   23061160.1844
  -9572028.97346  -7456965.79144  22451331.4454                   22451330.5744
 11  8 16 17 32  0.0000000  0  9G03G07G10G13G19G28G23G11G08
  11312438.82846   8814726.12443  23078702.4304                   23078703.2814
  -6885089.29347  -5362105.99646  20984725.1884                   20984723.4024
   6194220.61346   4824587.03943  24986082.2894                   24986085.9534
   5005062.10948   3909732.78146  20984285.1254                   20984283.9414
   1066989.24647    846904.64146  21409202.5554                   21409199.8364
  -5968027.54347  -4647616.46644  23289323.0784                   23289322.7114
  12538503.67647   9767604.48544  22620069.5314                   22620068.1994
  -7607608.52346  -5925192.07044  23033111.3524                   23033111.7114
  -9718792.43747  -7571326.92344  22423403.0704                   22423402.9494
 11  8 16 17 32 30.0000000  0  9G03G07G10G13G19G28G23G11G08
  11337367.88347   8834151.26844  23083447.2034                   23083447.1994
  -7001459.37947  -5452783.98746  20962580.6334                   20962578.8204
   6175097.67246   4809685.90343  24982443.1954                   24982446.9694
   5000068.61748   3905841.70946  20983334.9454                   20983333.6374
   1039132.91447    825198.38546  21403901.7814                   21403898.7704
  -6088948.81647  -4741840.81544  23266311.7814                   23266312.1724
  12569098.05147   9791444.11244  22625891.1484                   22625890.0824
  -7754856.65646  -6039930.78644  23005091.1334                   23005091.4104
  -9865580.54347  -7685707.24344  22395469.9924                   22395469.8284
 11  8 16 17 33  0.0000000  0  9G03G07G10G13G19G28G23G11G08
  11362508.00446   8853740.90543  23088230.5554                   23088231.6844
  -7117665.43747  -5543334.16946  20940467.3204                   20940465.1884
   6156061.01646   4794852.02343  24978821.1024                   24978823.9414
   4995512.40648   3902291.35346  20982467.7974                   20982466.8054
   1011781.69947    803885.72446  21398696.9144                   21398694.1334
  -6209717.61347  -4835946.30744  23243330.4384                   23243329.7344
  12599877.55947   9815427.97644  22631747.9534                   22631747.3484
  -7901949.41447  -6154548.45344  22977100.5704                   22977099.8954
 -10012386.60947  -7800101.58544  22367533.8204                   22367533.3094
 11  8 16 17 33 30.0000000  0  9G03G07G10G13G19G28G23G11G08
  11387856.94146   8873493.26144  23093054.6174                   23093055.5944
  -7233705.37547  -5633754.90146  20918385.8204                   20918383.7544
   6137107.91046   4780083.15743  24975214.7194                   24975217.5514
   4991392.32448   3899080.84446  20981683.8364                   20981682.7304
    984933.96147    782965.39046  21393588.1484                   21393585.3014
  -6330334.21147  -4929933.22744  23220378.5944                   23220377.6094
  12630839.73447   9839554.18744  22637640.3754                   22637639.2504
  -8048883.59847  -6269042.53844  22949140.0864                   22949139.0434
 -10159208.47347  -7914508.24144  22339594.5314                   22339594.2974
 11  8 16 17 34  0.0000000  0  9G03G07G10G13G19G28G23G11G08
  11413411.14146   8893405.56843  23097917.8364                   23097917.8874
  -7349577.92647  -5724045.19446  20896335.8284                   20896334.0944
   6118234.92246   4765376.82543  24971623.1564                   24971626.2584
   4987705.00848   3896207.55745  20980982.2974                   20980980.9344
    958587.24247    762435.45746  21388574.4384                   21388571.0044
  -6450800.10947  -5023802.72244  23197453.6724                   23197453.3484
  12661981.09847   9863819.99344  22643566.2034                   22643565.5864
  -8195656.96946  -6383411.34344  22921209.9304                   22921209.8634
 -10306045.42647  -8028926.64444  22311652.3984                   22311651.5514
 11  8 16 17 34 30.0000000  0  9G03G24G07G13G19G28G23G11G08
  11439158.77046   8913468.53644  23102816.8204                   23102817.4184
  10731370.87955   8392951.43452  24391247.5864                   24391251.7504
  -7465291.22347  -5814211.40346  20874316.1804                   20874314.8204
   4984438.78548   3893662.39045  20980360.7894                   20980359.8984
    932730.29347    742287.16645  21383654.5084                   21383651.1414
  -6571125.26647  -5117562.55044  23174556.5944                   23174557.3554
  12693289.08647   9888215.65244  22649524.4064                   22649522.9414
  -8342275.32047  -6497659.37744  22893309.5234                   22893309.0514
 -10452905.66447  -8143363.18344  22283706.0944                   22283705.5514
 11  8 16 17 35  0.0000000  0  9G03G24G07G13G19G28G23G11G08
  11465089.89147   8933674.56644  23107751.3754                   23107752.8874
  10583301.51646   8277572.79342  24363070.9844                   24363075.6724
  -7580849.88347  -5904257.11146  20852326.1484                   20852324.5354
   4981584.82048   3891438.47046  20979817.8054                   20979816.3634
    907354.67247    722513.93546  21378825.2034                   21378822.5084
  -6691316.89547  -5211218.31044  23151684.9844                   23151685.2734
  12724754.31347   9912733.84144  22655511.8594                   22655511.2584
  -8488742.48046  -6611789.54344  22865437.2734                   22865436.9104
 -10599794.10947  -8257821.68244  22255753.7274                   22255753.3054
 11  8 16 17 35 30.0000000  0  9G03G24G07G13G19G28G23G11G08
  11491205.83647   8954024.61644  23112720.9064                   23112722.0084
  10435114.23045   8162102.30942  24334871.8524                   24334876.0744
  -7696247.37947  -5994177.24146  20830366.7034                   20830364.9264
   4979145.07447   3889537.30346  20979353.2894                   20979352.5554
    882462.54747    703117.44745  21374088.5234                   21374085.4184
  -6811371.60247  -5304767.38744  23128839.5084                   23128839.7854
  12756378.10247   9937375.56644  22661530.0164                   22661528.8134
  -8635051.07446  -6725796.20344  22837595.7274                   22837595.1844
 -10746704.92647  -8372297.62844  22227797.4384                   22227797.2584
 11  8 16 17 36  0.0000000  0  9G03G24G07G13G19G28G23G11G08
  11517515.62547   8974525.66644  23117727.8524                   23117728.3134
  10286823.51245   8046551.16042  24306652.9064                   24306657.6334
  -7811470.44547  -6083961.46546  20808440.7034                   20808439.0394
   4977128.93848   3887966.23645  20978970.0004                   20978968.8204
    858063.72747    684105.35146  21369445.4614                   21369442.7854
  -6931278.68047  -5398201.46244  23106022.4304                   23106022.0554
  12788169.30547   9962147.75944  22667580.2894                   22667578.7154
  -8781186.64146  -6839668.02644  22809786.9534                   22809786.1174
 -10893625.28146  -8486781.01944  22199839.5704                   22199839.1094
 11  8 16 17 36 30.0000000  0  9G03G24G07G13G19G28G23G11G08
  11544026.47347   8995183.41444  23122773.0944                   23122773.3714
  10138442.24645   7930929.47742  24278416.3594                   24278420.8484
  -7926507.30147  -6173600.57346  20786549.5394                   20786548.1564
   4975543.96147   3886731.13845  20978668.4224                   20978667.5394
    834166.10547    665483.79346  21364898.2584                   21364895.4064
  -7051028.52347  -5491512.99944  23083234.4064                   23083234.5314
  12820134.83647   9987055.79944  22673663.0234                   22673661.4804
  -8927136.04746  -6953394.80144  22782013.6174                   22782013.0084
 -11040543.61746  -8601262.82545  22171881.9534                   22171881.1604
 11  8 16 17 37  0.0000000  0  9G03G24G07G13G19G28G23G11G08
  11570726.66447   9015988.67643  23127854.1334                   23127854.0514
   9989964.26646   7815232.48842  24250163.2664                   24250167.4924
  -8041364.70347  -6263099.85646  20764693.1174                   20764691.9144
   4974379.06348   3885823.35345  20978446.4844                   20978445.7114
    810759.18447    647244.61846  21360443.9534                   21360440.9184
  -7170630.46947  -5584709.28244  23060474.8754                   23060474.6134
  12852263.34047  10012090.78944  22679776.7504                   22679776.1994
  -9072904.73447  -7066980.72244  22754274.8444                   22754274.4414
 -11187466.91847  -8715748.51745  22143923.8134                   22143922.8834
 11  8 16 17 37 30.0000000  0  9G03G24G07G13G19G28G23G11G08
  11597614.34847   9036939.99844  23132970.8284                   23132970.8674
   9841393.14846   7699462.89643  24221891.4064                   24221895.4024
  -8156040.37947  -6352457.53746  20742871.2034                   20742869.5354
   4973632.55147   3885241.60645  20978304.6334                   20978303.8324
    787841.21947    629386.42445  21356082.7504                   21356080.0784
  -7290084.59447  -5677790.40044  23037743.2664                   23037743.0004
  12884552.08647  10037250.67944  22685920.9614                   22685920.1414
  -9218489.13347  -7180423.07844  22726571.3364                   22726570.8794
 -11334392.98847  -8830236.34745  22115964.4844                   22115964.1724
 11  8 16 17 38  0.0000000  0  9G03G24G07G13G19G28G23G11G08
  11624687.35246   9058035.77343  23138122.0394                   23138122.6024
   9692732.53146   7583623.57643  24193601.3054                   24193606.7584
  -8270531.26247  -6441671.20746  20721084.0004                   20721082.3404
   4973302.89147   3884984.66045  20978242.0004                   20978240.7734
    765411.11347    611908.37246  21351814.6564                   21351811.5904
  -7409390.81247  -5770756.26044  23015039.7894                   23015040.6414
  12916999.24647  10062533.99644  22692095.2814                   22692094.9884
  -9363885.07447  -7293718.57144  22698903.0634                   22698902.9534
 -11481319.83247  -8944724.76545  22088005.0634                   22088004.6844
 11  8 16 17 38 30.0000000  0  9G03G24G07G13G19G28G23G11G08
  11651939.52046   9079271.11043  23143308.2894                   23143308.8554
   9543982.22345   7467714.32442  24165293.7974                   24165299.9224
  -8384838.85547  -6530742.07846  20699332.2034                   20699330.6334
   4973384.93047   3885048.52145  20978257.0864                   20978256.7504
    743463.71547    594806.47045  21347638.4064                   21347635.1914
  -7528552.77347  -5863609.68444  22992364.0234                   22992364.8834
  12949599.15647  10087936.33144  22698299.4534                   22698298.4024
  -9509092.85547  -7406867.44744  22671270.5554                   22671270.8714
 -11628249.06647  -9059215.09845  22060045.5004                   22060044.5354
 11  8 16 17 39  0.0000000  0  9G03G24G07G13G19G28G23G11G08
  11679376.03546   9100650.13143  23148530.0634                   23148529.7424
   9395152.71945   7351743.39843  24136974.0084                   24136977.9774
  -8498953.73447  -6619662.76946  20677616.8914                   20677615.4384
   4973883.61347   3885437.04845  20978352.2814                   20978351.5704
    722004.94547    578085.31946  21343554.6094                   21343551.4534
  -7647563.66047  -5956345.40844  22969717.4384                   22969717.2154
  12982356.57046  10113461.41344  22704533.2274                   22704532.2034
  -9654101.76647  -7519861.37844  22643676.5314                   22643676.0234
 -11775171.27347  -9173699.91045  22032087.1564                   22032086.8014
 11  8 16 17 39 30.0000000  0  9G03G24G07G13G19G28G23G11G08
  11706994.90246   9122171.26843  23153785.2894                   23153786.1564
   9246247.67246   7235713.63243  24108637.7894                   24108641.8834
  -8612872.74247  -6708430.83446  20655938.7114                   20655937.3954
   4974797.53947   3886149.13545  20978526.5864                   20978525.8594
    701033.72347    561744.06646  21339564.1804                   21339560.9144
  -7766423.20347  -6048963.16244  22947099.2894                   22947098.6484
  13015269.49246  10139107.66244  22710796.3524                   22710795.9304
  -9798907.80947  -7632697.22244  22616121.2194                   22616119.9964
 -11922083.60247  -9288177.02945  22004130.7034                   22004129.7034
 11  8 16 17 40  0.0000000  0  9G03G24G07G13G19G28G23G11G08
  11734798.84847   9143836.59843  23159076.2114                   23159077.2304
   9097275.09846   7119631.23143  24080290.2894                   24080293.6454
  -8726589.07847  -6797040.97046  20634299.1564                   20634297.7774
   4976129.30947   3887186.80645  20978779.9534                   20978779.0944
    680552.52347    545784.66446  21335666.6954                   21335664.2074
  -7885127.12147  -6141459.70944  22924510.5634                   22924509.5554
  13048339.95347  10164876.67744  22717089.7734                   22717089.3794
  -9943502.93447  -7745368.72244  22588605.3594                   22588604.3484
 -12068979.58247  -9402641.43045  21976177.2974                   21976176.6524
 11  8 16 17 40 30.0000000  0  9G03G24G07G13G19G28G23G11G08
  11762782.83247   9165642.18143  23164401.7664                   23164401.7304
   8948235.96546   7003496.89143  24051928.0314                   24051932.5044
  -8840102.53147  -6885493.03946  20612698.5084                   20612697.0664
   4977874.83647   3888546.89145  20979112.3054                   20979111.3134
    660557.59847    530204.15645  21331861.6414                   21331858.9184
  -8003677.76247  -6233836.82144  22901950.9224                   22901950.0004
  13081563.06347  10190764.59844  22723411.8914                   22723411.6994
 -10087885.53147  -7857874.63344  22561130.3524                   22561130.1214
 -12215859.64547  -9517093.41445  21948226.7274                   21948226.0274
 11  8 16 17 41  0.0000000  0  9G03G24G07G13G19G28G23G11G08
  11790942.31347   9187584.59744  23169760.3674                   23169761.2544
   8799132.09346   6887312.20243  24023554.1564                   24023558.6604
  -8953412.27347  -6973786.33446  20591136.2664                   20591134.7154
   4980030.32047   3890226.42245  20979522.3834                   20979521.7154
    641045.86747    515000.17945  21328148.7424                   21328145.9454
  -8122077.10947  -6326096.00444  22879420.2504                   22879420.0084
  13114934.60247  10216768.20744  22729762.9614                   22729762.0984
 -10232053.82047  -7970213.52744  22533695.8984                   22533695.5354
 -12362723.10247  -9631532.45545  21920279.8444                   21920278.6844
 11  8 16 17 41 30.0000000  0  9G03G24G07G13G19G28G23G11G08
  13394691.62947  10437259.28543  23474943.8054                   23474943.8754
  10225388.31346   7998680.79143  24294961.6644                   24294965.7154
  -7491095.64847  -5834318.83746  20869405.8054                   20869404.1914
   6558010.73047   5119821.47045  21279802.1254                   21279801.2934
   2197432.59447   1727769.01145  21624319.3134                   21624316.6914
  -6664904.77747  -5190636.97244  23156710.9614                   23156710.8714
  14723868.27347  11470482.53644  23035932.2894                   23035932.1024
  -8800582.74646  -6854781.51044  22806094.9304                   22806095.1724
 -10934146.25847  -8518355.68645  22192128.9774                   22192128.2664
 11  8 16 17 42  0.0000000  0  9G03G24G07G13G19G28G23G11G08
  13423191.82847  10459467.18543  23480367.0784                   23480366.9734
  10076159.41846   7882398.61443  24266564.4774                   24266567.5514
  -7603996.62547  -5922293.64546  20847921.4694                   20847919.7034
   6560975.28147   5122131.43945  21280366.3364                   21280365.6844
   2178876.41047   1713309.61445  21620787.6954                   21620785.0314
  -6783007.69147  -5282665.16644  23134236.9694                   23134236.3284
  14757525.32447  11496708.62244  23042337.8444                   23042336.9384
  -8944317.12146  -6966782.28144  22778743.9144                   22778743.2624
 -11080975.77047  -8632768.29245  22164188.3834                   22164187.9024
 11  8 16 17 42 30.0000000  0  9G03G24G07G13G19G28G23G11G08
  13451858.41446  10481804.72443  23485822.4534                   23485822.5354
   9926873.11746   7766071.78143  24238156.2974                   24238158.8834
  -7716689.66047  -6010106.39846  20826477.0394                   20826475.0904
   6564341.08247   5124754.07745  21281006.9454                   21281006.2504
   2160795.63347   1699220.66246  21617347.5864                   21617344.6174
  -6900962.73847  -5374578.15344  23111789.8594                   23111790.0984
  14791321.28946  11523042.92844  23048768.7194                   23048768.5394
  -9087829.31647  -7078609.93844  22751434.6644                   22751433.3204
 -11227784.82447  -8747164.93045  22136251.4924                   22136251.3164
 11  8 16 17 43  0.0000000  0  9G03G24G07G13G19G28G23G11G08
  13480684.82846  10504266.80543  23491307.9694                   23491307.8484
   9777528.20346   7649699.24143  24209736.1724                   24209740.8134
  -7829176.85948  -6097758.77346  20805071.1724                   20805069.5554
   6568101.74247   5127684.40445  21281722.6564                   21281722.0004
   2143184.04347   1685497.29945  21613996.2194                   21613993.5784
  -7018774.64147  -5466379.59944  23089371.2894                   23089370.8554
  14825248.93047  11549479.83344  23055224.9924                   23055225.0274
  -9231120.32847  -7190265.22844  22724167.2344                   22724167.1844
 -11374575.89147  -8861547.57045  22108317.7814                   22108316.8754
 11  8 16 17 43 30.0000000  0  9G03G24G07G13G19G28G23G11G08
  13509663.77346  10526847.67043  23496822.0634                   23496822.9304
   9628123.29346   7533279.90243  24181306.0164                   24181309.5904
  -7941460.43747  -6185252.48046  20783704.3914                   20783702.8364
   6572250.35547   5130917.00645  21282512.1254                   21282511.4774
   2126034.79747   1672134.21646  21610733.1254                   21610730.3324
  -7136448.68447  -5558073.64844  23066978.8054                   23066978.0784
  14859301.44147  11576014.04744  23061705.3524                   23061705.3054
  -9374191.17246  -7301748.98644  22696941.3754                   22696941.1764
 -11521351.87147  -8975918.46145  22080387.4304                   22080386.4414
 11  8 16 17 44  0.0000000  0  9G03G24G07G13G19G28G23G11G08
  13538795.30146  10549547.49043  23502366.1804                   23502367.0514
   9478663.58646   7416817.94343  24152864.2894                   24152869.3404
  -8053536.19147  -6272584.26746  20762377.1094                   20762375.2934
   6576786.81647   5134451.84845  21283375.7194                   21283374.4734
   2109348.63347   1659131.96645  21607557.7974                   21607554.9804
  -7253982.95747  -5649658.74544  23044612.7344                   23044612.1604
  14893478.53947  11602645.34144  23068209.1414                   23068209.1604
  -9517036.64547  -7413057.10244  22669759.1334                   22669758.2974
 -11668108.73447  -9090274.46445  22052461.1334                   22052459.7154
 11  8 16 17 44 30.0000000  0  9G03G24G07G13G19G28G23G11G08
  13568072.76246  10572361.00543  23507936.9144                   23507938.6094
   9329148.63346   7300312.85843  24124411.7734                   24124416.9344
  -8165405.91048  -6359755.46646  20741088.9454                   20741087.3164
   6581705.28947   5138284.35545  21284311.6334                   21284310.8914
   2093119.60947   1646485.95045  21604469.5634                   21604466.8364
  -7371381.75047  -5741138.30244  23022272.8364                   23022271.8524
  14927773.56347  11629368.51744  23074735.8834                   23074735.3794
  -9659657.23047  -7524190.00044  22642619.3054                   22642618.3284
 -11814848.00047  -9204616.72945  22024536.6954                   22024536.0164
 11  8 16 17 45  0.0000000  0  9G03G24G07G13G19G28G23G11G08
  13597490.05946  10595283.47543  23513534.8204                   23513536.3244
   9179577.58246   7183764.13943  24095950.1804                   24095953.4654
  -8277071.00847  -6446767.25846  20719840.0084                   20719838.2664
   6586999.48447   5142409.62145  21285318.9224                   21285318.0314
   2077341.65247   1634191.37945  21601467.3284                   21601464.1524
  -7488649.34447  -5832515.63944  22999957.7814                   22999956.5744
  14962179.77346  11656178.39744  23081283.2274                   23081283.2384
  -9802053.33647  -7635147.97144  22615522.1564                   22615521.7074
 -11961571.53947  -9318946.76145  21996616.1484                   21996615.4064
 11  8 16 17 45 30.0000000  0  9G03G24G07G13G19G28G23G11G08
  13627041.21946  10618310.19443  23519158.6334                   23519160.0394
   9029949.91846   7067171.22943  24067476.3054                   24067480.3914
  -8388532.88747  -6533620.67446  20698629.3984                   20698627.4064
   6592663.52347   5146823.09745  21286396.8204                   21286396.0434
   2062009.15247   1622243.93945  21598549.4304                   21598546.6024
  -7605789.99247  -5923794.02544  22977666.2424                   22977665.5274
  14996691.04746  11683070.02543  23087850.4614                   23087850.1374
  -9944225.31247  -7745931.28444  22588467.6644                   22588467.3444
 -12108281.12147  -9433265.89145  21968698.3444                   21968697.4614
 11  8 16 17 46  0.0000000  0  9G03G24G07G13G19G28G23G11G08
  13656720.72346  10641437.08643  23524806.7114                   23524807.7424
   8880266.48046   6950534.88443  24038992.2504                   24038997.0434
  -8499792.07847  -6620316.15646  20677457.5314                   20677455.7274
   6598692.29747   5151520.77445  21287544.2974                   21287543.0784
   2047117.67647   1610640.16145  21595715.8284                   21595712.9304
  -7722806.68447  -6014975.80644  22955398.6174                   22955397.6374
  15031302.25846  11710039.56944  23094436.6174                   23094436.2974
 -10086172.47747  -7856539.42144  22561456.0004                   22561455.8954
 -12254976.97347  -9547574.33645  21940783.2504                   21940782.5164
 11  8 16 17 46 30.0000000  0  9G03G24G07G13G19G28G23G11G08
  13686527.80146  10664663.24643  23530478.8674                   23530479.2734
   8730531.72346   6833858.54343  24010499.1484                   24010503.8834
  -8610845.04348  -6706850.95146  20656324.9924                   20656323.0204
   6605084.79747   5156501.87145  21288760.4774                   21288759.7894
   2032666.41847   1599379.41145  21592965.3284                   21592962.8444
  -7839698.81247  -6106060.56244  22933154.8054                   22933153.8244
  15066012.20346  11737086.06743  23101042.7504                   23101041.1564
 -10227890.20347  -7966968.78444  22534487.3444                   22534487.4454
 -12401656.39547  -9661869.97645  21912870.5554                   21912870.0124
 11  8 16 17 47  0.0000000  0  9G03G24G07G13G19G28G23G11G08
  13716456.43846  10687984.17643  23536174.2584                   23536175.0314
   8580745.41046   6717141.98842  23981995.6564                   23981998.6054
  -8721693.11747  -6793226.09446  20635231.2344                   20635229.5704
   6611835.33247   5161761.94945  21290045.2894                   21290044.4804
   2018649.81647   1588457.33045  21590298.6724                   21590295.5824
  -7956470.04347  -6197051.11244  22910933.9844                   22910933.2234
  15100814.61346  11764204.58744  23107665.3984                   23107664.5394
 -10369378.85947  -8077219.66644  22507563.1884                   22507563.0594
 -12548320.68447  -9776153.84945  21884961.5944                   21884960.8714
 11  8 16 17 47 30.0000000  0  9G03G24G07G13G19G28G23G11G08
  13746504.82446  10711398.40343  23541891.7504                   23541894.1644
   8430911.71946   6600388.51343  23953482.7974                   23953486.4304
  -8832333.17647  -6879439.13146  20614177.2344                   20614175.1724
   6618942.61747   5167300.02145  21291397.7344                   21291397.1724
   2005066.94947   1577873.23445  21587714.0314                   21587710.9614
  -8073120.26247  -6287947.35444  22888736.0164                   22888735.6174
  15135707.93047  11791393.93644  23114305.2274                   23114304.4694
 -10510633.95347  -8187288.52744  22480683.9924                   22480682.7894
 -12694966.77347  -9890423.50945  21857055.2504                   21857054.8364
 11  8 16 17 48  0.0000000  0  9G03G24G07G13G19G28G23G11G08
  13776661.02346  10734896.66043  23547630.5314                   23547632.1844
   8281023.97346   6483592.99642  23924960.6724                   23924963.9384
  -8942772.62547  -6965495.85946  20593161.2034                   20593159.6054
   6626394.44147   5173106.55445  21292816.1564                   21292815.1214
   1991905.80547   1567617.75645  21585209.0474                   21585206.4964
  -8189659.43447  -6378757.07444  22866559.3834                   22866558.3914
  15170679.88747  11818644.57444  23120960.5784                   23120960.2384
 -10651661.85547  -8297180.34244  22453846.6484                   22453846.0004
 -12841602.36347 -10004684.97945  21829151.6724                   21829151.3954
 11  8 16 17 48 30.0000000  0  9G03G24G07G13G19G28G23G11G08
  13806925.52746  10758479.30443  23553390.3134                   23553391.5084
   8131088.28946   6366760.03443  23896428.1804                   23896432.4384
  -9053006.55547  -7051392.44246  20572184.0554                   20572182.9494
   6634191.26247   5179181.93345  21294299.7194                   21294298.7704
   1979167.25847   1557691.57545  21582785.2344                   21582782.5004
  -8306085.44547  -6469478.58244  22844403.8284                   22844403.2344
  15205730.78146  11845956.74043  23127630.6094                   23127629.9144
 -10792456.74247  -8406890.59144  22427053.8834                   22427053.2074
 -12988222.60947 -10118934.50845  21801251.2734                   21801250.7154
 11  8 16 17 49  0.0000000  0  9G03G24G07G13G19G28G23G11G08
  13837297.91446  10782145.97343  23559169.8134                   23559171.6174
   7981109.76246   6249893.78343  23867887.6254                   23867892.9614
  -9163030.81247  -7137125.64246  20551247.1024                   20551245.7114
   6642332.63347   5185525.78345  21295848.5634                   21295848.1214
   1966851.23447   1548094.65245  21580441.4614                   21580438.8714
  -8422396.80547  -6560110.78144  22822270.7974                   22822270.6454
  15240859.59046  11873329.62144  23134315.8914                   23134315.1524
 -10933013.40647  -8516415.22844  22400307.5084                   22400306.5984
 -13134823.16047 -10233168.68445  21773353.7814                   21773352.5474
 11  8 16 17 49 30.0000000  0  9G03G24G07G13G19G28G23G11G08
  13867780.27346  10805898.45043  23564970.6564                   23564970.4774
   7831096.50846   6133000.40642  23839341.5004                   23839344.9654
  -9272838.52747  -7222690.10146  20530351.6954                   20530350.2774
   6650820.89547   5192139.93745  21297464.3674                   21297463.2584
   1954959.90647   1538828.63445  21578178.7734                   21578176.1954
  -8538589.17247  -6650650.26344  22800160.0554                   22800159.6254
  15276068.42246  11900764.83244  23141015.8524                   23141015.0554
 -11073323.77047  -8625747.93144  22373606.8204                   22373606.8594
 -13281397.69547 -10347382.58245  21745461.5314                   21745460.8634
 11  8 16 17 50  0.0000000  0  9G03G24G07G13G19G28G23G11G08
  13898373.43046  10829737.15643  23570792.7194                   23570793.7504
   7681054.87146   6016084.96243  23810789.4774                   23810793.1294
  -9382424.36747  -7308081.68546  20509498.3364                   20509496.7154
   6659656.60547   5199024.82245  21299146.0864                   21299145.2504
   1943494.54347   1529894.55545  21575996.8914                   21575994.4844
  -8654660.47347  -6741095.37844  22778072.7194                   22778071.7384
  15311357.96947  11928262.88644  23147731.5394                   23147730.8554
 -11213381.53946  -8734883.82444  22346954.4614                   22346954.3444
 -13427940.69947 -10461571.92145  21717575.0234                   21717574.3634
 11  8 16 17 50 30.0000000  0  9G03G24G07G13G19G28G23G11G08
  13929075.13346  10853660.48043  23576633.7974                   23576635.9064
   7530988.22746   5899149.98443  23782233.0474                   23782235.9884
  -9491785.84847  -7393298.44046  20488686.9774                   20488685.6844
   6668837.68047   5206178.82045  21300893.0474                   21300892.4694
   1932453.14847   1521290.81845  21573896.0084                   21573893.2774
  -8770610.62547  -6831446.12744  22756007.8444                   22756006.9884
  15346725.88747  11955822.07944  23154461.8204                   23154461.0944
 -11353183.12147  -8843820.08944  22320351.5944                   22320350.6414
 -13574449.89847 -10575734.92545  21689695.0864                   21689694.4694
 11  8 16 17 51  0.0000000  0  9G03G24G07G13G19G28G23G11G08
  13959893.19946  10877674.41543  23582498.6724                   23582500.0554
   7380909.92246   5782205.84443  23753673.9064                   23753676.6294
  -9600910.47747  -7478330.63146  20467921.6484                   20467920.1374
   6678371.71547   5213607.85545  21302707.4534                   21302707.0044
   1921843.69547   1513023.66045  21571876.9534                   21571874.2664
  -8886430.08247  -6921695.02644  22733967.9924                   22733966.8714
  15382179.52046  11983448.04843  23161208.5784                   23161208.5354
 -11492715.29747  -8952546.40944  22293799.1564                   22293798.3524
 -13720913.28547 -10689862.24445  21661824.2734                   21661823.9964
 11  8 16 17 51 30.0000000  0  9G03G24G07G13G19G28G23G11G08
  15566242.01246  12129374.70742  23888177.2344                   23888178.3204
   8806246.78946   6892858.08643  24024906.5634                   24024910.3634
  -8134374.52347  -6335575.35646  20746994.1954                   20746992.9024
   8263674.18447   6448908.40845  21604379.8754                   21604379.7544
   3487082.86347   2732690.51845  21869732.3444                   21869729.4964
  -7426697.41847  -5784240.95944  23011746.4224                   23011745.4494
  16993133.42646  13238736.53744  23467763.1884                   23467762.9454
 -10056551.67647  -7833457.84144  22567092.5394                   22567091.7424
 -12291905.24647  -9576349.47245  21933755.6884                   21933754.6484
 11  8 16 17 52  0.0000000  0  9G03G24G07G13G19G28G23G11G08
  15597283.12546  12153562.51743  23894084.1564                   23894085.5824
   8656153.52746   6775902.41443  23996345.1254                   23996348.8364
  -8243021.48047  -6420235.32646  20726319.3134                   20726317.8554
   8273905.00447   6456880.38145  21606326.9694                   21606326.8714
   3477329.09447   2725090.15445  21867875.9774                   21867873.6094
  -7542259.15647  -5874289.05044  22989755.4614                   22989755.1174
  17028748.80546  13266488.56044  23474540.6174                   23474540.8834
 -10195536.91047  -7941757.96444  22540643.8984                   22540643.7704
 -12438272.22347  -9690401.66945  21905903.0474                   21905902.1884
 11  8 16 17 52 30.0000000  0  9G03G24G07G13G19G28G23G11G08
  15628431.00846  12177833.52943  23900010.7814                   23900012.0984
   8506056.07846   6658943.40143  23967781.8914                   23967785.7504
  -8351427.78947  -6504707.77446  20705690.3524                   20705688.7934
   8284478.89547   6465119.68945  21608339.1564                   21608338.9494
   3467998.09847   2717819.22945  21866100.8134                   21866098.1334
  -7657694.24247  -5964238.40744  22967788.7034                   22967788.3554
  17064439.39146  13294299.15043  23481332.5704                   23481332.7894
 -10334245.61347  -8049842.67044  22514248.8834                   22514247.9924
 -12584589.55947  -9804415.16845  21878059.6414                   21878059.1884
 11  8 16 17 53  0.0000000  0  9G03G24G07G13G19G28G23G11G08
  15659686.00846  12202187.92443  23905959.2814                   23905960.2234
   8355960.65246   6541986.05943  23939219.7734                   23939223.1454
  -8459587.92647  -6588988.41846  20685108.2584                   20685106.6804
   8295396.38747   6473626.74545  21610417.0084                   21610416.5164
   3459091.09047   2710878.67745  21864405.4614                   21864403.2344
  -7773000.27347  -6054087.24244  22945847.2274                   22945846.5434
  17100206.12146  13322169.06543  23488137.8134                   23488139.9614
 -10472671.25847  -8157706.76244  22487907.5314                   22487906.8754
 -12730851.75447  -9918385.69545  21850227.0314                   21850226.2154
 11  8 16 17 53 30.0000000  0  9G03G24G07G13G19G28G23G11G08
  15691051.05546  12226628.05443  23911927.7584                   23911927.9694
   8205875.80946   6425036.91543  23910658.7344                   23910662.6174
  -8567494.77047  -6673071.70446  20664574.3364                   20664573.0434
   8306660.66447   6482404.01345  21612560.6414                   21612560.4454
   3450610.92647   2704270.71145  21862791.9454                   21862789.4804
  -7888172.41847  -6143831.76144  22923930.2504                   22923929.5784
  17136051.60546  13350100.32743  23494960.3134                   23494961.1094
 -10610805.28147  -8265343.63944  22461620.8134                   22461620.0274
 -12877051.40247 -10032307.49745  21822406.0474                   21822405.3404
 11  8 16 17 54  0.0000000  0  9G03G24G07G13G19G28G23G11G08
  15722510.65246  12251141.93043  23917914.2194                   23917915.1484
   8055791.59846   6308088.33743  23882099.2274                   23882103.0084
  -8675158.97747  -6756965.90146  20644086.2584                   20644084.7854
   8318255.85947   6491439.13045  21614767.2194                   21614766.6214
   3442542.21147   2697983.37145  21861256.6254                   21861253.9804
  -8003224.64547  -6233482.80544  22902037.1724                   22902035.8554
  17171959.94546  13378080.57943  23501793.4534                   23501794.2504
 -10748657.73447  -8372761.11444  22435388.6884                   22435388.1294
 -13023199.04347 -10146188.76545  21794594.8594                   21794594.3404
 11  8 16 17 54 30.0000000  0  9G03G24G07G13G19G28G23G11G08
  15754061.87146  12275727.26943  23923918.6484                   23923919.8244
   7905710.89846   6191142.44743  23853539.1414                   23853544.4534
  -8782578.97347  -6840669.81646  20623644.7114                   20623643.6644
   8330178.60947   6500729.49745  21617035.9774                   21617035.4304
   3434882.37147   2692014.62445  21859798.8444                   21859796.2544
  -8118157.93747  -6323041.20944  22880165.2734                   22880164.6994
  17207927.94546  13406107.31343  23508638.1884                   23508638.9064
 -10886226.22747  -8479957.32044  22409210.3054                   22409209.4494
 -13169293.59047 -10260028.65245  21766794.4844                   21766793.6454
 11  8 16 17 55  0.0000000  0  9G03G24G07G13G19G28G23G11G08
  15785711.76246  12300389.39643  23929942.4774                   23929943.1644
   7755646.12146   6074208.99743  23824983.1724                   23824987.1054
  -8889743.37147  -6924174.55746  20603252.2664                   20603250.5704
   8342435.94947   6510280.56645  21619368.3204                   21619368.3674
   3427638.09447   2686369.72145  21858420.5944                   21858417.9924
  -8232963.53947  -6412500.09944  22858318.6564                   22858317.6884
  17243962.40646  13434185.84043  23515496.0704                   23515497.0274
 -11023498.02747  -8586922.29644  22383088.0314                   22383087.5164
 -13315323.96947 -10373818.55445  21739005.7894                   21739005.1684
 11  8 16 17 55 30.0000000  0  9G03G24G07G13G19G28G23G11G08
  15817446.79746  12325117.91743  23935980.2664                   23935982.1094
   7605589.65646   5957282.01043  23796428.5704                   23796432.0784
  -8996660.80147  -7007486.84446  20582906.3134                   20582904.9924
   8355014.54347   6520081.96845  21621762.2894                   21621762.0594
   3420796.31347   2681038.42645  21857118.6484                   21857115.6414
  -8347653.22347  -6501868.67244  22836493.8984                   22836493.1334
  17280049.45746  13462305.31343  23522363.0704                   23522364.6334
 -11160480.85547  -8693662.16544  22357021.2664                   22357020.5084
 -13461298.80547 -10487565.17345  21711227.5164                   21711226.6054
 11  8 16 17 56  0.0000000  0  9G03G24G07G13G19G28G23G11G08
  15849261.04346  12349908.07443  23942035.8914                   23942036.3954
   7455541.11746   5840361.16543  23767874.6094                   23767878.1604
  -9103333.06647  -7090608.10246  20562607.3594                   20562606.1174
   8367907.78947   6530128.58445  21624215.9454                   21624215.7624
   3414350.79347   2676015.90545  21855892.2584                   21855889.2894
  -8462231.26247  -6591150.23744  22814690.4774                   22814689.5314
  17316182.76246  13490460.87643  23529239.1884                   23529240.7974
 -11297175.36747  -8800177.34344  22331009.3674                   22331008.1994
 -13607219.45747 -10601269.58545  21683460.0314                   21683458.9144
 11  8 16 17 56 30.0000000  0  9G03G24G07G13G19G28G23G11G08
  15881154.55546  12374760.10443  23948104.1024                   23948104.9144
   7305506.15246   5723450.98943  23739323.7584                   23739327.4384
  -9209755.42647  -7173534.63046  20542355.8134                   20542354.5394
   8381115.78547   6540420.42845  21626728.9304                   21626729.0664
   3408301.98447   2671302.50545  21854740.7734                   21854738.6254
  -8576695.55947  -6680343.19544  22792907.9614                   22792907.3324
  17352362.51646  13518652.60343  23536124.5944                   23536126.1214
 -11433576.01247  -8906463.54444  22305052.6724                   22305052.2774
 -13753081.23447 -10714928.07845  21655702.7194                   21655702.7664
 11  8 16 17 57  0.0000000  0  9G03G24G07G13G19G28G23G11G08
  15913122.24646  12399669.92643  23954186.5394                   23954187.0744
   7155485.35546   5606551.71043  23710776.0164                   23710779.2814
  -9315928.51647  -7256266.90746  20522151.6724                   20522150.3404
   8394633.29747   6550953.45645  21629301.6334                   21629301.3364
   3402644.73447   2666894.23645  21853664.3834                   21853661.5744
  -8691049.42247  -6769450.08244  22771147.3524                   22771146.5514
  17388583.24247  13546876.25043  23543017.2584                   23543019.2664
 -11569682.37147  -9012520.41144  22279152.7034                   22279152.3594
 -13898884.60247 -10828541.08945  21627956.7504                   21627957.0704
 11  8 16 17 57 30.0000000  0  9G03G24G07G13G19G28G23G11G08
  15945156.43846  12424631.44142  23960282.9454                   23960283.8674
   7005476.60946   5489661.97643  23682230.3204                   23682233.5944
  -9421855.41447  -7338807.35646  20501994.2974                   20501993.2814
   8408451.96947   6561721.17245  21631931.2504                   21631930.8874
   3397371.07047   2662784.85045  21852660.8444                   21852658.1804
  -8805299.02747  -6858475.72844  22749406.4064                   22749405.4884
  17424837.07447  13575125.67243  23549916.4384                   23549918.5904
 -11705496.83647  -9118349.84344  22253308.2734                   22253307.6564
 -14044632.88747 -10942111.17245  21600222.3594                   21600221.9264
 11  8 16 17 58  0.0000000  0  9G03G24G07G13G19G28G23G11G08
  15977260.61346  12449647.60542  23966392.4144                   23966393.1484
   6855489.22746   5372788.74643  23653688.6564                   23653691.5634
  -9527528.27347  -7421149.85746  20481885.5004                   20481884.1484
   8422574.94147   6572725.97245  21634618.5784                   21634618.6414
   3392484.90647   2658977.41445  21851731.1954                   21851728.1564
  -8919439.16847  -6947416.08044  22727686.4534                   22727685.6334
  17461126.95746  13603403.22743  23556821.5784                   23556824.5354
 -11841010.48447  -9223944.88644  22227520.8054                   22227520.1054
 -14190317.90247 -11055631.95045  21572499.5784                   21572498.9964
 11  8 16 17 58 30.0000000  0  9G03G24G07G13G19G28G23G11G08
  16009425.95846  12474711.41442  23972514.3364                   23972514.1914
   6705520.21546   5255929.93643  23625150.3914                   23625153.5864
  -9632951.10947  -7503297.53146  20461824.3674                   20461823.0274
   8436993.89147   6583961.40845  21637363.0394                   21637362.8794
   3387977.46947   2655465.09645  21850873.4694                   21850870.5904
  -9033476.71147  -7036276.48845  22705986.0314                   22705985.2114
  17497444.10546  13631701.98543  23563733.0084                   23563735.3134
 -11976226.10947  -9329307.68944  22201789.7114                   22201789.3014
 -14335943.72347 -11169106.62545  21544788.0784                   21544787.3094
 11  8 16 17 59  0.0000000  0  9G03G24G07G13G19G28G23G11G08
  16041649.25846  12499820.33242  23978644.6094                   23978645.5864
   6555571.60546   5139086.92243  23596615.6484                   23596619.6374
  -9738122.80147  -7585249.51046  20441811.2894                   20441809.6484
   8451704.91847   6595424.44145  21640162.3914                   21640162.2934
   3383845.08247   2652245.03145  21850086.6644                   21850084.3954
  -9147413.26647  -7125058.17844  22684304.8054                   22684303.8244
  17533784.84046  13660019.11443  23570648.9694                   23570650.6024
 -12111141.73047  -9434436.73444  22176116.2894                   22176115.8674
 -14481509.37547 -11282534.38345  21517087.8444                   21517087.1214
 11  8 16 17 59 30.0000000  0  9G03G24G07G13G19G28G23G11G08
  16073928.12546  12524972.56342  23984787.7114                   23984788.4384
   6405646.34446   5022262.14343  23568085.3524                   23568089.2774
  -9843041.65647  -7667004.49146  20421846.3134                   20421844.2384
   8466704.90247   6607112.63445  21643016.9384                   21643016.5314
   3380085.20747   2649315.21845  21849371.5554                   21849368.6994
  -9261249.89847  -7213762.06144  22662642.0554                   22662641.0514
  17570146.17646  13688352.30543  23577568.2114                   23577570.3954
 -12245754.99647  -9539330.18144  22150500.5554                   22150499.9064
 -14627012.71147 -11395913.60545  21489399.2344                   21489398.5744
 11  8 16 18  0  0.0000000  0  9G03G24G07G13G19G28G23G11G08
  16106259.15646  12550165.53542  23990940.8914                   23990939.9614
   6255746.94546   4905457.54743  23539561.5084                   23539563.9534
  -9947706.33247  -7748561.40546  20401929.0634                   20401927.3054
   8481990.37947   6619023.27845  21645926.2344                   21645925.4494
   3376694.76647   2646673.28145  21848726.3834                   21848723.5514
  -9374987.87147  -7302389.02244  22640998.7274                   22640997.5434
  17606524.94946  13716699.09343  23584490.9774                   23584493.6024
 -12380063.34047  -9643986.02544  22124942.4454                   22124941.7304
 -14772452.37147 -11509243.20145  21461723.3284                   21461722.7894
 11  8 16 18  0 30.0000000  0  9G03G24G07G13G19G28G23G11G08
  16138634.44546  12575392.89842  23997100.9614                   23997100.9224
   6105871.41046   4788671.47343  23511040.8364                   23511044.3594
 -10052120.17648  -7829922.85346  20382059.4384                   20382058.0084
   8497553.48847   6631150.27645  21648887.3984                   21648887.3404
   3373665.84447   2644313.04445  21848150.0784                   21848147.1414
  -9488633.65647  -7390944.15144  22619371.7894                   22619371.2114
  17642913.00446  13745053.12543  23591416.2814                   23591418.1764
 -12514069.43747  -9748406.33644  22099441.9064                   22099441.2304
 -14917831.60247 -11622525.69845  21434057.9534                   21434057.7464
 11  8 16 18  1  0.0000000  0  9G03G24G07G13G19G28G23G11G08
  16171052.53546  12600653.62542  24003270.2814                   24003270.2194
   5956023.68446   4671907.07543  23482525.3054                   23482528.8754
 -10156280.09047  -7911086.45646  20362238.7734                   20362236.9924
   8513391.85947   6643491.74545  21651901.2424                   21651901.1334
   3370996.92647   2642233.33145  21847642.0554                   21847639.5164
  -9602186.83247  -7479427.13045  22597763.6174                   22597763.5124
  17679308.20746  13773412.73043  23598341.7504                   23598344.3484
 -12647769.57847  -9852588.28044  22073999.4064                   22073999.1094
 -15063147.23847 -11735758.65745  21406405.0864                   21406404.6134
 11  8 16 18  1 30.0000000  0  9G03G24G07G13G19G28G23G11G08
  16203517.69146  12625951.06342  24009447.8914                   24009448.8164
   5806213.40646   4555171.88643  23454018.0234                   23454020.6134
 -10260177.64847  -7992045.59746  20342467.4064                   20342465.8204
   8529509.37947   6656050.76445  21654968.3524                   21654968.3404
   3368691.22347   2640436.63045  21847203.6484                   21847200.8674
  -9715641.52747  -7567833.36544  22576174.2034                   22576173.3484
  17715714.67246  13801781.04743  23605270.3444                   23605272.1914
 -12781154.11747  -9956524.25844  22048617.3524                   22048616.5554
 -15208390.93047 -11848935.54345  21378766.3914                   21378765.8674
 11  8 16 18  2  0.0000000  0  8G24G07G13G19G28G23G11G08
   7231856.18446   5666062.41043  23725309.1254                   23725310.5514
  -8788399.90647  -6845205.81646  20622537.7974                   20622536.1024
  10121310.64547   7896415.26145  21957878.3524                   21957878.1684
   4942154.68847   3866512.03345  22146624.0554                   22146620.9064
  -8253587.53547  -6428570.47244  22854393.6484   22854393.1174   19327535.76246
  15057745.12643                  23911988.7664                   23911992.2304
 -11338808.04347  -8832618.22044  22323086.3594                   22323085.9454
 -13778147.99247 -10734460.53145  21650933.0944                   21650932.2194
 11  8 16 18  2 30.0000000  0  8G24G07G13G19G28G23G11G08
   7082110.53546   5549377.58743  23696812.5084                   23696815.6804
  -8891786.60247  -6925766.90746  20602863.6174                   20602862.1954
  10137958.77347   7909387.73845  21961046.3674                   21961046.1524
   4940549.55547   3865261.22845  22146318.0084                   22146315.3404
  -8366868.12947  -6516841.04744  22832836.9304   22832836.3834   19363936.37546
  15086108.94243                  23918917.1724                   23918919.1764
 -11471572.13747  -8936070.75844  22297821.6254                   22297821.6524
 -13923260.86347 -10847535.48245  21623319.0634                   21623318.2584
 11  8 16 18  3  0.0000000  0  8G24G07G13G19G28G23G11G08
   6932420.19946   5432735.83043  23668326.7814                   23668329.8204
  -8994897.10547  -7006112.75446  20583242.5084                   20583240.9694
  10154886.02747   7922577.67945  21964268.2034                   21964268.1564
   4939308.58247   3864294.19045  22146082.1644                   22146079.1094
  -8480044.51247  -6605030.43245  22811300.3984   22811299.6254   19400348.22346
  15114481.44643                  23925845.9384                   23925848.1134
 -11604003.76247  -9039264.22944  22272621.5004                   22272620.8244
 -14068286.91847 -10960542.79345  21595721.1414                   21595720.4924
 11  8 16 18  3 30.0000000  0  8G24G07G13G19G28G23G11G08
   6782788.16846   5316139.48543  23639853.4614                   23639856.6804
  -9097729.19147  -7086241.67646  20563674.2274                   20563672.9884
  10172089.07847   7935982.52845  21967540.9224                   21967541.3634
   4938428.92647   3863608.71145  22145914.5314                   22145912.1454
  -8593117.59847  -6693139.29345  22789783.5084   22789782.2384   19436768.19946
  15142860.31543                  23932776.5944                   23932778.5124
 -11736100.41447  -9142196.68644  22247483.9384                   22247484.1054
 -14213224.29347 -11073480.99845  21568140.9224                   21568140.0354
 11  8 16 18  4  0.0000000  0  8G24G07G13G19G28G23G11G08
   6633220.78546   5199593.52143  23611392.0004                   23611394.8094
  -9200277.73447  -7166149.64246  20544160.3674                   20544158.0744
  10189568.44947   7949602.68645  21970867.3914                   21970867.7274
   4937911.46947   3863205.44945  22145816.0394                   22145813.3244
  -8706085.01647  -6781165.82245  22768286.4144   22768285.4694   19473197.08246
  15171246.14143                  23939709.8524                   23939711.5234
 -11867855.98047  -9244863.37144  22222412.1724                   22222411.5394
 -14358067.57847 -11186345.88045  21540577.9614                   21540577.5204
 11  8 16 18  4 30.0000000  0  8G24G07G13G19G28G23G11G08
   6483713.82046   5083094.69543  23582941.7424                   23582944.0204
  -9302548.29747  -7245841.02446  20524698.6884                   20524697.1604
  10207313.94147   7963430.24245  21974244.6254                   21974244.9344
   4937745.98447   3863076.44745  22145784.0634                   22145782.1294
  -8818955.15247  -6869116.56645  22746807.8984   22746807.1684   19509624.71546
  15199630.95343                  23946641.2894                   23946644.1334
 -11999275.09847  -9347267.87444  22197404.0474                   22197403.0784
 -14502821.88747 -11299141.42045  21513031.8284                   21513031.0704
 11  8 16 18  5  0.0000000  0  8G24G07G13G19G28G23G11G08
   6334265.45746   4966641.53543  23554502.3524                   23554504.0164
  -9404543.54748  -7325317.86346  20505289.4064                   20505287.8134
  10225317.97747   7977459.21145  21977670.3984                   21977670.7544
   4937924.74247   3863215.68645  22145818.7664                   22145816.4024
  -8931733.52347  -6956995.79645  22725346.6804   22725346.1094   19546043.16046
  15228008.59543                  23953571.7424                   23953575.0744
 -12130359.53547  -9449411.56744  22172459.3984                   22172458.5434
 -14647490.05147 -11411869.86545  21485502.2504                   21485501.9844
 11  8 16 18  5 30.0000000  0  8G24G07G13G19G28G23G11G08
   6184874.78546   4850233.25643  23526073.5784                   23526075.5554
  -9506265.92247  -7404582.06146  20485932.4384                   20485931.0904
  10243573.17247   7991683.92145  21981144.8204                   21981144.8444
   4938441.62547   3863618.41345  22145917.4064                   22145914.4454
  -9044425.30947  -7044807.54244  22703902.0784   22703901.7504   19582445.65246
  15256373.86843                  23960499.0864                   23960501.7974
 -12261110.71947  -9551295.57744  22147578.5944                   22147577.4184
 -14792073.80947 -11524532.51845  21457989.3134                   21457988.3094
 11  8 16 18  6  0.0000000  0  8G24G07G13G19G28G23G11G08
   6035543.25046   4733871.10643  23497657.0394                   23497660.3554
  -9607715.30547  -7483633.54446  20466627.0234                   20466625.9884
  10262074.98447   8006100.78545  21984665.7814                   21984665.7234
   4939291.93047   3864280.94845  22146078.7974                   22146076.3284
  -9157032.99647  -7132553.76245  22682473.8364   22682472.9384   19618827.59446
  15284723.06343                  23967422.6414                   23967424.9104
 -12391527.75447  -9652919.23844  22122760.3444                   22122759.9804
 -14936572.90647 -11637129.23245  21430491.8674                   21430491.2154
 11  8 16 18  6 30.0000000  0  8G24G07G13G19G28G23G11G08
   5886271.35946   4617555.39643  23469251.5474                   23469254.6804
  -9708892.36347  -7562472.83846  20447373.9774                   20447372.2504
  10280817.94147   8020705.55145  21988232.3054                   21988232.5234
   4940470.43847   3865199.21645  22146303.4384                   22146300.4184
  -9269560.18447  -7220237.28945  22661060.4384   22661060.1454   19655183.77046
  15313052.20743                  23974341.5784                   23974343.6914
 -12521610.57047  -9754282.47045  22098006.5164                   22098005.9494
 -15080987.87947 -11749660.36045  21403010.6644                   21403009.4924
 11  8 16 18  7  0.0000000  0  8G24G07G13G19G28G23G11G08
   5737062.60946   4501288.91143  23440857.6884                   23440860.5434
  -9809794.67647  -7641098.02146  20428172.4694                   20428171.3164
  10299799.39547   8035496.17645  21991844.0704                   21991845.1844
   4941974.75047   3866371.35945  22146589.7734                   22146587.0044
  -9382006.92247  -7307858.11145  22639662.2974   22639661.3134   19691512.18846
  15341359.76243                  23981254.6884                   23981257.4734
 -12651355.78947  -9855382.62745  22073316.9614                   22073316.4804
 -15225315.82447 -11862123.69845  21375545.8134                   21375544.9454
 11  8 16 18  7 30.0000000  0  8G24G07G13G19G28G23G11G08
   5587918.90646   4385073.17943  23412476.0704                   23412478.8324
  -9910421.64547  -7719508.67046  20409024.1884                   20409022.5984
  10319015.11347   8050469.33045  21995501.0944                   21995501.6604
   4943800.54347   3867793.99945  22146937.1724                   22146934.5594
  -9494375.55947  -7395418.06644  22618279.6564   22618278.6994   19727808.44546
  15369642.15043                  23988162.8204                   23988164.4884
 -12780762.28947  -9956218.83545  22048692.0234                   22048691.1484
 -15369556.16847 -11974518.76845  21348097.9694                   21348097.4574
 11  8 16 18  8  0.0000000  0  9G17G24G07G13G19G28G23G11G08
  15387029.32456  11999572.53453  24570971.8984                   24570978.2704
   5438833.46146   4268902.81643  23384106.3754                   23384109.4384
 -10010781.08648  -7797710.86446  20389926.5084                   20389924.8204
  10338452.44547   8065615.16844  21999199.8444                   21999200.8484
   4945935.66047   3869457.69245  22147343.7664                   22147340.8914
  -9606676.89547  -7482925.59044  22596909.2814   22596908.4884   19764060.01246
  15397889.79043                  23995061.3674                   23995063.4224
 -12909837.34847 -10056796.81745  22024129.2274                   22024128.7544
 -15513716.48847 -12086851.47345  21320665.2114                   21320664.5664
 11  8 16 18  8 30.0000000  0  9G17G24G07G13G19G28G23G11G08
  15203968.16846  11856927.79943  24536136.2034                   24536143.5124
   5289786.85546   4152762.70343  23355743.5164                   23355747.0864
 -10110894.07847  -7875720.99346  20370875.6884                   20370874.0274
  10358085.91847   8080913.86244  22002936.2274                   22002936.9414
   4948354.66047   3871342.58545  22147803.6804                   22147801.5634
  -9718934.14547  -7570398.77644  22575547.3444   22575546.2894   19800241.61346
  15426082.87143                  24001946.0234                   24001948.8714
 -13038600.29347 -10157131.55045  21999626.7894                   21999626.4614
 -15657816.94547 -12199137.53745  21293244.0084                   21293243.2624
 11  8 16 18  9  0.0000000  0  9G17G24G07G13G19G28G23G11G08
  15020918.11346  11714291.70043  24501302.6024                   24501310.4574
   5140782.31646   4036655.37543  23327388.8204                   23327392.8634
 -10210758.42647  -7953537.40546  20351872.0234                   20351870.3134
  10377912.34047   8096362.88745  22006709.3054                   22006709.6414
   4951054.84447   3873446.56445  22148317.4614                   22148314.9224
  -9831148.22347  -7657838.30244  22554193.6024   22554192.9454   19836350.54746
  15454219.43643                  24008817.8594                   24008821.7114
 -13167048.87147 -10257221.33845  21975183.6414                   21975183.8014
 -15801855.64848 -12311375.47445  21265833.8984                   21265833.2854
 11  8 16 18  9 30.0000000  0  9G17G24G07G13G19G28G23G11G08
  14837881.04746  11571665.73043  24466471.8984                   24466479.3674
   4991822.94546   3920583.24143  23299042.8134                   23299046.3914
 -10310372.55547  -8031158.81546  20332915.8834                   20332914.4924
  10397928.79747   8111959.98945  22010518.5944                   22010519.2234
   4954033.77047   3875767.75745  22148884.2894                   22148881.9734
  -9943320.19147  -7745245.01644  22532848.4454   22532847.0084   19872383.87946
  15482296.98543                  24015675.0394                   24015678.8984
 -13295180.23447 -10357063.96344  21950801.5314                   21950800.4964
 -15945830.22747 -12423563.46645  21238436.4774                   21238435.8634
 11  8 16 18 10  0.0000000  0  9G17G24G07G13G19G28G23G11G08
  14654864.59846  11429055.78043  24431644.8054                   24431651.9924
   4842917.02046   3804552.70843  23270707.5634                   23270709.6994
 -10409729.01647  -8108579.45146  20314009.2734                   20314007.4384
  10418137.72747   8127707.07544  22014363.8134                   22014364.9774
   4957293.68047   3878307.91145  22149505.1334                   22149501.9734
 -10055445.53947  -7832615.39945  22511511.5084   22511510.3324   19908344.22746
  15510317.63443                  24022518.5004                   24022522.1334
 -13422986.71947 -10456653.40144  21926480.3204                   21926480.2504
 -16089733.36347 -12535695.76545  21211052.9304                   21211051.9844
 11  8 16 18 10 30.0000000  0  9G17G24G07G13G19G28G23G11G08
  14471873.53946  11286465.61143  24396822.5784                   24396830.0044
   4694070.72346   3688568.74943  23242383.0004                   23242386.0084
 -10508823.12147  -8185795.65846  20295152.2194                   20295150.6254
  10438538.84447   8143603.89544  22018246.2194                   22018246.9534
   4960834.85547   3881067.23245  22150178.7194                   22150176.4104
 -10167522.25847  -7919947.89544  22490183.9064   22490182.7424   19944231.79746
  15538281.58443                  24029347.8984                   24029351.3164
 -13550462.89847 -10555985.47545  21902222.6564                   21902221.8244
 -16233559.62147 -12647768.18845  21183683.6804                   21183682.6604
 11  8 16 18 11  0.0000000  0  9G17G24G07G13G19G28G23G11G08
  14288905.62546  11143893.53743  24362004.4454                   24362012.1134
   4545282.89546   3572630.27643  23214068.7584                   23214072.2734
 -10607657.50847  -8262809.48346  20276344.8364                   20276342.9964
  10459124.87547   8159644.82344  22022163.9774                   22022164.7424
   4964650.13347   3884040.12245  22150904.4384                   22150902.4844
 -10279555.95747  -8007246.88144  22468864.8594   22468863.1764   19980039.41046
  15566183.26543                  24036162.4384                   24036166.1564
 -13677610.34447 -10655061.40945  21878026.9844                   21878026.3594
 -16377311.14547 -12759782.34645  21156328.2894                   21156328.1174
 11  8 16 18 11 30.0000000  0  9G17G24G07G13G19G28G23G11G08
  14105969.03946  11001345.94543  24327192.6484                   24327199.5204
   4396562.73046   3456744.51843  23185769.1024                   23185772.3094
 -10706224.34448  -8339614.82546  20257587.6724                   20257586.4574
  10479898.91047   8175832.25044  22026117.1334                   22026117.4454
   4968742.60947   3887229.00445  22151684.0164                   22151681.7774
 -10391540.91847  -8094507.89044  22447554.6174   22447553.0744   20015770.52746
  15594025.37143                  24042961.6024                   24042965.2704
 -13804420.12547 -10753874.21745  21853895.8594                   21853895.7194
 -16520979.65247 -12871731.82345  21128988.9774                   21128989.0904
 11  8 16 18 12  0.0000000  0  9G17G24G07G13G19G28G23G11G08
  15498487.68846  12086425.69243  24592179.5084                   24592186.5274
   5823333.50046   4568514.05143  23457273.7734                   23457277.1414
  -9229102.82048  -7188611.07546  20538674.6954                   20538673.1054
  12076272.89147   9419759.88744  22329897.0474                   22329897.5594
   6548525.19147   5118228.36445  22452306.1484                   22452304.1414
  -8928058.76647  -6954132.19345  22726045.9844   22726045.1134   21626836.73446
  16849401.28343                  24349537.2974                   24349541.5664
 -12355470.30547  -9624822.42045  22129622.1644                   22129621.4344
 -15089143.06647 -11756014.99245  21401458.3984                   21401458.1454
 11  8 16 18 12 30.0000000  0  9G17G24G07G13G19G28G23G11G08
  15315612.57446  11943925.90543  24557380.0784                   24557386.7424
   5674749.35546   4452734.29443  23429000.1024                   23429002.1454
  -9327136.92247  -7265001.30346  20520019.5234                   20520018.2734
  12097405.87147   9436227.00844  22333918.5164                   22333919.2424
   6553155.98447   5121836.72145  22453187.7504                   22453185.3164
  -9039957.15647  -7041325.73044  22704752.3134   22704751.9454   21662398.30546
  16877111.26043                  24356305.9144                   24356309.4924
 -12481605.85547  -9723109.83445  22105619.6174                   22105619.1994
 -15232647.57447 -11867836.69045  21374151.0084                   21374150.3554
 11  8 16 18 13  0.0000000  0  9G17G24G07G13G19G28G23G11G08
  15132767.92246  11801449.89643  24522584.6644                   24522591.3444
   5526234.78146   4337008.77343  23400737.6414                   23400740.9924
  -9424905.43448  -7341184.57646  20501415.0164                   20501413.6524
  12118710.19547   9452827.65544  22337972.5784                   22337973.6604
   6558048.44547   5125648.97445  22454118.3914                   22454116.9454
  -9151817.25847  -7128489.43945  22683466.1414   22683465.3634   21697867.92646
  16904749.57443                  24363055.1644                   24363058.8674
 -12607403.87947  -9821134.29245  22081680.5164                   22081679.9964
 -15376069.80147 -11979594.26745  21346858.5164                   21346857.9534
 11  8 16 18 13 30.0000000  0  9G17G24G07G13G19G28G23G11G08
  14949956.69946  11658999.90643  24487796.9304                   24487803.5554
   5377793.87146   4221340.61543  23372489.7424                   23372493.2384
  -9522405.33647  -7417158.56146  20482861.3204                   20482859.6644
  12140184.17247   9469560.47744  22342059.3674                   22342059.8794
   6563200.66847   5129663.64945  22455099.0234                   22455096.7624
  -9263638.64547  -7215622.98444  22662187.0164   22662186.5234   21733243.66846
  16932314.72943                  24369786.8754                   24369791.5164
 -12732860.77747  -9918892.90245  22057806.9534                   22057806.4104
 -15519406.84847 -12091285.47545  21319582.1174                   21319581.4304
 11  8 16 18 14  0.0000000  0  9G17G24G07G13G19G28G23G11G08
  14767181.13746  11516577.75243  24453015.8984                   24453022.8284
   5229429.84446   4105732.36243  23344257.2424                   23344260.0234
  -9619634.58247  -7492921.61146  20464359.4304                   20464357.4804
  12161825.09847   9486423.37445  22346177.7894                   22346178.4384
   6568609.99647   5133878.64345  22456128.5944                   22456126.0944
  -9375422.23047  -7302727.07845  22640915.7584   22640915.0124   21768523.34846
  16959804.98643                  24376501.1094                   24376504.8914
 -12857974.14147 -10016383.82145  22033998.6804                   22033998.1484
 -15662655.98047 -12202908.17745  21292322.8524                   21292322.3164
 11  8 16 18 14 30.0000000  0  9G17G24G07G13G19G28G23G11G08
  14584440.13346  11374182.47543  24418241.4694                   24418248.1414
   5081142.77047   3990184.06544  23316039.6644                   23316042.5904
  -9716594.75447  -7568475.05346  20445908.3674                   20445906.7074
  12183626.42647   9503411.28644  22350326.4924                   22350326.8794
   6574270.83647   5138289.64545  22457205.5314                   22457203.0274
  -9487172.09447  -7389804.88045  22619650.2734   22619649.7234   21803700.60246
  16987215.48743                  24383195.4144                   24383199.2544
 -12982744.04747 -10113607.11545  22010255.9304                   22010255.2664
 -15805818.33647 -12314463.26545  21265080.2814                   21265079.4574
 11  8 16 18 15  0.0000000  0  9G17G24G07G13G19G28G23G11G08
  14401736.89846  11231816.66743  24383473.7504                   24383480.2774
   4932936.43447   3874698.67643  23287836.7894                   23287839.4774
  -9813283.25048  -7643816.74246  20427509.3284                   20427507.6644
  12205585.80947   9520522.36044  22354505.4534                   22354506.1724
   6580181.21547   5142895.09545  22458330.4924                   22458328.1914
  -9598888.12547  -7476856.31445  22598391.4924   22598390.0314   21838773.52746
  17014544.69743                  24389869.5944                   24389873.5984
 -13107167.54347 -10210560.47445  21986578.9144                   21986578.2974
 -15948890.67247 -12425948.22145  21237854.0554                   21237853.5594
 11  8 16 18 15 30.0000000  0  9G17G24G07G13G19G28G23G11G08
  14219072.05946  11089480.75543  24348713.0084                   24348719.1684
   4784812.88746   3759277.81043  23259649.1564                   23259651.9064
  -9909699.29347  -7718946.15046  20409161.6414                   20409160.3094
  12227699.28547   9537753.46944  22358713.6724                   22358714.6174
   6586336.75447   5147691.55845  22459502.5164                   22459499.3714
  -9710572.22347  -7563882.87345  22577138.2034   22577137.6174   21873738.69546
  17041789.86743                  24396523.8204                   24396527.1134
 -13231243.40247 -10307242.95545  21962968.1804                   21962967.4694
 -16091871.69147 -12537362.01845  21210646.1884                   21210644.9694
 11  8 16 18 16  0.0000000  0  9G17G24G07G13G19G28G23G11G08
  14036446.46146  10947175.36543  24313961.2894                   24313965.8524
   4636773.96146   3643922.93543  23231478.9224                   23231481.1174
 -10005842.22748  -7793862.74246  20390866.6954                   20390865.0554
  12249962.60247   9555101.39544  22362950.0784                   22362950.8834
   6592733.53547   5152676.01045  22460719.4774                   22460716.9774
  -9822227.02747  -7650886.59145  22555891.3284   22555889.9734   21908591.91446
  17068947.95342                  24403155.6174                   24403159.8324
 -13354970.43447 -10403653.62445  21939424.0394                   21939422.8324
 -16234760.66847 -12648704.09545  21183455.1254                   21183454.4614
 11  8 16 18 16 30.0000000  0  9G17G24G07G13G19G28G23G11G08
  13853856.31646  10804897.67143  24279214.5704                   24279220.7974
   4488817.03946   3528631.86243  23203323.2274                   23203325.4384
 -10101716.86348  -7868570.27346  20372622.0784                   20372620.6094
  12272366.41847   9572558.73144  22367213.4454                   22367214.1884
   6599362.73447   5157841.56645  22461980.5634                   22461978.8914
  -9933859.31247  -7737872.77645  22534648.6644   22534647.0864   21943324.33646
  17096011.88742                  24409765.3054                   24409768.9694
 -13478352.01247 -10499795.10145  21915944.7664                   21915943.9264
 -16377561.33647 -12759977.36745  21156281.1024                   21156280.5274
 11  8 16 18 17  0.0000000  0  9G17G24G07G13G19G28G23G11G08
  13671312.01645  10662655.55843  24244476.7194                   24244483.5474
   4340953.32846   3413413.49244  23175185.1484                   23175188.2194
 -10197312.82048  -7943060.65746  20354430.6024                   20354429.4454
  12294916.59447   9590130.15244  22371505.1484                   22371505.3714
   6606230.00847   5163192.61845  22463287.1804                   22463285.7274
 -10045461.31247  -7824835.36745  22513411.2664   22513410.0984   21977941.97746
  17122986.33242                  24416353.1954                   24416357.3244
 -13601377.48047 -10595659.08645  21892533.6174                   21892533.2154
 -16520262.82047 -12871173.32545  21129125.7034                   21129125.3444
 11  8 16 18 17 30.0000000  0  8G17G24G07G13G19G28G11G08
  13488814.61746  10520450.06843  24209748.9924                   24209755.0274
   4193184.77746   3298269.19143  23147065.2274                   23147069.1804
 -10292629.34048  -8017333.29546  20336293.0634                   20336291.2734
  12317608.44547   9607811.95344  22375822.7734                   22375823.6254
   6613331.30547   5168726.06444  22464639.0864                   22464637.0394
 -10157035.09447  -7911775.94745  22492179.4534   22492178.0554
 -13724045.62147 -10691244.64145  21869190.9534                   21869190.2304
 -16662864.03947 -12982291.18245  21101989.2894                   21101988.9654
 11  8 16 18 18  0.0000000  0  8G17G24G07G13G19G28G11G08
  13306364.10546  10378281.03843  24175030.0554                   24175035.9104
   4045512.60946   3183200.03943  23118964.5944                   23118967.8754
 -10387666.41848  -8091388.17646  20318207.5704                   20318206.6374
  12340437.31647   9625600.51944  22380167.2584                   22380168.0744
   6620662.07447   5174438.29945  22466033.4614                   22466031.7734
 -10268583.54747  -7998696.79945  22470952.2814   22470951.4884
 -13846355.88747 -10786551.31745  21845915.7424                   21845915.1414
 -16805364.52747 -13093330.53145  21074872.5784                   21074871.7034
 11  8 16 18 18 30.0000000  0  8G17G24G07G13G19G28G11G08
  13123972.59846  10236157.95743  24140321.7194                   24140327.5904
   3897949.89147   3068216.19643  23090884.9844                   23090887.1764
 -10482412.78548  -8165216.53746  20300178.3754                   20300176.9144
  12363409.78147   9643500.97644  22384538.6884                   22384539.8524
   6628229.14847   5180334.67445  22467473.8284                   22467471.6454
 -10380097.59447  -8085590.84945  22449732.4844   22449730.8244
 -13968296.17247 -10881569.68545  21822711.6484                   21822711.2194
 -16947751.93447 -13204281.78745  21047776.9694                   21047776.6954
 11  8 16 18 19  0.0000000  0  8G17G24G07G13G19G28G11G08
  12941657.14546  10094094.25043  24105628.2814                   24105634.5664
   3750514.86746   2953331.80243  23062828.6484                   23062830.4344
 -10576851.81648  -8238805.42746  20282207.0164                   20282205.9494
  12386538.10947   9661522.86844  22388940.2194                   22388941.3874
   6636045.29747   5186425.12045  22468961.5234                   22468958.8914
 -10491563.48047  -8172447.36245  22428520.8284   22428519.9614
 -14089848.87947 -10976286.08445  21799580.4924                   21799580.1334
 -17090008.88347 -13315131.36545  21020706.6174                   21020705.9104
 11  8 16 18 19 30.0000000  0  8G17G24G07G13G19G28G11G08
  12759423.07046   9952093.90544  24070950.0864                   24070956.0784
   3603213.70746   2838551.74143  23034797.9774                   23034800.5744
 -10670978.20348  -8312150.68746  20264295.5164                   20264294.1684
  12409822.47747   9679666.34744  22393371.4614                   22393372.5004
   6644110.22747   5192709.43145  22470495.9144                   22470493.5004
 -10602978.56247  -8259264.31445  22407318.8834   22407318.6334
 -14211008.67647 -11070696.30845  21776524.8524                   21776524.2034
 -17232129.98847 -13425875.08745  20993661.9534                   20993660.9614
 11  8 16 18 20  0.0000000  0  8G17G24G07G13G19G28G11G08
  12577269.62146   9810156.34944  24036287.7894                   24036293.1564
   3456046.66046   2723876.15644  23006793.7734                   23006796.9534
 -10764793.02348  -8385253.16346  20246442.9774                   20246441.7544
  12433256.95347   9697926.80644  22397830.9304                   22397831.8404
   6652418.66847   5199183.48645  22472077.0004                   22472075.2734
 -10714346.53147  -8346044.52145  22386126.3134   22386125.6994
 -14331776.02347 -11164800.72545  21753543.0784                   21753542.9024
 -17374116.00047 -13536513.52645  20966642.9224                   20966642.2814
 11  8 16 18 20 30.0000000  0  9G17G24G07G26G13G19G28G11G08
  12395197.21546   9668281.97244  24001639.5004                   24001645.4844
   3309015.57047   2609306.55944  22978814.1564                   22978816.8754
 -10858296.14148  -8458112.77346  20228650.1254                   20228648.6134
  17159097.77756  13379428.84553  24124806.8204                   24124807.0514
  12456837.02347   9716300.72644  22402318.0314                   22402319.4024
   6660966.55947   5205844.14745  22473704.6094                   22473702.0044
 -10825669.74647  -8432789.87445  22364942.1254   22364941.8594
 -14452149.98847 -11258598.60245  21730637.3914                   21730637.0744
 -17515965.71947 -13647045.78445  20939649.7814                   20939649.2894
 11  8 16 18 21  0.0000000  0  9G17G24G07G26G13G19G28G11G08
  12213204.32446   9526469.56443  23967006.8364                   23967013.1094
   3162119.89846   2494842.43843  22950860.5634                   22950863.2384
 -10951489.39848  -8530730.90946  20210915.9614                   20210914.8794
  16990137.04346  13247771.11243  24092655.1334                   24092654.5784
  12480555.90247   9734782.81244  22406831.9844                   22406832.7464
   6669747.13747   5212686.09445  22475374.8914                   22475372.6804
 -10936952.52747  -8519503.72045  22343766.3364   22343764.7194
 -14572131.73447 -11352090.86245  21707805.1644                   21707804.8054
 -17657680.00448 -13757472.50046  20912682.8754                   20912681.9614
 11  8 16 18 21 30.0000000  0  9G17G24G07G26G13G19G28G11G08
  12031284.14146   9384713.82944  23932389.0634                   23932394.2584
   3015353.67646   2380479.19043  22922931.7114                   22922934.6804
 -11044380.10547  -8603113.31446  20193239.2424                   20193238.0274
  16821472.42246  13116344.16042  24060558.6094                   24060559.4264
  12504401.40247   9753363.52544  22411370.0474                   22411370.8874
   6678748.35247   5219699.98444  22477087.6884                   22477085.1764
 -11048205.16447  -8606194.09445  22322595.3674   22322594.3984
 -14691728.09047 -11445282.83245  21685046.7344                   21685046.3984
 -17799266.11347 -13867799.35346  20885739.7974                   20885738.9024
 11  8 16 18 22  0.0000000  0  9G17G24G07G26G13G19G28G11G08
  13424865.47346  10470621.63344  24197578.4534                   24197583.9964
   4444145.64547   3493823.66044  23194822.0554                   23194825.0704
  -9561542.85548  -7447655.71246  20475413.7034                   20475412.7624
  18228533.23846  14212755.14842  24328312.8284                   24328313.6844
  14103790.72747  10999640.73144  22715723.7034                   22715724.4654
   8263388.37947   6454484.35545  22778634.8444                   22778632.2974
  -9584003.87147  -7465258.00845  22601223.6094   22601222.0274
 -13235512.46547 -10310569.34445  21962155.4144                   21962154.6334
 -16365295.95347 -12750420.00146  21158615.0634                   21158614.6054
 11  8 16 18 22 30.0000000  0  9G17G24G07G26G13G19G28G11G08
  13243106.24246  10328991.32243  24162990.4224                   24162995.8054
   4297657.28947   3379676.92743  23166945.9534                   23166949.6804
  -9653814.11348  -7519555.42646  20457855.2194                   20457854.0514
  18060479.00846  14081803.83642  24296333.2034                   24296334.5004
  14127890.26647  11018419.41544  22720309.4384                   22720310.8444
   8272832.93447   6461843.71444  22780431.8444                   22780429.5944
  -9695188.67247  -7551895.52045  22580065.9694   22580065.0904
 -13354322.33647 -10403148.45045  21939546.5864                   21939546.2074
 -16506608.68747 -12860533.82645  21131724.2814                   21131723.5944
 11  8 16 18 23  0.0000000  0  9G17G24G07G26G13G19G28G11G08
  13061442.91046  10187435.72444  24128421.3524                   24128425.8984
   4151325.04347   3265651.82544  23139100.0864                   23139103.3094
  -9745760.74248  -7591202.19146  20440358.4224                   20440357.1254
  17892746.44945  13951103.17642  24264415.0864                   24264415.3634
  14152124.56347  11037303.12744  22724921.0554                   22724922.4654
   8282507.07446   6469381.98945  22782272.8524                   22782270.8054
  -9806328.76247  -7638498.17845  22558916.4774   22558915.7034
 -13472722.93047 -10495408.64645  21917015.3444                   21917015.5904
 -16647768.53547 -12970528.51345  21104862.2734                   21104861.7664
 11  8 16 18 23 30.0000000  0  9G17G24G07G26G13G19G28G11G08
  12879885.99246  10045963.08244  24093872.2344                   24093877.0004
   4005160.03147   3151757.07644  23111286.6174                   23111288.7344
  -9837372.88748  -7662588.31046  20422925.6804                   20422924.0594
  17725346.70746  13820661.82442  24232559.6024                   24232560.2664
  14176498.74647  11056295.77844  22729560.2274                   22729560.8674
   8292416.20346   6477103.30945  22784158.3284                   22784156.2274
  -9917416.64547  -7725060.15345  22537776.9304   22537776.5594
 -13590704.02347 -10587341.95245  21894565.0944                   21894564.2304
 -16788765.24647 -13080396.08046  21078031.6564                   21078030.4144
 11  8 16 18 24  0.0000000  0  9G17G24G07G26G13G19G28G11G08
  12698447.24246   9904582.45643  24059345.3364                   24059350.3754
   3859175.95746   3038003.28844  23083506.2664                   23083508.6054
  -9928638.33648  -7733704.27446  20405557.7734                   20405556.8134
  17558293.21545  13690490.28142  24200770.1254                   24200770.9344
  14201020.24647  11075403.27344  22734226.4844                   22734227.4264
   8302568.02047   6485013.78645  22786090.7344                   22786088.3134
 -10028442.73047  -7811573.96745  22516649.5634   22516648.7544
 -13708252.90247 -10678938.47645  21872196.0944                   21872195.4224
 -16929585.58647 -13190126.21846  21051234.4924                   21051233.4144
 11  8 16 18 24 30.0000000  0  9G17G24G07G26G13G19G28G11G08
  12517135.12146   9763300.56343  24024842.5864                   24024847.8554
   3713381.78546   2924397.46943  23055761.8984                   23055765.5824
 -10019549.44548  -7804544.12446  20388258.4064                   20388257.1294
  17391594.52046  13560595.20342  24169049.4454                   24169049.5704
  14225692.14147  11094627.91644  22738921.4384                   22738922.3364
   8312965.83247   6493115.94244  22788069.1724                   22788067.0944
 -10139401.57047  -7898035.41645  22495534.5784   22495533.7664
 -13825361.42647 -10770191.85345  21849910.7424                   21849910.3524
 -17070221.50447 -13299712.65146  21024472.2424                   21024471.3284
 11  8 16 18 25  0.0000000  0  9G17G24G07G26G13G19G28G11G08
  12335960.77346   9622125.98543  23990366.2194                   23990370.5554
   3567789.85947   2810949.23544  23028056.9144                   23028060.1134
 -10110095.43748  -7875099.47246  20371028.0704                   20371026.3794
  17225262.73446  13430985.97343  24137396.9534                   24137397.7504
  14250520.51247  11113974.52144  22743645.9064                   22743647.2194
   8323615.85946   6501414.59444  22790095.9774                   22790093.8324
 -10250285.37547  -7984438.35945  22474434.2894   22474433.4494
 -13942018.42647 -10861093.40945  21827711.7424                   21827711.1724
 -17210661.39147 -13409146.32246  20997747.2504                   20997746.6414
 11  8 16 18 25 30.0000000  0  9G17G24G07G26G13G19G28G11G08
  12154932.83646   9481065.46343  23955917.1024                   23955921.6994
   3422409.60547   2697665.95044  23000392.0164                   23000395.0004
 -10200268.23848  -7945364.00846  20353869.0164                   20353867.1954
  17059306.85946  13301669.76643  24105817.7974                   24105817.7544
  14275508.79747  11133445.71744  22748401.1884                   22748402.6684
   8334521.89547   6509912.77844  22792170.9924                   22792169.2584
 -10361088.37147  -8070778.33445  22453349.2814   22453348.2774
 -14058215.07447 -10951636.23845  21805600.2814                   21805599.3954
 -17350895.98047 -13518420.03546  20971061.6564                   20971061.2384
 11  8 16 18 26  0.0000000  0  9G17G24G07G26G13G19G28G11G08
  11974062.07446   9340127.46543  23921498.3984                   23921502.6564
   3277253.10247   2584557.00144  22972769.6804                   22972772.6294
 -10290057.30148  -8015329.55446  20336782.6024                   20336780.9614
  16893738.73846  13172655.65943  24074310.5004                   24074312.0944
  14300662.77347  11153046.02644  22753187.6024                   22753190.0204
   8345689.91847   6518615.05744  22794296.6174                   22794295.4884
 -10471802.43047  -8157049.02245  22432281.0864   22432280.0084
 -14173940.65247 -11041812.00945  21783578.2664                   21783577.7544
 -17490914.19547 -13627525.13745  20944416.7504                   20944416.2344
 11  8 16 18 26 30.0000000  0  9G17G24G07G26G13G19G28G11G08
  11793350.11346   9199313.19544  23887110.6254                   23887114.1334
   3132323.21146   2471624.67244  22945190.1954                   22945192.8284
 -10379461.28948  -8084995.03146  20319769.5164                   20319768.2504
  16728560.89846  13043945.65743  24042877.9144                   24042879.2734
  14325979.10947  11172772.83544  22758005.5784                   22758007.3834
   8357116.91047   6527519.14645  22796471.0634                   22796469.1884
 -10582428.56647  -8243251.19445  22411229.5394   22411228.8014
 -14289193.11347 -11131619.11245  21761646.7734                   21761646.2584
 -17630714.41047 -13736460.36046  20917813.8834                   20917813.2234
 11  8 16 18 27  0.0000000  0  9G17G24G07G26G13G19G28G11G08
  11612808.00046   9058631.29344  23852753.6724                   23852757.9924
   2987632.02046   2358878.33344  22917656.7274                   22917658.9344
 -10468469.94148  -8154352.44546  20302831.6254                   20302830.8834
  16563784.75846  12915548.66343  24011522.3054                   24011522.9964
  14351463.59847  11192630.67644  22762855.2734                   22762856.8594
   8368808.55547   6536629.44244  22798696.0704                   22798693.5744
 -10692959.07047  -8329378.87145  22390196.0004   22390195.6334
 -14403961.84847 -11221049.28445  21739806.7114                   21739806.4414
 -17770284.84047 -13845216.53545  20891254.1024                   20891253.8054
 11  8 16 18 27 30.0000000  0  9G17G24G07G26G13G19G28G11G08
  11432441.74646   8918086.36044  23818430.8674                   23818435.8984
   2843186.56647   2246323.44444  22890169.5474                   22890172.0044
 -10557077.36348  -8223397.21346  20285970.0944                   20285969.1844
  16399417.02746  12787469.90643  23980244.0634                   23980244.7584
  14377117.14847  11212620.26744  22767737.3914                   22767739.4344
   8380766.58646   6545947.33144  22800971.7274                   22800969.3634
 -10803390.39147  -8415429.24945  22369182.1254   22369180.9494
 -14518240.23847 -11310097.38745  21718060.5474                   21718060.0394
 -17909619.10947 -13953788.69745  20864739.9844                   20864739.0664
 11  8 16 18 28  0.0000000  0  9G17G24G07G26G13G19G28G11G08
  11252255.95747   8777682.12544  23784142.3284                   23784147.7424
   2698992.63746   2133964.57644  22862730.3204                   22862732.5234
 -10645279.35548  -8292126.06446  20269185.8204                   20269184.7504
  16235463.46446  12659713.86343  23949044.8834                   23949045.7894
  14402939.62947  11232741.47744  22772650.9614                   22772652.4734
   8392990.89147   6555472.71844  22803298.1094                   22803295.7304
 -10913721.20747  -8501401.29445  22348186.8284   22348185.7774
 -14632023.45747 -11398759.61445  21696408.1414                   21696407.3054
 -18048711.82047 -14062172.63045  20838271.3364                   20838270.8914
 11  8 16 18 28 30.0000000  0  9G17G24G07G26G13G19G28G11G08
  11072259.37546   8637425.27044  23749890.9694                   23749895.6484
   2555059.93046   2021809.24944  22835340.5314                   22835343.6954
 -10733067.57448  -8360532.48046  20252480.4064                   20252479.3284
  16071932.94146  12532287.49943  23917925.6954                   23917927.5594
  14428934.43847  11252996.91344  22777597.6564                   22777599.9884
   8405485.28147   6565208.55944  22805675.3524                   22805673.8954
 -11023945.29347  -8587290.17845  22327211.8134   22327211.0704
 -14745303.19147 -11487029.52745  21674851.9384                   21674851.1684
 -18187554.03547 -14170361.38545  20811850.8054                   20811849.9774
 11  8 16 18 29  0.0000000  0  9G17G24G07G26G13G19G28G11G08
  10892453.80146   8497317.25744  23715674.0394                   23715679.0044
   2411391.37147   1909859.80344  22808001.4224                   22808004.4144
 -10820440.85548  -8428615.58546  20235853.5944                   20235852.8134
  15908828.42646  12405193.14443  23886887.9534                   23886889.4884
  14455098.66847  11273384.44944  22782577.1254                   22782579.1024
   8418246.67647   6575152.45544  22808103.8054                   22808102.4574
 -11134063.37147  -8673096.47945  22306257.2734   22306256.1294
 -14858077.78547 -11574905.83045  21653391.6414                   21653391.1914
 -18326143.34047 -14278353.04546  20785477.7974                   20785477.7074
 11  8 16 18 29 30.0000000  0  9G17G24G07G26G13G19G28G11G08
  10712844.92247   8357362.49544  23681495.4534                   23681499.9534
   2267993.80946   1798121.46444  22780713.6334                   22780716.1174
 -10907393.71948  -8496371.07446  20219307.4064                   20219306.2304
  15746156.33246  12278435.75243  23855931.9304                   23855934.1644
  14481432.73847  11293904.28144  22787588.5474                   22787591.0824
   8431276.10947   6585305.18245  22810583.6884                   22810581.2274
 -11244073.15647  -8758818.39345  22285323.0084   22285321.9264
 -14970341.21547 -11662383.81945  21632028.1564                   21632027.7774
 -18464473.96948 -14386143.16446  20759154.7114                   20759154.2584
 11  8 16 18 30  0.0000000  0  9G17G24G07G26G13G19G28G11G08
  10533442.10546   8217568.31544  23647356.2734                   23647360.5594
   2124877.82046   1686602.60544  22753479.3754                   22753481.4614
 -10993917.29748  -8563792.06546  20202842.4924                   20202841.3014
  15583926.71946  12152023.02143  23825061.4064                   23825062.3134
  14507941.37547  11314560.14644  22792633.1024                   22792635.1604
   8444578.51247   6595670.66444  22813115.0474                   22813113.2624
 -11353967.57447  -8844450.42045  22264410.4454   22264409.7194
 -15082084.05947 -11749456.16145  21610764.5314                   21610763.9804
 -18602535.53947 -14493723.59346  20732882.2584                   20732881.9344
 11  8 16 18 30 30.0000000  0  9G17G24G07G26G13G19G28G11G08
  10354238.03546   8077928.99244  23613254.3594                   23613259.1414
   1982037.05546   1575298.16744  22726297.8054                   22726300.2154
 -11080018.96948  -8630884.28946  20186457.6024                   20186456.9024
  15422133.02746  12025950.08743  23794273.4224                   23794274.1764
  14534611.82447  11335342.05344  22797708.9304                   22797710.6724
   8458141.32047   6606239.01045  22815695.8754                   22815694.6484
 -11463756.80147  -8930000.45645  22243518.3524   22243517.3594
 -15193313.80947 -11836128.70045  21589598.2974                   21589597.5664
 -18740335.08247 -14601099.87746  20706659.7894                   20706659.2854
 11  8 16 18 31  0.0000000  0  9G17G24G07G26G13G19G28G11G08
  10175239.74246   7938450.04144  23579191.7034                   23579196.3404
   1839479.50446   1464214.44044  22699169.8594                   22699172.2544
 -11165692.77347  -8697643.12146  20170154.7664                   20170153.7734
  15260782.74246  11900222.55643  23763568.8754                   23763569.8014
  14561446.36347  11356251.87644  22802815.0944                   22802817.0044
   8471966.90647   6617012.13844  22818326.7194                   22818325.4534
 -11573436.66846  -9015465.29045  22222647.0164   22222646.2424
 -15304023.45347 -11922395.94445  21568530.9614                   21568530.1414
 -18877864.99248 -14708266.04346  20680489.1954                   20680488.3324
 11  8 16 18 31 30.0000000  0  9G17G24G07G26G13G19G28G11G08
  11571872.62147   9026735.59944  23844962.6804                   23844966.5274
   3272630.64146   2580955.68444  22971889.0004                   22971891.4964
  -9675516.69948  -7536466.99846  20453725.9224                   20453724.8674
  16675301.51646  13002445.01743  24032742.5164                   24032743.7154
  16163858.41047  12604884.43444  23107744.2664                   23107746.5044
  10061469.59847   7855585.60844  23120798.9534                   23120797.4024
 -10107587.43447  -7873245.10745  22501588.7194   22501587.7544
 -13838789.93447 -10780655.52945  21847355.6254                   21847354.6294
 -17439700.68748 -13587618.52946  20954162.7424                   20954162.0664
 11  8 16 18 32  0.0000000  0  9G17G24G07G26G13G19G28G11G08
  11393280.81646   8887573.37544  23810977.9144                   23810981.6564
   3130638.23446   2470312.29444  22944869.3674                   22944871.6524
  -9760340.25447  -7602563.30646  20437584.5394                   20437583.3404
  16514835.47346  12877406.53243  24002207.1484                   24002208.1054
  16191001.19947  12626034.45443  23112909.6954                   23112911.7304
  10075801.60547   7866753.34844  23123526.3984                   23123524.1214
 -10217062.18047  -7958550.11545  22480756.5314   22480755.7814
 -13948464.35547 -10866116.12645  21826484.8134                   21826484.4614
 -17576694.73048 -13694367.13746  20928093.6804                   20928092.8754
 11  8 16 18 32 30.0000000  0  9G17G24G07G26G13G19G28G11G08
  11214888.11346   8748566.34344  23777030.3594                   23777034.1524
   2988925.69947   2359887.00843  22917902.0634                   22917904.3714
  -9844743.84048  -7668332.34946  20421523.4454                   20421521.9614
  16354808.27046  12752710.04143  23971755.0944                   23971756.7734
  16218286.38747  12647295.40343  23118102.1254                   23118104.3324
  10090375.91847   7878109.90944  23126299.9304                   23126297.3834
 -10326442.94547  -8043781.87045  22459941.7894   22459940.8914
 -14057625.49647 -10951176.70945  21805712.3524                   21805711.6564
 -17713424.24247 -13800909.60846  20902074.7894                   20902074.4734
 11  8 16 18 33  0.0000000  0  9G17G24G07G26G13G19G28G11G08
  11036695.20747   8609714.98744  23743121.2274                   23743124.8754
   2847494.77746   2249681.20843  22890988.5704                   22890990.5164
  -9928726.81248  -7733773.65646  20405541.6174                   20405540.0394
  16195221.18046  12628356.48243  23941387.0474                   23941388.4184
  16245709.77347  12668664.07043  23123320.1484                   23123322.2424
  10105188.18446   7889651.87744  23129118.8444                   23129116.1644
 -10435731.52747  -8128941.79345  22439144.8674   22439144.0274
 -14166273.06247 -11035837.14945  21785037.1174                   21785036.7114
 -17849887.85947 -13907244.88746  20876106.4224                   20876106.0084
 11  8 16 18 33 30.0000000  0  9G17G24G07G26G13G19G28G11G08
  10858699.82447   8471017.49244  23709249.7814                   23709253.6134
   2706344.53946   2139694.07544  22864128.0314                   22864130.5164
 -10012292.56248  -7798889.85246  20389639.2664                   20389638.3554
  16036072.88746  12504344.87143  23911101.6094                   23911103.3954
  16273264.16047  12690134.75943  23128564.1414                   23128566.4494
  10120231.07446   7901373.56444  23131981.3524                   23131979.0234
 -10544932.62147  -8214033.56545  22418364.7814   22418363.8134
 -14274409.42647 -11120099.25045  21764459.5704                   21764459.4414
 -17986087.43747 -14013374.42246  20850188.1334                   20850188.0314
 11  8 16 18 34  0.0000000  0  9G17G24G07G26G13G19G28G11G08
  10680900.95347   8332473.15944  23675415.2424                   23675419.4064
   2565475.04646   2029925.67944  22837321.6954                   22837324.0904
 -10095442.05947  -7863681.67846  20373816.7424                   20373815.7194
  15877362.85946  12380674.72743  23880900.1174                   23880901.8914
  16300943.45347  12711702.82343  23133831.4614                   23133833.7194
  10135499.57846   7913271.03544  23134886.8754                   23134885.2504
 -10654050.23847  -8299060.26345  22397600.2344   22397599.5124
 -14382035.09047 -11203963.38545  21743978.9224                   21743978.5744
 -18122023.27347 -14119298.44246  20824321.2504                   20824320.4964
 11  8 16 18 34 30.0000000  0  9G17G24G07G26G13G19G28G11G08
  10503300.35247   8194083.31644  23641618.9304                   23641623.1604
   2424888.93846   1920378.15844  22810569.3674                   22810571.0474
 -10178174.30548  -7928148.39446  20358073.6174                   20358072.2934
  15719093.37146  12257347.88742  23850782.4774                   23850783.3754
  16328744.27347  12733365.56444  23139121.6254                   23139124.6374
  10150990.40247   7925341.74944  23137834.9064                   23137832.6174
 -10763085.44947  -8384022.73145  22376851.5164   22376851.0314
 -14489149.10947 -11287428.83045  21723595.6414                   21723595.6214
 -18257693.65647 -14225015.62846  20798503.6334                   20798502.9844
 11  8 16 18 35  0.0000000  0  9G17G24G07G26G13G19G28G11G08
  10325894.27047   8055845.03844  23607859.2424                   23607862.5784
   2284584.07046   1811049.79344  22783870.3204                   22783872.1054
 -10260492.85248  -7992292.75046  20342408.5784                   20342407.6094
  15561261.75446  12134362.24543  23820747.9384                   23820748.3324
  16356658.67247  12755116.85943  23144433.6804                   23144436.8244
  10166695.57046   7937579.49244  23140823.0944                   23140821.7074
 -10872044.43747  -8468925.85145  22356117.1954   22356117.0434
 -14595754.62147 -11370498.02545  21703309.7734                   21703308.9184
 -18393100.72348 -14330527.62846  20772736.5234                   20772736.0704
 11  8 16 18 35 30.0000000  0  9G17G24G07G26G13G19G28G11G08
  10148683.05947   7917758.60444  23574136.7584                   23574139.9964
   2144561.53546   1701941.40744  22757224.0234                   22757226.9534
 -10342398.35948  -8056115.25346  20326822.6254                   20326821.5514
  15403868.89146  12011718.37743  23790797.2664                   23790797.9804
  16384681.73047  12776952.79143  23149767.0314                   23149769.5554
  10182610.35247   7949980.54344  23143852.2034                   23143849.5634
 -10980929.91047  -8553771.62545  22335397.4694   22335396.8404
 -14701851.87147 -11453171.19145  21683120.1564                   21683118.8674
 -18528243.75047 -14435833.89346  20747019.9614                   20747019.0124
 11  8 16 18 36  0.0000000  0  9G17G24G07G26G13G19G28G11G08
   9971663.35947   7779821.40944  23540451.5554                   23540454.0314
   2004818.89846   1593051.11044  22730631.8134                   22730634.2974
 -10423894.77047  -8119618.96646  20311314.6254                   20311313.1914
  15246912.03546  11889414.39143  23760929.1884                   23760930.5234
  16412804.88347  12798866.72243  23155118.2894                   23155121.7234
  10198726.74646   7962538.69944  23146918.6094                   23146916.1374
 -11089747.75847  -8638564.74145  22314689.8754   22314689.2704
 -14807444.62547 -11535451.23645  21663026.4534                   21663025.6134
 -18663125.94547 -14540936.90846  20721352.5234                   20721351.6804
 11  8 16 18 36 30.0000000  0  9G17G24G07G26G13G19G28G11G08
   9794832.84047   7642031.62144  23506801.3444                   23506804.6174
   1865355.31346   1484378.23544  22704093.6484                   22704095.1254
 -10504984.77748  -8182806.01546  20295883.3984                   20295882.4694
  15090389.27746  11767448.65642  23731143.5314                   23731145.0664
  16441021.26647  12820853.31743  23160488.1094                   23160490.5124
  10215037.85946   7975248.62344  23150022.7814                   23150020.4804
 -11198502.69547  -8723308.83845  22293995.0234   22293993.6914
 -14912535.26247 -11617340.02945  21643028.6884                   21643027.6054
 -18797748.39547 -14645837.50746  20695734.6254                   20695734.1564
 11  8 16 18 37  0.0000000  0  9G17G24G07G26G13G19G28G11G08
   9618188.18847   7504386.59244  23473186.7974                   23473190.1094
   1726168.40647   1375920.98243  22677606.7274                   22677608.8594
 -10585672.04748  -8245679.24446  20280529.1334                   20280528.3164
  14934298.43846  11645819.47143  23701439.8984                   23701442.2344
  16469322.73847  12842906.19743  23165873.5554                   23165876.5354
  10231535.84446   7988104.09144  23153162.3444                   23153159.6414
 -11307200.86347  -8808008.68745  22273309.8914   22273309.1254
 -15017127.28147 -11698840.28845  21623125.0314                   21623124.9144
 -18932114.72748 -14750538.55546  20670165.6564                   20670164.8674
 11  8 16 18 37 30.0000000  0  9G17G24G07G26G13G19G28G11G08
   9441728.38347   7366885.67044  23439607.6484                   23439610.9224
   1587258.28546   1267679.41044  22651172.7344                   22651176.0434
 -10665957.82447  -8308239.62546  20265251.2274                   20265250.6684
  14778638.71146  11524526.15343  23671820.2344                   23671820.8554
  16497703.18047  12865020.59544  23171274.4534                   23171277.3324
  10248215.17646   8001100.92344  23156336.2504                   23156334.0744
 -11415846.03947  -8892667.23145  22252635.5864   22252634.6764
 -15121221.46147 -11779952.61145  21603316.6804                   21603315.9654
 -19066224.64548 -14855039.78046  20644645.3364                   20644644.5474
 11  8 16 18 38  0.0000000  0  9G17G24G07G26G13G19G28G11G08
   9265454.68047   7229529.75344  23406063.7194                   23406066.9184
   1448627.39146   1159655.38144  22624792.1884                   22624794.6484
 -10745842.00047  -8370487.06046  20250050.0394                   20250049.0864
  14623411.74246  11403570.08143  23642281.2504                   23642281.8094
  16526158.76647  12887193.53043  23176689.5704                   23176692.4884
  10265072.40646   8014236.36544  23159543.6644                   23159542.0124
 -11524439.43447  -8977285.43745  22231970.6564   22231969.8054
 -15224817.60247 -11860676.86045  21583602.7664                   21583602.0784
 -19200076.37148 -14959339.83346  20619173.7894                   20619173.5944
 11  8 16 18 38 30.0000000  0  9G17G24G07G26G13G19G28G11G08
   9089356.96146   7092310.91544  23372553.1954                   23372556.7544
   1310266.52047   1051841.74644  22598462.9844                   22598464.9734
 -10825335.00847  -8432429.68746  20234922.9224                   20234922.0744
  14468608.39146  11282944.06243  23612823.0004                   23612823.6374
  16554674.93847  12909413.73643  23182115.6484                   23182119.1844
  10282093.06346   8027499.14244  23162782.8524                   23162781.2304
 -11632993.71947  -9061873.18145  22211313.7274   22211312.6484
 -15327925.75847 -11941020.87745  21563981.9144                   21563981.3554
 -19333679.36348 -15063446.06846  20593750.4774                   20593749.5044
 11  8 16 18 39  0.0000000  0  9G17G24G07G26G13G19G28G11G08
   8913441.28546   6955233.98944  23339077.2034                   23339080.8714
   1172182.75846    944244.09744  22572186.5554                   22572188.5864
 -10904431.39547  -8494063.26446  20219871.3284                   20219870.5164
  14314234.92646  11162653.09543  23583447.0554                   23583448.0784
  16583252.68847  12931681.85943  23187554.5084                   23187557.3204
  10299278.02746   8040889.94944  23166053.2894                   23166050.9264
 -11741506.10247  -9146428.25845  22190664.6094   22190663.6334
 -15430539.87147 -12020979.91245  21544455.6414                   21544454.3014
 -19467026.94548 -15167353.28946  20568374.7274                   20568374.5784
 11  8 16 18 39 30.0000000  0  9G17G24G07G26G13G19G28G11G08
   8737705.89147   6818297.48744  23305635.7194                   23305639.2664
   1034375.50846    836861.89144  22545962.8984                   22545964.8484
 -10983133.59447  -8555389.68346  20204894.8754                   20204893.7074
  14160290.33646  11042696.25443  23554151.8364                   23554154.2854
  16611885.23046  12953992.69243  23193003.2274                   23193006.4414
  10316620.89846   8054403.82544  23169353.2894                   23169351.6884
 -11849980.87547  -9230954.04445  22170021.9774   22170021.4024
 -15532662.35947 -12100555.85545  21525022.3524                   21525021.3324
 -19600120.49648 -15271062.56246  20543048.1884                   20543047.7114
 11  8 16 18 40  0.0000000  0  9G17G24G07G26G13G19G28G11G08
   8562149.95347   6681500.82844  23272228.3054                   23272231.7704
    896845.29746    729695.57144  22519792.3524                   22519794.1054
 -11061442.35547  -8616409.53146  20189993.2344                   20189992.2974
  14006774.48446  10923073.60143  23524939.0234                   23524940.8674
  16640567.14846  12976342.02543  23198461.7894                   23198464.6214
  10334117.07446   8068037.12544  23172683.2504                   23172680.6764
 -11958420.66447  -9315452.57445  22149386.5864   22149386.0234
 -15634294.34847 -12179749.61045  21505682.2194                   21505681.3054
 -19732960.00048 -15374573.86346  20517769.8834                   20517769.1134
 11  8 16 18 40 30.0000000  0  9G17G24G07G26G13G19G28G11G08
   8386771.34447   6544842.35044  23238854.9454                   23238858.2424
    759591.53146    622744.63444  22493673.4304                   22493675.7974
 -11139360.50047  -8677124.99746  20175166.0634                   20175164.9184
  13853686.02346  10803783.94143  23495807.7584                   23495808.7424
  16669292.07046  12998724.79343  23203927.7274                   23203930.8634
  10351759.82446   8081784.66744  23176040.3594                   23176039.3874
 -12066830.45347  -9399927.71445  22128757.0474   22128756.2894
 -15735437.93047 -12258562.77745  21486435.4454                   21486434.5904
 -19865546.32848 -15477887.89746  20492539.7734                   20492538.8554
 11  8 16 18 41  0.0000000  0  9G17G24G07G26G13G19G28G11G08
   9786991.03547   7635922.80544  23505307.6414                   23505310.6844
   2198034.48046   1743609.33544  22767399.4774                   22767402.0824
  -9641471.21547  -7509938.57146  20460204.9064                   20460203.8404
  15276445.90646  11912427.99743  23766548.9844                   23766550.1684
  18273468.82046  14248732.46143  23509192.9144                   23509195.6684
  11944958.92646   9323238.40644  23479215.2274                   23479214.9344
 -10599794.34047  -8256782.68045  22407924.7814   22407923.9844
 -14260675.12947 -11109396.97445  21767073.1644                   21767072.5204
 -18422459.62148 -14353404.75146  20767150.0394                   20767149.3794
 11  8 16 18 41 30.0000000  0  9G17G24G07G26G13G19G28G11G08
   9611958.51247   7499533.99644  23471999.9454                   23472002.9384
   2061326.91846   1637084.03544  22741384.6484                   22741387.3874
  -9718618.83247  -7570053.63546  20445524.1024                   20445523.1914
  15124204.99246  11793798.71343  23737578.6484                   23737579.2704
  18302255.44546  14271163.30043  23514670.9454                   23514674.4454
  11962872.03546   9337196.64044  23482625.1024                   23482623.6684
 -10708160.86747  -8341224.12245  22387303.2504   22387302.0164
 -14360852.05947 -11187456.91545  21748010.5164                   21748009.5234
 -18554546.53548 -14456329.62746  20742014.5474                   20742013.6174
 11  8 16 18 42  0.0000000  0  9G17G24G07G26G13G19G28G11G08
   9437098.39547   7363279.52044  23438724.9924                   23438728.3164
   1924893.37146   1530772.25044  22715422.6954                   22715424.9924
  -9795383.10947  -7629869.96946  20430916.1254                   20430915.2974
  14972387.65246  11675499.51943  23708688.7974                   23708689.2544
  18331064.92246  14293611.98243  23520153.7034                   23520156.4574
  11980912.30146   9351253.91543  23486057.8364                   23486056.5784
 -10816510.78547  -8425652.63245  22366684.6724   22366683.8484
 -14460547.19547 -11265141.41145  21729039.1174                   21729037.5944
 -18686383.88348 -14559060.03546  20716926.9694                   20716926.0634
 11  8 16 18 42 30.0000000  0  9G17G24G07G26G13G19G28G11G08
   9262407.07847   7227156.55044  23405482.0234                   23405485.5784
   1788731.50446   1424672.13344  22689511.4844                   22689514.3874
  -9871767.95747  -7689390.66146  20416380.8134                   20416379.7194
  14820991.11746  11557528.18343  23679878.0474                   23679880.0984
  18359888.99247  14316072.09943  23525638.5004                   23525641.8834
  11999072.44146   9365404.60743  23489513.2734                   23489512.2344
 -10924849.64547  -8510072.49445  22346068.8284   22346067.9494
 -14559764.18447 -11342453.32845  21710158.4614                   21710157.8364
 -18817974.25848 -14661597.99746  20691885.8674                   20691885.1954
 11  8 16 18 43  0.0000000  0  9G17G24G07G26G13G19G28G11G08
   9087887.03947   7091167.05144  23372272.3914                   23372275.4064
   1652845.15647   1318786.70744  22663652.7814                   22663656.1724
  -9947770.93047  -7748613.77346  20401918.1024                   20401917.0124
  14670018.97346  11439887.56543  23651149.8364                   23651151.3794
  18388725.99246  14338542.20443  23531126.2664                   23531129.8674
  12017350.41846   9379647.13843  23492992.2344                   23492990.3484
 -11033177.32847  -8594483.67145  22325454.5004   22325453.8754
 -14658500.53947 -11419390.74345  21691369.1094                   21691368.6604
 -18949314.30148 -14763940.90246  20666892.5234                   20666892.1724
 11  8 16 18 43 30.0000000  0  9G17G24G07G26G13G19G28G11G08
   8913540.33247   6955312.61944  23339094.6954                   23339098.3834
   1517237.50847   1213118.44944  22637847.9534                   22637850.5434
 -10023390.76648  -7807538.34646  20387528.0704                   20387526.9494
  14519473.43847  11322579.31543  23622502.6724                   23622503.7704
  18417572.91846  14361020.08943  23536615.1564                   23536619.3834
  12035743.71146   9393979.48343  23496492.0084                   23496490.6564
 -11141494.24647  -8678886.45145  22304842.4064   22304841.7344
 -14756754.59847 -11495952.35245  21672672.7194                   21672671.6024
 -19080401.24248 -14866086.58446  20641947.6884                   20641947.4304
 11  8 16 18 44  0.0000000  0  9G17G24G07G26G13G19G28G11G08
   8739362.68047   6819589.89144  23305949.8444                   23305953.0274
   1381905.14847   1107664.71144  22612094.8594                   22612097.2624
 -10098632.49247  -7866168.29246  20373209.9304                   20373209.1134
  14369350.35247  11205600.35043  23593935.2814                   23593936.4774
  18446420.41447  14383498.42643  23542105.8204                   23542109.5004
  12054243.80946   9408395.10444  23500012.6564                   23500010.6414
 -11249807.62147  -8763286.48845  22284231.3054   22284230.0904
 -14854531.44547 -11572142.10145  21654065.8914                   21654065.4384
 -19211238.67248 -14968037.82046  20617050.2584                   20617049.7504
 11  8 16 18 44 30.0000000  0  9G17G24G07G26G13G19G28G11G08
   8565351.76247   6683997.10444  23272836.7734                   23272840.0394
   1246846.47746   1002424.23744  22586393.9844                   22586396.3284
 -10173499.02348  -7924505.87346  20358963.4144                   20358962.3554
  14219648.18046  11088949.31143  23565447.9534                   23565448.4454
  18475261.73047  14405971.88043  23547594.0474                   23547598.2274
  12072843.51246   9422888.32743  23503551.8054                   23503550.2664
 -11358122.34847  -8847687.55145  22263619.9304   22263618.7194
 -14951834.04347 -11647962.29545  21635549.9534                   21635549.1764
 -19341827.89848 -15069795.67046  20592200.0234                   20592199.2424
 11  8 16 18 45  0.0000000  0  9G17G24G07G26G13G19G28G11G08
   8391511.44947   6548537.25844  23239755.8134                   23239758.8674
   1112066.81347    897401.14244  22560746.3984                   22560748.6604
 -10247987.08247  -7982548.53646  20344788.9064                   20344787.8794
  14070371.19946  10972629.58843  23537041.0314                   23537041.5704
  18504096.16046  14428440.04043  23553081.3054                   23553085.2704
  12091542.48746   9437458.91144  23507110.2504                   23507108.5824
 -11466436.59847  -8932088.26345  22243008.2274   22243007.1804
 -15048658.74247 -11723410.09845  21617125.1024                   21617124.2664
 -19472164.37548 -15171356.56146  20567397.4844                   20567396.8404
 11  8 16 18 45 30.0000000  0  9G17G24G07G26G13G19G28G11G08
   8217842.21147   6413210.70944  23206707.5784                   23206710.2854
    977567.81647    792596.79744  22535151.6024                   22535154.6884
 -10322096.55147  -8040296.20646  20330686.1414                   20330685.1884
  13921520.52046  10856642.05143  23508713.8594                   23508716.2774
  18532919.18846  14450899.27243  23558565.7114                   23558569.9384
  12110336.94546   9452103.82144  23510687.2344                   23510684.9534
 -11574752.22747  -9016490.03745  22222396.2424   22222395.3484
 -15145005.50447 -11798485.47245  21598790.8524                   21598790.0354
 -19602247.16448 -15272719.79446  20542643.5634                   20542642.8914
 11  8 16 18 46  0.0000000  0  9G17G24G07G26G13G19G28G11G08
   8044343.99247   6278017.44244  23173691.5704                   23173694.8834
    843350.66847    688012.00744  22509611.7974                   22509614.2464
 -10395828.43447  -8097749.64446  20316655.6414                   20316654.4024
  13773096.50846  10740987.01243  23480471.5554                   23480470.9454
  18561726.10546  14473345.91143  23564048.2974                   23564052.2154
  12129222.42246   9466819.73044  23514280.5314                   23514278.6564
 -11683072.14147  -9100895.16445  22201783.7584   22201782.8524
 -15240874.91047 -11873188.90345  21580547.3594                   21580546.5664
 -19732075.61748 -15373884.81946  20517938.3204                   20517937.8444
 11  8 16 18 46 30.0000000  0  9G17G24G07G26G13G19G28G11G08
   7871018.32846   6142958.66044  23140708.5004                   23140711.5864
    709417.50046    583648.54744  22484124.3364                   22484127.6094
 -10469181.73447  -8154908.07146  20302696.7894                   20302695.8754
  13625100.97346  10625665.83543  23452308.4064                   23452309.8594
  18590513.75846  14495777.57343  23569526.6804                   23569530.5554
  12148195.82046   9481604.12443  23517891.5004                   23517889.0314
 -11791397.14547  -9185304.24745  22181170.4144   22181169.3014
 -15336266.20347 -11947519.76745  21562394.7814                   21562394.4414
 -19861647.19148 -15474849.68746  20493281.2894                   20493281.0394
 11  8 16 18 47  0.0000000  0  9G17G24G07G26G13G19G28G11G08
   7697868.03947   6008036.46644  23107759.8204                   23107761.7934
    575772.49246    479509.64844  22458692.2974                   22458695.3444
 -10542154.44147  -8211769.94246  20288810.6174                   20288809.5044
  13477537.49246  10510681.32144  23424228.7894                   23424229.7274
  18619280.43046  14518192.91043  23575001.0554                   23575004.7464
  12167255.73046   9496455.98943  23521517.6334                   23521515.9844
 -11899726.80147  -9269716.94345  22160555.6884   22160555.0204
 -15431176.87147 -12021476.12845  21544334.0394                   21544333.1644
 -19990958.16848 -15575611.48246  20468674.4614                   20468673.7974
 11  8 16 18 47 30.0000000  0  9G17G24G07G26G13G19G28G11G08
   7524899.34847   5873255.82644  23074844.9614                   23074847.3674
    442422.86346    375600.89444  22433317.2734                   22433319.6844
 -10614740.66447  -8268330.65346  20274997.9454                   20274996.9454
  13330412.55546  10396038.52543  23396231.5784                   23396233.1254
  18648027.66446  14540593.04443  23580471.4924                   23580475.7624
  12186404.08246   9511376.68543  23525162.3444                   23525160.1454
 -12008057.52047  -9354130.49445  22139941.0634   22139939.9694
 -15525601.10547 -12095053.44345  21526365.7664                   21526364.8014
 -20120001.73448 -15676164.92746  20444118.6484                   20444117.9884
 11  8 16 18 48  0.0000000  0  9G17G24G07G26G13G19G28G11G08
   7352119.11747   5738622.02944  23041965.2034                   23041968.7854
    309376.45347    271928.41344  22407998.9454                   22408001.6294
 -10686934.26247  -8324585.42546  20261260.1564                   20261259.1764
  13183733.27746  10281743.00843  23368319.6334                   23368321.2114
  18676757.63346  14562979.75643  23585939.1484                   23585942.7934
  12205643.14146   9526368.07143  23528823.1804                   23528821.2274
 -12116384.55147  -9438541.15045  22119327.6484   22119326.3594
 -15619532.74647 -12168246.92645  21508490.6724                   21508489.9774
 -20248770.14848 -15776503.94546  20419614.6564                   20419613.9734
 11  8 16 18 48 30.0000000  0  9G17G24G07G26G13G19G28G11G08
   7179528.02747   5604135.60244  23009122.3054                   23009125.3324
    176635.37147    168493.86944  22382739.6024                   22382741.5704
 -10758734.90648  -8380534.00346  20247596.7274                   20247595.8794
  13037501.31646  10167796.06043  23340492.0634                   23340493.0864
  18705466.81346  14585350.29943  23591401.7504                   23591407.1484
  12224969.53146   9541427.54343  23532500.9694                   23532499.2544
 -12224709.65647  -9522950.28645  22098713.3444   22098712.6804
 -15712971.53147 -12241056.35845  21490710.0394                   21490709.0354
 -20377261.77348 -15876627.29146  20395163.1024                   20395162.7774
 11  8 16 18 49  0.0000000  0  9G17G24G07G26G13G19G28G11G08
   7007136.37147   5469804.58444  22976317.0084                   22976320.0004
     44210.78947     65305.90144  22357540.0004                   22357542.3834
 -10830133.39848  -8436169.21446  20234010.3914                   20234009.3834
  12891727.04746  10054205.68443  23312752.4224                   23312752.1604
  18734160.37546  14607708.58143  23596862.6484                   23596867.0944
  12244389.19946   9556559.72043  23536196.0164                   23536195.0394
 -12333025.04347  -9607351.86445  22078101.9144   22078101.0164
 -15805907.91447 -12313474.30845  21473025.5314                   21473023.9734
 -20505465.68748 -15976526.45946  20370767.2894                   20370766.5664
 11  8 16 18 49 30.0000000  0  9G17G24G07G26G13G19G28G11G08
   6834949.22347   5335632.90144  22943550.5784                   22943553.9654
    -87891.49247    -37630.88644  22332401.6884                   22332404.0634
 -10901125.48048  -8491487.73646  20220501.0554                   20220500.1914
  12746415.85946   9940976.15043  23285100.5704                   23285100.2114
  18762838.85946  14630055.12543  23602320.1484                   23602324.4414
  12263902.62146   9571764.86443  23539910.0394                   23539908.2814
 -12441328.03147  -9691743.80145  22057492.2194   22057491.6954
 -15898337.66447 -12385497.48945  21455436.1884                   21455435.6334
 -20633376.14848 -16076196.94346  20346426.1644                   20346425.8014
 11  8 16 18 50  0.0000000  0  9G17G24G07G26G13G19G28G11G08
   6662964.59447   5201619.03444  22910823.7344                   22910825.8444
   -219672.14847   -140317.07544  22307324.2034                   22307326.9614
 -10971713.45348  -8546491.38746  20207068.8914                   20207067.5594
  12601566.23846   9828106.31143  23257537.0164                   23257537.4414
  18791495.91046  14652384.99143  23607773.2034                   23607778.4184
  12283503.83646   9587038.51843  23543639.6724                   23543638.5744
 -12549623.21147  -9776129.63345  22036884.8284   22036883.6564
 -15990263.31247 -12457127.87745  21437943.7034                   21437942.7934
 -20760993.91048 -16175639.35946  20322141.5944                   20322141.0984
 11  8 16 18 50 30.0000000  0  9G17G24G07G26G13G19G28G11G08
   6491183.10547   5067763.43344  22878133.8594                   22878137.0634
   -351129.15647   -242751.07544  22282309.3524                   22282311.5044
 -11041897.38748  -8601180.18346  20193713.0944                   20193711.9574
  12457179.35246   9715597.07643  23230059.6954                   23230062.2854
  18820127.61746  14674695.09443  23613222.4844                   23613227.0434
  12303189.44546   9602377.87943  23547385.5394                   23547384.5434
 -12657911.48447  -9860510.07745  22016278.0864   22016277.2704
 -16081684.32847 -12528365.02245  21420546.6024                   21420545.7194
 -20888317.69148 -16274852.68446  20297912.7344                   20297912.2464
 11  8 16 18 51  0.0000000  0  9G17G24G07G26G13G19G28G11G08
   7895034.28547   6161673.56245  23145278.2974                   23145280.7544
   1093166.72346    882674.35944  22557149.2584                   22557151.6604
  -9536252.02747  -7427950.04746  20480227.6954                   20480226.8554
  13888684.15646  10831055.38843  23502466.6804   23502467.4734   20424152.18846
  15924584.11943                  23918458.1174                   23918462.5704
  13898378.27046  10845382.09643  23850940.4844                   23850938.8874
 -11190767.98047  -8717281.36445  22295465.7584   22295465.1884
 -14597174.81647 -11371604.36445  21703039.1174                   21703038.6454
 -19439918.52348 -15146229.96346  20573533.7974                   20573533.3984
 11  8 16 18 51 30.0000000  0  9G17G24G07G26G13G19G28G11G08
   7723663.54747   6028138.03145  23112668.2194                   23112670.6884
    962364.22747    780750.41444  22532258.3984                   22532260.6134
  -9605625.66448  -7482007.45146  20467026.6804                   20467025.5784
  13745228.15646  10719271.49943  23475168.5164   23475169.2034   20452723.96146
  15946847.49843                  23923896.3364                   23923900.4614
  13918224.16846  10860846.33644  23854717.1024                   23854715.7934
 -11299045.64847  -8801653.56245  22274861.5394   22274860.7464
 -14687584.74247 -11442053.65245  21685834.9144                   21685834.2704
 -19566647.04348 -15244979.46046  20549418.3054                   20549417.9494
 11  8 16 18 52  0.0000000  0  9G17G24G07G26G13G19G28G11G08
   7552494.70347   5894759.84644  23080095.0864                   23080097.4924
    831887.14547    679080.00544  22507429.1884                   22507431.5204
  -9674598.75848  -7535752.73546  20453901.1094                   20453900.4024
  13602234.58246  10607847.94343  23447957.6724   23447958.0784   20481255.38746
  15969079.44043                  23929325.6254                   23929329.9844
  13938140.07846  10876365.18544  23858506.8134                   23858505.5394
 -11407324.98847  -8886027.04845  22254256.5944   22254255.7624
 -14777493.71947 -11512112.58545  21668725.0864                   21668725.3874
 -19693080.22348 -15343498.82646  20525358.6954                   20525358.1954
 11  8 16 18 52 30.0000000  0  9G17G24G07G26G13G19G28G11G08
   7381528.77047   5761539.74745  23047561.3754                   23047563.7154
    701737.33247    577664.60444  22482662.8914                   22482665.3244
  -9743170.78547  -7589185.52746  20440852.3984                   20440851.3324
  13459704.93446  10496785.87543  23420835.4384   23420835.5004   20509743.03246
  15991277.30243                  23934746.4144                   23934751.4184
  13958123.19146  10891936.40843  23862308.8364                   23862308.3014
 -11515607.36347  -8970402.91245  22233650.9064   22233650.2934
 -14866901.36747 -11581780.87845  21651711.9304                   21651711.0044
 -19819216.35948 -15441786.73646  20501355.8444                   20501355.2114
 11  8 16 18 53  0.0000000  0  9G17G24G07G26G13G19G28G11G08
   7210764.35547   5628476.67345  23015065.5234                   23015068.0904
    571914.53547    476503.99944  22457958.3594                   22457960.6764
  -9811343.90248  -7642307.45646  20427879.7734                   20427878.7194
  13317638.24246  10386084.50043  23393801.8914   23393801.2384   20538181.07046
  16013436.55243                  23940158.8134                   23940163.7034
  13978167.77346  10907555.45144  23866123.8754                   23866123.5124
 -11623896.20347  -9054783.82845  22213044.6414   22213043.8524
 -14955809.46947 -11651059.92245  21634793.1414                   21634792.4734
 -19945055.65248 -15539843.32346  20477409.5164                   20477409.0514
 11  8 16 18 53 30.0000000  0  9G17G24G07G26G13G19G28G11G08
   7040201.59447   5495570.74945  22982608.9224                   22982610.8284
    442419.84847    375599.07944  22433316.5554                   22433318.5084
  -9879119.09847  -7695119.32246  20414982.1174                   20414981.3524
  13176034.43846  10275743.88043  23366853.8674   23366854.8244   20566565.10946
  16035553.56243                  23945560.3134                   23945565.2114
  13998269.72746  10923219.24544  23869949.5394                   23869948.5434
 -11732193.73047  -9139171.49345  22192435.9534   22192435.1994
 -15044219.03547 -11719950.48645  21617969.5864                   21617968.8094
 -20070597.23048 -15637667.94146  20453519.4144                   20453519.2584
 11  8 16 18 54  0.0000000  0  9G17G24G07G26G13G19G28G11G08
   6869844.46147   5362825.04345  22950190.7344                   22950193.2464
    313258.50047    274953.94344  22408737.9844                   22408739.7194
  -9946492.73448  -7747618.27746  20402161.6484                   20402160.4574
  13034898.32446  10165767.69143  23339995.7974   23339997.1174   20594894.73846
  16057628.36243                  23950951.5164                   23950955.9574
  14018428.79346  10938927.53143  23873786.1254                   23873783.9924
 -11840498.16447  -9223564.53745  22171826.2894   22171825.4534
 -15132126.97747 -11788450.16445  21601241.0474                   21601240.2934
 -20195836.46948 -15735256.98546  20429687.6804                   20429687.1844
 11  8 16 18 54 30.0000000  0  9G17G24G07G26G13G19G28G11G08
   6699689.34447   5230236.75345  22917811.5704                   22917813.4104
    184428.03547    174566.58644  22384221.8134                   22384223.6884
 -10013468.92647  -7799807.54046  20389416.6954                   20389415.5234
  12894226.67646  10056153.50243  23313227.4924   23313229.2934   20623161.89546
  16079654.42643                  23956330.8364                   23956335.8134
  14038637.93046  10954674.77743  23877631.2034                   23877629.4774
 -11948815.35247  -9307967.52745  22151214.0784   22151213.6134
 -15219537.12147 -11856561.95245  21584607.7584                   21584606.9454
 -20320775.82847 -15832612.33646  20405912.4144                   20405911.8094
 11  8 16 18 55  0.0000000  0  9G17G24G07G26G13G19G28G11G08
   6529735.31647   5097805.17045  22885469.6094                   22885472.0984
     55928.16447     74436.86944  22359769.0784                   22359770.9774
 -10080049.60547  -7851688.61846  20376746.4844                   20376745.7424
  12754018.55946   9946900.45643  23286546.8134   23286548.7274   20651361.12546
  16101627.49843                  23961697.0864                   23961702.4454
  14058891.48046  10970456.76943  23881485.8834                   23881483.2194
 -12057148.48847  -9392382.94645  22130599.1024   22130598.1994
 -15306451.71547 -11924287.58745  21568068.3524                   21568067.4224
 -20445415.59448 -15929734.23546  20382193.9534                   20382193.7344
 11  8 16 18 55 30.0000000  0  9G17G24G07G26G13G19G28G11G08
   6359978.22747   4965527.03145  22853166.3054                   22853168.3954
    -72244.45747    -25437.87644  22335378.9144                   22335381.1214
 -10146239.91847  -7903265.50346  20364150.8984                   20364150.0594
  12614269.91446   9838005.42244  23259953.1724   23259955.1994   20679483.62546
  16123540.73343                  23967048.4774                   23967054.1484
  14079181.10546  10986266.75343  23885346.5234                   23885344.5474
 -12165504.03547  -9476815.82245  22109980.1334   22109978.8134
 -15392875.58247 -11991630.85845  21551622.4924                   21551621.8364
 -20569759.20348 -16026625.36346  20358532.1484                   20358531.7774
 11  8 16 18 56  0.0000000  0  9G17G24G07G26G13G19G28G11G08
   6190422.73447   4833405.97945  22820900.5634                   22820903.2234
   -200083.41447   -125052.64144  22311052.2194                   22311053.7974
 -10212035.82447  -7954535.07146  20351630.1724                   20351629.6684
  12474986.48846   9729472.92243  23233449.2504   23233450.1954   20707530.55146
  16145395.14143                  23972385.4924                   23972391.5514
  14099507.89546  11002105.72643  23889214.8364                   23889213.2854
 -12273878.82847  -9561263.72445  22089356.8914   22089355.5984
 -15478804.66847 -12058588.57445  21535270.8134                   21535269.9104
 -20693800.55148 -16123280.97946  20334927.9844                   20334927.7384
 11  8 16 18 56 30.0000000  0  9G17G24G07G26G13G19G28G11G08
   6021061.37947   4701436.24445  22788671.6564                   22788674.6884
   -327595.59047   -224412.73744  22286787.4774                   22286788.8594
 -10277445.25847  -8005503.46946  20339183.4144                   20339182.4694
  12336160.24646   9621296.61443  23207030.5784   23207032.8874   20735489.29746
  16167180.88443                  23977706.8984                   23977712.1564
  14119860.13346  11017964.52943  23893087.3364                   23893085.7464
 -12382282.93047  -9645734.42845  22068728.0864   22068727.0864
 -15564247.27047 -12125167.21745  21519011.6334                   21519010.6724
 -20817546.17648 -16219706.13846  20311380.1564                   20311379.4104
 11  8 16 18 57  0.0000000  0  9G17G24G07G26G13G19G28G11G08
   5851893.68047   4569617.35145  22756480.5704                   22756482.7704
   -454780.78147   -323518.06944  22262584.6094                   22262586.4024
 -10342470.09047  -8056172.18546  20326809.4384                   20326808.9574
  12197790.91046   9513476.36843  23180699.6484   23180701.9024   20763354.82446
  16188893.92043                  23983009.7664                   23983015.3524
  14140232.94946  11033839.41843  23896964.7734                   23896963.4264
 -12490719.59447  -9730230.53745  22048093.1564   22048092.1804
 -15649205.24247 -12191368.22045  21502844.4614                   21502843.4304
 -20940996.09447 -16315900.88646  20287888.6094                   20287887.9224
 11  8 16 18 57 30.0000000  0  9G17G24G07G26G13G19G28G11G08
   5682926.46947   4437954.72644  22724326.4694                   22724328.9184
   -581630.59847   -422362.01844  22238445.3364                   22238447.6914
 -10407103.75847  -8106536.11146  20314510.2424                   20314509.4064
  12059885.77046   9406017.82943  23154457.3594   23154459.5864   20791130.00446
  16210536.55243                  23988295.3204                   23988300.5944
  14160629.39846  11049732.63743  23900846.1804                   23900845.4924
 -12599183.30547  -9814747.69545  22027453.4384   22027452.5554
 -15733671.97347 -12257186.42745  21486771.2584                   21486770.3094
 -21064142.19547 -16411858.90146  20264454.1024                   20264454.0204
 11  8 16 18 58  0.0000000  0  9G17G24G07G26G13G19G28G11G08
   5514161.99247   4306450.06644  22692211.7734                   22692213.8204
   -708141.77047   -520942.15344  22214371.6024                   22214373.5554
 -10471344.65247  -8156593.97346  20302285.8054                   20302284.7304
  11922447.88346   9298923.39143  23128304.5004   23128306.0314   20818813.37146
  16232107.70643                  23993563.9924                   23993569.3204
  14181048.07046  11065643.27543  23904731.7194                   23904729.5434
 -12707673.61347  -9899285.58545  22006808.2584   22006807.5004
 -15817646.10947 -12322620.80345  21470791.3134                   21470790.3954
 -21186981.10547 -16507577.54846  20241078.7424                   20241078.1914
 11  8 16 18 58 30.0000000  0  9G17G24G07G26G13G19G28G11G08
   5345597.41847   4175101.12545  22660135.6094                   22660137.4694
   -834316.25047   -619259.91344  22190361.8914                   22190363.2384
 -10535196.75447  -8206348.89646  20290134.9844                   20290134.1844
  11785474.21946   9192190.65043  23102238.8674   23102240.8634   20846397.18346
  16253601.23143                  23998812.8674                   23998818.2234
  14201481.87146  11081565.61743  23908619.9224                   23908618.2544
 -12816195.76247  -9983848.30245  21986157.2664   21986156.3794
 -15901131.31647 -12387674.21145  21454904.6644                   21454903.8094
 -21309515.05547 -16603058.54846  20217761.7274                   20217761.1884
 11  8 16 18 59  0.0000000  0  9G17G24G07G26G13G19G28G11G08
   5177235.19147   4043909.90344  22628096.8594                   22628099.0594
   -960150.60547   -717312.58844  22166416.1484                   22166417.5984
 -10598658.41447  -8255799.56146  20278058.8444                   20278058.0004
  11648967.23447   9085821.58344  23076263.1954   23076263.9224   20873879.70746
  16275015.92443                  24004042.5004                   24004048.2464
  14221929.22347  11097498.60843  23912511.2424                   23912508.8164
 -12924749.48847 -10068435.59245  21965500.0084   21965498.9144
 -15984126.37147 -12452345.68845  21439111.0084                   21439110.4064
 -21431740.42648 -16698299.11346  20194503.0314                   20194502.4614
 11  8 16 18 59 30.0000000  0  9G17G24G07G26G13G19G28G11G08
   5009076.36347   3912877.17245  22596096.9064                   22596099.6604
  -1085642.91847   -815098.77744  22142535.3054                   22142536.7814
 -10661729.62547  -8304945.98746  20266057.1804                   20266056.0784
  11512927.96147   8979816.95043  23050375.3364   23050376.4844   20901257.15646
  16296348.62843                  24009253.2194                   24009258.5474
  14242387.08646  11113439.75543  23916405.0164                   23916401.9414
 -13033336.19947 -10153048.60745  21944836.4064   21944835.7544
 -16066631.41847 -12516635.32745  21423411.2504                   21423410.3284
 -21553655.96147 -16793298.24046  20171303.0784                   20171302.6684
 11  8 16 19  0  0.0000000  0  9G17G24G07G26G13G19G28G11G08
   6416555.58647   5009614.33545  22863931.3204                   22863933.5434
    364641.24247    314992.82044  22418515.0164                   22418516.7344
  -9148979.35947  -7126179.56446  20553923.7664                   20553922.8594
  12952790.60946  10101787.83643  23324371.8984   23324373.2734   22503954.23846
  17545203.16343                  24314236.7034                   24314242.3674
  15838280.31646  12356992.86743  24220092.5704                   24220090.5234
 -11566524.72347  -9010078.59945  22223961.8914   22223960.5124
 -14573215.09847 -11352934.29245  21707598.7344                   21707597.7304
 -20099826.80947 -15660444.35446  20447957.6334                   20447957.3204
 11  8 16 19  0 30.0000000  0  9G17G24G07G26G13G19G28G11G08
   6248822.59447   4878913.40945  22832012.3984                   22832014.7854
    239855.49247    217757.21844  22394769.2114                   22394770.9574
  -9211251.98447  -7174703.72146  20542073.6174                   20542072.7774
  12817707.35546   9996528.17243  23298666.8284   23298667.8754   22531129.35545
  17566378.23343                  24319407.3134                   24319413.8634
  15858767.32446  12372956.71843  24223990.8444                   24223989.7814
 -11675163.19147  -9094731.93945  22203288.1724   22203287.4574
 -14654722.89847 -11416446.87045  21692087.8444                   21692087.1684
 -20221099.14147 -15754942.30146  20424880.1954                   20424879.9384
 11  8 16 19  1  0.0000000  0  9G17G24G07G26G13G19G28G11G08
   6081315.35547   4748388.39645  22800137.0864                   22800139.6724
    115437.03547    120807.82944  22371092.8914                   22371094.9774
  -9273113.96547  -7222907.89546  20530302.1094                   20530300.7664
  12683115.01246   9891651.00843  23273054.3444   23273055.5084   22558209.18046
  17587479.10242                  24324561.0234                   24324567.6644
  15879275.72346  12388937.24543  24227893.0784                   24227892.4384
 -11783817.82447  -9179397.87845  22182611.6334   22182611.3284
 -14735721.10247 -11479562.35345  21676674.3834                   21676673.9414
 -20342036.15247 -15849178.93646  20401866.8984                   20401866.3914
 11  8 16 19  1 30.0000000  0  9G17G24G07G26G13G19G28G11G08
   5914038.85547   4618043.17145  22768306.0004                   22768307.9184
     -8607.85547     24149.50144  22347488.3524                   22347490.0784
  -9334561.28147  -7270788.94846  20518609.0084                   20518607.9184
  12549018.71547   9787160.32943  23247537.5084   23247537.7774   22585194.92246
  17608506.61342                  24329696.5314                   24329702.8284
  15899806.51746  12404935.24443  24231799.9454                   24231799.4964
 -11892485.74647  -9264074.18145  22161932.9844   22161932.4964
 -14816205.42247 -11542277.41345  21661358.7894                   21661358.0474
 -20462631.72347 -15943149.52846  20378918.3204                   20378917.4414
 11  8 16 19  2  0.0000000  0  9G17G24G07G26G13G19G28G11G08
   5747008.80547   4487889.98745  22736520.8444                   22736522.3364
   -132262.73847    -72204.89144  22323957.5474                   22323959.1844
  -9395578.82447  -7318335.11846  20506997.2114                   20506996.6054
  12415434.41847   9683068.62843  23222117.3524   23222117.4804   22612097.98446
  17629469.69942                  24334815.8284                   24334822.6684
  15920371.82046  12420959.94543  24235714.4144                   24235712.4024
 -12001153.04347  -9348749.96645  22141254.6644   22141253.2344
 -14896161.30947 -11604580.69945  21646143.8054                   21646143.1174
 -20582869.18047 -16036841.05746  20356038.1884                   20356037.1414
 11  8 16 19  2 30.0000000  0  9G17G24G07G26G13G19G28G11G08
   5580230.63747   4357933.08845  22704783.4304                   22704785.6134
   -255521.03547   -168250.26744  22300502.4924                   22300503.6994
  -9456161.97747  -7365542.79246  20495468.9224                   20495467.9774
  12282367.52347   9579380.11343  23196794.9224   23196796.4384   22638919.77346
  17650369.48842                  24339919.8834                   24339926.9654
  15940973.02046  12437012.78143  24239634.0234                   24239632.1564
 -12109816.60547  -9433422.85945  22120576.4774   22120575.3714
 -14975583.98447 -11666468.50645  21631030.2114                   21631029.4344
 -20702741.93448 -16130248.39946  20333226.9844                   20333226.3404
 11  8 16 19  3  0.0000000  0  9G17G24G07G26G13G19G28G11G08
   5413710.40247   4228177.17745  22673096.1564                   22673098.0274
   -378375.84447   -263981.24444  22277123.4454                   22277125.6414
  -9516305.75047  -7412408.11046  20484023.6024                   20484023.1454
  12149824.32847   9476099.68244  23171572.9144   23171573.8794   22665662.25046
  17671207.48042                  24345009.4844                   24345016.1414
  15961612.58246  12453095.41143  24243562.3364                   24243560.5084
 -12218471.82047  -9518089.25545  22099900.4694   22099899.3594
 -15054468.66447 -11727937.07445  21616018.5864                   21616018.5944
 -20822242.96547 -16223366.10646  20310486.2584                   20310486.0594
 11  8 16 19  3 30.0000000  0  9G17G24G07G26G13G19G28G11G08
   5247454.50847   4098627.23245  22641458.2664                   22641460.6024
   -500819.96147   -359392.20144  22253823.1804                   22253824.8054
  -9576004.54747  -7458926.67946  20472663.2424                   20472662.4494
  12017810.93446   9373232.12743  23146450.9454   23146452.3754   22692327.35546
  17691985.15242                  24350083.1644                   24350090.4184
  15982292.70346  12469209.71043  24247496.7584                   24247495.6844
 -12327114.28147  -9602745.70745  22079225.9224   22079225.3754
 -15132809.99647 -11788982.28545  21601111.3364                   21601110.2544
 -20941365.14547 -16316188.60246  20287818.1094                   20287817.6724
 11  8 16 19  4  0.0000000  0  9G17G24G07G26G13G19G28G11G08
   5081472.19547   3969290.46945  22609872.5784                   22609875.3094
   -622843.11747   -454475.13944  22230603.4064                   22230604.4224
  -9635250.07847  -7505092.07246  20461389.3674                   20461388.7344
  11886336.91446   9270784.85943  23121432.2894   23121433.9534   22718920.32046
  17712706.60242                  24355144.8054                   24355151.3874
  16003019.39846  12485360.30443  24251440.7974                   24251440.4104
 -12435736.93747  -9687386.74245  22058555.7814   22058554.7234
 -15210599.72747 -11849597.67245  21586308.1254                   21586307.3164
 -21060098.49647 -16408708.10146  20265223.9534                   20265223.3984
 11  8 16 19  4 30.0000000  0  9G17G24G07G26G13G19G28G11G08
   4915767.64147   3840170.16845  22578340.1484                   22578342.0904
   -744439.85547   -549225.79844  22207464.4694                   22207465.0554
  -9694039.05548  -7550901.68146  20450202.3134                   20450201.7234
  11755406.59846   9168761.27543  23096517.4454   23096518.3634   22745441.28146
  17733371.92242                  24360191.6094                   24360198.5554
  16023793.01646  12501547.48443  24255394.8444                   24255393.1914
 -12544337.23047  -9772010.33245  22037890.2114   22037889.3714
 -15287834.76647 -11909780.81645  21571610.9144                   21571609.8364
 -21178437.41448 -16500920.26846  20242704.6724                   20242704.5784
 11  8 16 19  5  0.0000000  0  9G17G24G07G26G13G19G28G11G08
   4750339.75447   3711265.44445  22546859.8984                   22546862.4414
   -865610.64147   -643644.53144  22184405.9224                   22184407.3594
  -9752373.41847  -7596357.05746  20439101.8054                   20439101.0234
  11625019.00447   9067160.55443  23071705.9844   23071706.3094   22771885.19146
  17753977.25842                  24365224.7584                   24365230.6294
  16044608.50846  12517767.30743  24259356.2034                   24259353.8284
 -12652918.18747  -9856618.87245  22017227.4384   22017226.6644
 -15364517.53947 -11969533.62145  21557019.2584                   21557018.1214
 -21296382.10547 -16592825.21946  20220260.4774                   20220260.5164
 11  8 16 19  5 30.0000000  0  9G17G24G07G26G13G19G28G11G08
   4585196.48847   3582582.48345  22515434.4924                   22515436.2154
   -986346.75847   -737724.57744  22161430.3914                   22161431.9774
  -9810245.92247  -7641452.54746  20428088.8674                   20428088.3524
  11495181.89847   8965988.74243  23046999.2584   23046999.3444   22798255.68446
  17774525.40343                  24370242.9454                   24370248.6134
  16065470.06646  12534022.95943  24263326.8444                   24263323.5594
 -12761473.43747  -9941207.37145  21996570.3524   21996569.4304
 -15440641.06247 -12028850.67045  21542532.7664                   21542532.2504
 -21413923.35948 -16684415.82546  20197893.3284                   20197892.8284
 11  8 16 19  6  0.0000000  0  9G17G24G07G26G13G19G28G11G08
   4420336.11347   3454119.98145  22484062.5634                   22484064.7114
  -1106648.81247   -831466.41444  22138538.3984                   22138539.1604
  -9867659.42247  -7686190.37146  20417163.8984                   20417162.9924
  11365893.74247   8865244.72043  23022396.1724   23022396.8014   22824547.16846
  17795011.87942                  24375245.8134                   24375252.0784
  16086372.43846  12550310.45743  24267304.1724                   24267301.4884
 -12870006.77047 -10025778.80045  21975917.0784   21975916.2274
 -15516208.16047 -12087734.13145  21528152.7114                   21528152.5554
 -21531062.34047 -16775692.96846  20175602.3524                   20175601.9694
 11  8 16 19  6 30.0000000  0  9G17G24G07G26G13G19G28G11G08
   4255753.43847   3325873.85445  22452743.2274                   22452745.3204
  -1226521.07847   -924873.31944  22115726.8674                   22115728.2704
  -9924619.72747  -7730575.04746  20406324.6174                   20406323.6294
  11237149.39847   8764924.47044  22997896.7894   22997897.8754   22850750.28146
  17815429.52342                  24380232.7194                   24380239.5984
  16107306.76646  12566622.95943  24271287.4224                   24271284.8594
 -12978525.23047 -10110338.62945  21955266.7894   21955266.0554
 -15591224.88347 -12146188.73245  21513877.2504                   21513877.2544
 -21647803.13747 -16866659.82346  20153387.6094                   20153387.0234
 11  8 16 19  7  0.0000000  0  9G17G24G07G26G13G19G28G11G08
   4091445.21547   3197841.57345  22421476.2194                   22421478.3204
  -1345965.91447  -1017947.16744  22092997.2894                   22092998.8204
  -9981131.56247  -7774610.27046  20395570.5554                   20395569.5434
  11108945.41446   8665025.29543  22973499.9304   22973501.0044   22876857.87946
  17835772.69843                  24385201.5704                   24385207.9884
  16128266.00446  12582954.69542  24275275.5784                   24275272.9654
 -13087033.77047 -10194890.74545  21934618.4774   21934617.6374
 -15665695.93747 -12204218.12845  21499706.2734                   21499705.7894
 -21764147.96948 -16957318.15546  20131247.9844                   20131247.0594
 11  8 16 19  7 30.0000000  0  9G17G24G07G26G13G19G28G11G08
   3927415.28147   3070026.14845  22390262.5554                   22390264.3444
  -1464978.49247  -1110684.17744  22070349.3444                   22070350.9454
 -10037191.51247  -7818293.39246  20384902.8754                   20384901.8164
  10981285.82046   8565550.30043  22949206.3284   22949208.4144   22902870.07046
  17856041.62243                  24390150.3674                   24390157.3674
  16149250.68846  12599306.32042  24279268.9694                   24279266.7384
 -13195530.12547 -10279433.35445  21913972.1254   21913971.1094
 -15739618.50047 -12261820.12545  21485639.3204                   21485638.6374
 -21880091.80548 -17047663.99846  20109184.2814                   20109184.2234
 11  8 16 19  8  0.0000000  0  9G17G24G07G26G13G19G28G11G08
   3763658.20347   2942423.33745  22359101.0784                   22359102.3714
  -1583563.52747  -1203088.02844  22047783.4844                   22047785.0314
 -10092806.07447  -7861629.44446  20374319.4534                   20374318.9384
  10854165.12947   8466495.22644  22925016.8984   22925018.7934   22928777.21146
  17876228.66842                  24395081.1564                   24395088.1054
  16170251.77746  12615670.83443  24283265.2504                   24283263.7274
 -13304021.41447 -10363972.04245  21893327.0784   21893326.4654
 -15812999.34447 -12319000.00145  21471675.4144                   21471674.5744
 -21995639.57848 -17137701.23346  20087196.7584                   20087196.3444
 11  8 16 19  8 30.0000000  0  9G17G24G07G26G13G19G28G11G08
   3600169.34447   2815029.52945  22327989.4774                   22327991.4414
  -1701724.88347  -1295161.78444  22025298.3524                   22025299.8244
 -10147980.87947  -7904622.82346  20363820.3204                   20363819.3324
  10727578.68447   8367856.44344  22900928.7034   22900929.7584   22954570.80946
  17896327.18442                  24399990.3984                   24399996.6374
  16191260.78546  12632041.36443  24287262.7584                   24287262.1484
 -13412514.30947 -10448511.92745  21872681.4694   21872680.5984
 -15885844.05947 -12375762.11645  21457813.2734                   21457812.8754
 -22110794.53547 -17227432.37146  20065283.2424                   20065282.9654
 11  8 16 19  9  0.0000000  0  9G17G24G07G26G13G19G28G11G08
   3436952.39147   2687847.58645  22296930.1564                   22296932.3014
  -1819457.88747  -1386901.74344  22002894.6484                   22002895.8954
 -10202713.57047  -7947271.70546  20353405.0864                   20353404.3984
  10601529.79347   8269636.55644  22876941.7894   22876943.0434   22980250.33646
  17916336.83642                  24404876.7424                   24404884.1484
  16212277.79746  12648418.14943  24291262.5474                   24291262.4064
 -13521006.88347 -10533051.59845  21852036.0394   21852035.0274
 -15958150.50047 -12432104.82245  21444053.8984                   21444053.4964
 -22225552.23048 -17316853.97146  20043445.2894                   20043445.1094
 11  8 16 19  9 30.0000000  0  9G17G24G07G26G13G19G28G11G08
   4849428.21147   3788478.19745  22565715.3284                   22565717.1604
   -361342.21147   -250707.66944  22280364.2894                   22280365.6604
  -8681587.08247  -6761978.40046  20642865.4694                   20642865.2584
  12051438.17647   9399435.25644  23152850.3674   23152851.7814   24581226.58246
  19163850.43442                  24709533.1334                   24709539.8244
  17808714.11746  13892394.40743  24595053.8594                   24595054.0864
 -12054081.65647  -9389992.98545  22131182.7114   22131181.6564
 -14454501.80947 -11260430.52045  21730189.0554                   21730188.3754
 -20764492.42647 -16178365.81846  20321475.9454                   20321475.8324
 11  8 16 19 10  0.0000000  0  9G17G24G07G26G13G19G28G11G08
   4686741.91047   3661709.75145  22534757.6724                   22534758.7504
   -478228.95747   -341788.18844  22258122.1564                   22258122.8054
  -8735450.35947  -6803949.79946  20632616.0314                   20632615.5704
  11926451.51247   9302043.00644  23129066.2664   23129066.9494   24606653.50846
  19183663.21542                  24714372.0394                   24714378.6214
  17829723.65246  13908765.38443  24599052.0704                   24599052.8014
 -12162591.67647  -9474546.24745  22110533.7894   22110533.1174
 -14525748.09447 -11315947.12345  21716631.1024                   21716630.3554
 -20878465.58247 -16267176.08746  20299787.5004                   20299787.3524
 11  8 16 19 10 30.0000000  0  9G17G24G07G26G13G19G28G11G08
   4524321.18847   3535148.24045  22503849.3594                   22503850.8014
   -594690.79747   -432537.61644  22235960.4224                   22235961.4304
  -8788880.69547  -6845583.86646  20622448.7814                   20622448.2734
  11801996.04747   9205064.78444  23105383.5704   23105384.6844   24631948.51646
  19203373.20342                  24719184.8984                   24719193.2384
  17850724.52346  13925129.64443  24603048.6174                   24603049.0204
 -12271112.39547  -9559107.83345  22089882.9064   22089882.2774
 -14596466.17247 -11371052.10945  21703174.0234                   21703173.2504
 -20992044.46548 -16355679.13046  20278174.3914                   20278173.6414
 11  8 16 19 11  0.0000000  0  9G17G24G07G26G13G19G28G11G08
   4362159.42647   3408788.52045  22472990.9384                   22472992.7384
   -710733.67647   -522960.62244  22213877.8754                   22213878.8404
  -8841885.27747  -6886886.17646  20612362.2734                   20612361.5204
  11678065.35547   9108495.43244  23081799.6644   23081800.9454   24657101.49246
  19222972.57442                  24723971.9614                   24723980.0084
  17871706.81646  13941479.39143  24607042.0394                   24607041.7274
 -12379651.81647  -9643684.00645  22069228.4064   22069227.6994
 -14666663.33647 -11425751.22645  21689815.5084                   21689815.2934
 -21105234.93047 -16443879.49246  20256634.7194                   20256634.7774
 11  8 16 19 11 30.0000000  0  9G17G24G07G26G13G19G28G11G08
   4200261.20347   3282634.13645  22442182.5084                   22442183.8874
   -826352.21147   -613052.96544  22191875.6484                   22191877.5594
  -8894460.62547  -6927854.03346  20602357.0084                   20602356.7234
  11554663.48047   9012338.11743  23058316.9454   23058318.2504   24682112.78146
  19242461.48442                  24728732.1174                   24728740.0204
  17892671.19546  13957815.25843  24611031.1724                   24611031.9694
 -12488207.69947  -9728273.01445  22048570.9454   22048570.0234
 -14736336.93447 -11480042.33945  21676557.4454                   21676556.9454
 -21218031.50448 -16531772.94946  20235170.6644                   20235169.8714
 11  8 16 19 12  0.0000000  0  8G17G24G07G26G19G28G11G08
   4038626.75447   3156685.29845  22411424.3674                   22411426.1254
   -941545.52047   -702813.95744  22169955.7734                   22169956.4654
  -8946607.58647  -6968488.06246  20592434.1484                   20592433.6294
  11431790.38747   8916592.83444  23034935.1724   23034936.5744
  17913614.37946  13974134.46443  24615016.9224                   24615016.8054
 -12596780.79747  -9812875.42545  22027910.3284   22027909.2624
 -14805487.72747 -11533926.09445  21663398.6954                   21663398.2234
 -21330433.23047 -16619358.73046  20213781.0004                   20213780.7464
 11  8 16 19 12 30.0000000  0  8G17G24G07G26G19G28G11G08
   3877256.03547   3030941.96645  22380716.6804                   22380718.4734
  -1056312.57047   -792242.79644  22148116.0234                   22148116.9614
  -8998326.77047  -7008788.77746  20582592.3754                   20582592.0594
  11309446.24647   8821259.73244  23011654.2814   23011655.4224
  17934533.32846  13990434.89443  24618997.3054                   24618997.6564
 -12705372.99647  -9897492.72745  22007245.7424   22007245.1094
 -14874117.06647 -11587403.51045  21650338.9844                   21650337.9804
 -21442438.38348 -16706635.48046  20192467.3444                   20192466.7234
 11  8 16 19 13  0.0000000  0  8G17G24G07G26G19G28G11G08
   3716160.46947   2905413.03845  22350061.2584                   22350063.2774
  -1170641.22347   -881330.00644  22126359.7034                   22126361.4264
  -9049608.27347  -7048748.43746  20572833.8594                   20572833.2464
  11187642.32847   8726347.59344  22988475.6954   22988477.3914
  17955436.05946  14006722.63543  24622975.4304                   24622975.2704
 -12813974.32847  -9982117.12745  21986579.9844   21986579.1954
 -14942214.85947 -11640466.71445  21637380.2114                   21637379.6254
 -21554034.65647 -16793593.63446  20171231.4144                   20171230.9844
 11  8 16 19 13 30.0000000  0  8G17G24G07G26G19G28G11G08
   3555353.65647   2780109.10345  22319460.8054                   22319462.2544
  -1284517.12547   -970064.45745  22104690.3364                   22104691.2974
  -9100439.55547  -7088357.27146  20563161.4304                   20563160.8014
  11066391.92647   8631866.76144  22965402.2584   22965404.4184
  17976332.72746  14023005.72943  24626952.0554                   24626951.3914
 -12922573.03147 -10066739.49945  21965913.9534   21965912.9494
 -15009769.14847 -11693106.43845  21624524.9924                   21624524.5124
 -21665207.94147 -16880222.17646  20150075.6334                   20150075.2074
 11  8 16 19 14  0.0000000  0  8G17G24G07G26G19G28G11G08
   3394846.51247   2655038.67945  22288917.5084                   22288918.5204
  -1397928.48447  -1058436.93444  22083108.8914                   22083109.7114
  -9150810.51247  -7127607.42046  20553575.9924                   20553575.6054
  10945705.62147   8537825.45444  22942436.0784   22942438.2584
  17997230.70746  14039289.77543  24630928.7664                   24630928.6764
 -13031159.38347 -10151352.23945  21945250.8284   21945249.7114
 -15076770.23447 -11745315.09745  21611775.5704                   21611774.6054
 -21775946.18047 -16966511.72746  20129003.0944                   20129002.1174
 11  8 16 19 14 30.0000000  0  8G17G24G07G26G19G28G11G08
   3234637.30947   2530200.44445  22258430.4774                   22258431.7504
  -1510875.95347  -1146447.91944  22061615.3364                   22061616.4494
  -9200723.51247  -7166500.73646  20544077.6804                   20544077.0314
  10825581.93447   8444222.58244  22919578.0234   22919579.5394
  18018125.28146  14055571.24043  24634904.3834                   24634905.2854
 -13139736.70747 -10235957.94145  21924589.0634   21924588.3794
 -15143220.73847 -11797094.70645  21599129.8364                   21599129.4064
 -21886249.95747 -17052462.72346  20108012.5554                   20108012.2194
 11  8 16 19 15  0.0000000  0  8G17G24G07G26G19G28G11G08
   3074725.52047   2405593.93845  22227999.8914                   22228001.4264
  -1623359.66447  -1234097.56644  22040210.3134                   22040211.3054
  -9250180.62147  -7205038.79546  20534666.4614                   20534666.0274
  10706019.75047   8351057.23044  22896826.3364   22896826.8364
  18039012.38346  14071846.81643  24638879.9454                   24638878.8984
 -13248306.80547 -10320558.00145  21903929.1724   21903928.2774
 -15209123.08247 -11848447.18845  21586589.4064                   21586588.3874
 -21996118.70347 -17138074.76846  20087105.6024                   20087105.2814
 11  8 16 19 15 30.0000000  0  8G17G24G07G26G19G28G11G08
   2915107.87147   2281216.63545  22197625.9144                   22197627.5664
  -1735382.07447  -1321387.71244  22018892.9064                   22018894.5704
  -9299186.04347  -7243224.88446  20525341.1174                   20525340.5314
  10587015.56347   8258326.69044  22874180.0004   22874182.1294
  18059885.69545  14088111.52843  24642850.9614                   24642850.5234
 -13356874.48447 -10405156.19845  21883269.2194   21883268.4414
 -15274481.82847 -11899376.07945  21574151.9844                   21574151.1334
 -22105554.72747 -17223349.59946  20066280.4534                   20066280.1094
 11  8 16 19 16  0.0000000  0  8G17G24G07G26G19G28G11G08
   2755786.05147   2157069.85745  22167307.9304                   22167309.3364
  -1846940.57847  -1408316.38344  21997664.1564                   21997665.6644
  -9347739.14547  -7281058.51546  20516101.5394                   20516100.9884
  10468570.84847   8166032.14544  22851640.3914   22851641.8914
  18080743.35246  14104364.26242  24646820.6644                   24646819.7664
 -13465439.50447 -10489752.30845  21862610.2194   21862609.2304
 -15339296.59847 -11949881.10945  21561818.3914                   21561817.7544
 -22214555.51647 -17308285.28046  20045538.4924                   20045537.7934
 11  8 16 19 16 30.0000000  0  8G17G24G07G26G19G28G11G08
   2596756.57047   2033150.88345  22137045.2974                   22137046.9184
  -1958037.99647  -1494885.78644  21976523.4304                   21976524.7154
  -9395844.71547  -7318543.41246  20506947.2814                   20506947.0274
  10350681.78947   8074170.50044  22829207.6094   22829208.6094
  18101578.93046  14120599.72342  24650785.4454                   24650785.4574
 -13574006.90647 -10574350.25545  21841950.5864   21841949.5864
 -15403572.34047 -11999966.10645  21549587.1254                   21549586.2734
 -22323123.70347 -17392883.89246  20024878.9534                   20024878.3914
 11  8 16 19 17  0.0000000  0  8G17G24G07G26G19G28G11G08
   2438023.74647   1909463.07845  22106839.2894                   22106840.9654
  -2068669.69547  -1581092.23944  21955470.7584                   21955471.9884
  -9443499.44547  -7355676.98846  20497879.3054                   20497878.6604
  10233352.39547   7982744.97944  22806880.3364   22806881.2234
  18122393.30146  14136818.61143  24654745.8674                   24654745.8484
 -13682573.77347 -10658947.80245  21821290.6174   21821289.7154
 -15467306.29347 -12049628.92445  21537458.9694                   21537458.2304
 -22431254.06247 -17477141.32946  20004302.1484                   20004301.7934
 11  8 16 19 17 30.0000000  0  8G17G24G07G26G19G28G11G08
   2279587.50847   1786006.35445  22076689.3914                   22076691.1024
  -2178834.27047  -1666934.75044  21934506.7974                   21934507.7194
  -9490704.08247  -7392459.88346  20488896.5634                   20488896.0474
  10116582.55147   7891755.48444  22784659.5634   22784661.3204
  18143183.45746  14153018.73443  24658702.5864                   24658701.8054
 -13791141.17647 -10743545.77545  21800630.8834   21800630.0204
 -15530499.52347 -12098870.41445  21525433.6174                   21525433.0084
 -22538944.92247 -17561056.29846  19983808.9064                   19983808.7114
 11  8 16 19 18  0.0000000  0  8G17G24G07G26G19G28G11G08
   2121456.80147   1662787.73145  22046598.3754                   22046599.8794
  -2288522.09447  -1752405.74144  21913633.8054                   21913635.2384
  -9537450.88747  -7428886.00246  20480000.8984                   20480000.2384
  10000380.84447   7801208.68544  22762547.3594   22762548.8284
  18163955.03946  14169204.29943  24662656.0864                   24662654.2504
 -13899701.68747 -10828138.38345  21779972.7584   21779971.5784
 -15593144.84047 -12147684.95145  21513512.7274                   21513511.8444
 -22646186.81647 -17644621.42746  19963401.7664                   19963401.5084
 11  8 16 19 18 30.0000000  0  7G17G24G07G26G28G11G08
   1963635.10547   1539809.87945  22016566.5704                   22016567.1054
  -2397729.24647  -1837502.17944  21892852.2344                   21892853.5044
  -9583737.62947  -7464953.64746  20471193.0944                   20471192.1564
   9884750.20747   7711106.86244  22740543.3984   22740544.6254
 -14008253.32447 -10912724.08245  21759316.4454   21759314.7274
 -15655240.38347 -12196071.09345  21501696.1094                   21501695.6174
 -22752975.31247 -17727833.25346  19943080.2194                   19943080.5124
 11  8 16 19 19  0.0000000  0  7G17G24G07G26G28G11G08
   3381560.01647   2644686.52645  22286387.6174                   22286389.3284
   -931018.97747   -694611.03444  22171958.4064                   22171959.3094
  -8054131.21947  -6273052.59546  20762267.5554                   20762266.9064
  11345126.66847   8849062.52844  23018444.1884   23018445.1484
 -12541361.46147  -9769691.43745  22038456.3284   22038455.2464
 -14141353.07847 -11016418.66045  21789779.2974                   21789778.8014
 -21283873.16847 -16583078.35246  20222641.6484                   20222641.3634
 11  8 16 19 19 30.0000000  0  7G17G24G07G26G28G11G08
   3224398.65647   2522223.22245  22256481.3204                   22256482.5784
  -1039220.46147   -778923.83044  22151367.6564                   22151369.2544
  -8099459.07447  -6308373.08146  20753641.7664                   20753641.2074
  11230679.68446   8759883.06344  22996665.4924   22996666.6684
 -12649857.03147  -9854233.45045  22017810.2584   22017809.2234
 -14202311.16447 -11063918.46945  21778179.5634                   21778178.5514
 -21389708.99247 -16665547.84646  20202501.3524                   20202501.4414
 11  8 16 19 20  0.0000000  0  7G17G24G07G26G28G11G08
   3067593.07047   2400037.15045  22226641.9534                   22226643.2544
  -1146892.17647   -862823.83044  22130879.3834                   22130879.9104
  -8144283.27047  -6343301.07246  20745111.9534                   20745111.3524
  11116849.78947   8671184.44744  22975004.8284   22975005.6604
 -12758300.58247  -9938734.91345  21997173.9454   21997172.7154
 -14262676.97347 -11110956.74445  21766692.3754                   21766691.0634
 -21495041.41447 -16747625.05446  20182457.4304                   20182457.2464
 11  8 16 19 20 30.0000000  0  7G17G24G07G26G28G11G08
   2911155.73047   2278138.00645  22196873.2584                   22196874.2504
  -1254020.89847   -946300.69244  22110492.8134                   22110493.6294
  -8188592.24247  -6377827.60546  20736680.8364                   20736679.6604
  11003649.08647   8582976.04844  22953463.1334   22953464.1054
 -12866680.89147 -10023187.10345  21976550.1334   21976548.7424
 -14322439.34047 -11157524.83445  21755320.0314                   21755318.8914
 -21599856.89847 -16829299.47046  20162511.6174                   20162511.2464
 11  8 16 19 21  0.0000000  0  7G17G24G07G26G28G11G08
   2755083.96547   2156523.71345  22167173.6954                   22167174.2344
  -1360609.19947  -1029356.50844  22090209.6024                   22090211.2544
  -8232390.18047  -6411955.93646  20728346.4224                   20728345.7344
  10891073.85247   8495255.10044  22932040.5394   22932041.8164
 -12975001.73847 -10107592.95045  21955937.3204   21955936.5944
 -14381603.01247 -11203626.41645  21744061.4774                   21744060.5124
 -21704157.39147 -16910572.58946  20142664.3834                   20142663.7344
 11  8 16 19 21 30.0000000  0  7G17G24G07G26G28G11G08
   2599375.93847   2035192.87645  22137543.2114                   22137544.4414
  -1466657.78947  -1111991.69244  22070029.4844                   22070030.7114
  -8275679.83647  -6445688.18346  20720108.2584                   20720107.9694
  10779122.55146   8408020.26343  22910736.9304   22910737.6684
 -13083266.15247 -10191954.82245  21935335.3674   21935334.1724
 -14440171.07847 -11249263.85945  21732916.5634                   21732915.4844
 -21807943.41447 -16991444.82246  20122914.0004                   20122913.9734
 11  8 16 19 22  0.0000000  0  7G17G24G07G26G28G11G08
   2444032.97347   1914146.48445  22107982.2814                   22107983.3834
  -1572164.40247  -1194204.61744  22049951.9774                   22049953.6994
  -8318461.06648  -6479024.26246  20711967.0234                   20711966.8444
  10667796.16046   8321272.44643  22889551.8674   22889553.0274
 -13191474.16847 -10276272.76445  21914743.8834   21914742.9844
 -14498143.69947 -11294437.34045  21721884.0784                   21721883.2854
 -21911212.57847 -17071914.29946  20103262.7504                   20103262.6484
 11  8 16 19 22 30.0000000  0  7G17G24G07G26G28G11G08
   2289053.28547   1793383.16645  22078490.4614                   22078491.3554
  -1677130.91447  -1275996.65644  22029977.8204                   22029978.7584
  -8360737.15248  -6511966.72646  20703922.5234                   20703922.0944
  10557091.82846   8235009.31443  22868485.1024   22868486.2774
 -13299628.67647 -10360548.99145  21894162.8914   21894161.8754
 -14555524.42247 -11339149.60145  21710965.1254                   21710964.0274
 -22013966.02747 -17151981.92946  20083709.2114                   20083709.2114
 11  8 16 19 23  0.0000000  0  7G17G24G07G26G28G11G08
   2134442.78147   1672907.52345  22049069.3134                   22049069.8714
  -1781550.52347  -1357362.57144  22010107.4694                   22010108.1724
  -8402502.90648  -6544511.51046  20695974.8674                   20695974.5234
  10447015.32447   8149235.41443  22847538.9384   22847539.8164
 -13407725.42647 -10444780.22745  21873592.6414   21873591.6454
 -14612308.98447 -11383397.31945  21700159.5864                   21700158.5514
 -22116196.99247 -17231642.42846  20064255.6254                   20064255.2384
 11  8 16 19 23 30.0000000  0  7G17G24G07G26G28G11G08
   1980195.55947   1552714.96245  22019716.5554                   22019718.1604
  -1885428.34447  -1438306.29344  21990339.9924                   21990341.0084
  -8443765.60547  -6576664.31746  20688122.6724                   20688122.6174
  10337560.05947   8063945.57144  22826709.9694   22826711.6884
 -13515770.77747 -10528971.40145  21853032.3444   21853031.2114
 -14668504.77047 -11427186.25145  21689465.8754                   21689464.8954
 -22217910.47747 -17310899.68846  20044900.0634                   20044900.0474
 11  8 16 19 24  0.0000000  0  7G17G24G07G26G28G11G08
   1826315.02047   1432808.10745  21990434.1484                   21990435.2464
  -1988760.23447  -1518824.63644  21970676.4924                   21970678.1174
  -8484523.03547  -6608423.41146  20680366.7974                   20680366.3634
  10228729.54347   7979142.53844  22806000.5554   22806002.5004
 -13623762.14847 -10613120.52245  21832482.2424   21832481.1294
 -14724109.66447 -11470514.76445  21678884.1564                   21678883.7704
 -22319101.86747 -17389750.12146  20025644.3134                   20025643.4024
 11  8 16 19 24 30.0000000  0  7G17G24G07G26G28G11G08
   1672801.89147   1313187.58445  21961221.3914                   21961222.4654
  -2091544.87147  -1598916.55544  21951116.7664                   21951118.4064
  -8524775.52048  -6639789.00346  20672707.4304                   20672706.5824
  10120523.47347   7894826.12543  22785409.5784   22785411.0594
 -13731700.73847 -10697228.52445  21811942.1094   21811941.2274
 -14779124.94547 -11513383.82945  21668415.2274                   21668414.9024
 -22419769.51247 -17468192.45846  20006487.8204                   20006487.0784
 11  8 16 19 25  0.0000000  0  7G17G24G07G26G28G11G08
   1519660.84847   1193856.96245  21932079.6174                   21932080.7194
  -2193777.18447  -1678578.05344  21931662.5084                   21931664.3284
  -8564519.49647  -6670758.39346  20665143.6334                   20665143.5704
  10012946.25447   7810999.64944  22764938.4924   22764939.8984
 -13839582.56647 -10781292.28245  21791413.0314   21791412.3164
 -14833546.91847 -11555790.57545  21658059.1414                   21658058.2814
 -22519907.58248 -17546222.13546  19987431.6724                   19987431.3404
 11  8 16 19 25 30.0000000  0  7G17G24G07G26G28G11G08
   1366901.75447   1074823.97445  21903010.3134                   21903012.0314
  -2295446.60247  -1757800.96544  21912316.0394                   21912317.0204
  -8603746.32448  -6701324.79346  20657679.7894                   20657678.8554
   9906007.23447   7727670.54744  22744588.5704   22744589.5904
 -13947398.41848 -10865304.64445  21770896.3674   21770895.2034
 -14887368.22747 -11597729.27145  21647817.3674                   21647816.3674
 -22619505.02348 -17623830.53546  19968479.3524                   19968479.0004
 11  8 16 19 26  0.0000000  0  7G17G24G07G26G28G11G08
   1214529.04747    956092.07245  21874014.9384                   21874016.3914
  -2396548.39547  -1836581.57344  21893077.1484                   21893077.7384
  -8642453.03147  -6731485.90946  20650314.3984                   20650313.5784
   9799709.95747   7644841.49244  22724361.2114   22724362.1094
 -14055145.38747 -10949263.31045  21750392.6484   21750391.8874
 -14940586.02747 -11639197.69945  21637690.5164                   21637689.3794
 -22718556.90247 -17701013.84046  19949630.3674                   19949630.1604
